[[{"header":{"parameterUnit":"m.s-1","parameterCategory":1,"la1":31.0,"la2":29.5877,"lo1":-88.7671,"lo2":-86.6584,"dy":0.0162,"dx":0.0185,"nx":115,"ny":88,"refTime":"2024-03-19T06:00:00:Z","depth":0,"parameterNumber":2,"parameterNumberName":"U-component_of_WINDS"},"data":[0.0,0.0,0.0,0.0,0.0,0.0,0.0,0.0,0.0,0.0,0.0,0.0,0.0,0.0,0.0,0.0,0.0,0.0,0.0,0.0,0.0,0.0,0.0,0.0,0.0,0.0,0.0,0.0,0.0,0.0,0.0,0.0,0.0,0.0,0.0,0.0,0.0,0.0,0.0,0.0,0.0,0.0,0.0,0.0,0.0,0.0,0.0,0.0,0.0,0.0,0.0,0.0,0.0,0.0,0.0,0.0,0.0,0.0,0.0,0.0,0.0,0.0,0.0,0.0,0.0,0.0,0.0,0.0,0.0,0.0,0.0,0.0,0.0,0.0,0.0,0.0,0.0,0.0,0.0,0.0,0.0,0.0,0.0,0.0,0.0,0.0,0.0,0.0,0.0,0.0,0.0,0.0,0.0,0.0,0.0,0.0,0.0,0.0,0.0,0.0,0.0,0.0,0.0,0.0,0.0,0.0,0.0,0.0,0.0,0.0,0.0,0.0,0.0,0.0,0.0,0.0,0.0,0.0,0.0,0.0,0.0,0.0,0.0,0.0,0.0,0.0,0.0,0.0,0.0,0.0,0.0,0.0,0.0,0.0,0.0,0.0,0.0,0.0,0.0,0.0,0.0,0.0,0.0,0.0,0.0,0.0,0.0,0.0,0.0,0.0,0.0,0.0,0.0,0.0,0.0,0.0,0.0,0.0,0.0,0.0,0.0,0.0,0.0,0.0,0.0,0.0,0.0,0.0,0.0,0.0,0.0,0.0,0.0,0.0,0.0,0.0,0.0,0.0,0.0,0.0,0.0,0.0,0.0,0.0,0.0,0.0,0.0,0.0,0.0,0.0,0.0,0.0,0.0,0.0,0.0,0.0,0.0,0.0,0.0,0.0,0.0,0.0,0.0,0.0,0.0,0.0,0.0,0.0,0.0,0.0,0.0,0.0,0.0,0.0,0.0,0.0,0.0,0.0,0.0,0.0,0.0,0.0,0.0,0.0,0.0,0.0,0.0,0.0,0.0,0.0,0.0,0.0,0.0,0.0,0.0,0.0,0.0,0.0,0.0,0.0,0.0,0.0,0.0,0.0,0.0,0.0,0.0,0.0,0.0,0.0,0.0,0.0,0.0,0.0,0.0,0.0,0.0,0.0,0.0,0.0,0.0,0.0,0.0,0.0,0.0,0.0,0.0,0.0,0.0,0.0,0.0,0.0,0.0,0.0,0.0,0.0,0.0,0.0,0.0,0.0,0.0,0.0,0.0,0.0,0.0,0.0,0.0,0.0,0.0,0.0,0.0,0.0,0.0,0.0,0.0,0.0,0.0,0.0,0.0,0.0,0.0,0.0,0.0,0.0,0.0,0.0,0.0,0.0,0.0,0.0,0.0,0.0,0.0,0.0,0.0,0.0,0.0,0.0,0.0,0.0,0.0,0.0,0.0,0.0,0.0,0.0,0.0,0.0,0.0,0.0,0.0,0.0,0.0,0.0,0.0,0.0,0.0,0.0,0.0,0.0,0.0,0.0,0.0,0.0,0.0,0.0,0.0,0.0,0.0,0.0,0.0,0.0,0.0,0.0,0.0,0.0,0.0,0.0,0.0,0.0,0.0,0.0,0.0,0.0,0.0,0.0,0.0,0.0,0.0,0.0,0.0,0.0,0.0,0.0,0.0,0.0,0.0,0.0,0.0,0.0,0.0,0.0,0.0,0.0,0.0,0.0,0.0,0.0,0.0,0.0,0.0,0.0,0.0,0.0,0.0,0.0,0.0,0.0,0.0,0.0,0.0,0.0,0.0,0.0,0.0,0.0,0.0,0.0,0.0,0.0,0.0,0.0,0.0,0.0,0.0,0.0,0.0,0.0,0.0,0.0,0.0,0.0,0.0,0.0,0.0,0.0,0.0,0.0,0.0,0.0,0.0,0.0,0.0,0.0,0.0,0.0,0.0,0.0,0.0,0.0,0.0,0.0,0.0,0.0,0.0,0.0,0.0,0.0,0.0,0.0,0.0,0.0,0.0,0.0,0.0,0.0,0.0,0.0,0.0,0.0,0.0,0.0,0.0,0.0,0.0,0.0,0.0,0.0,0.0,0.0,0.0,0.0,0.0,0.0,0.0,0.0,0.0,0.0,0.0,0.0,0.0,0.0,0.0,0.0,0.0,0.0,0.0,0.0,0.0,0.0,0.0,0.0,0.0,0.0,0.0,0.0,0.0,0.0,0.0,0.0,0.0,0.0,0.0,0.0,0.0,0.0,0.0,0.0,0.0,0.0,0.0,0.0,0.0,0.0,0.0,0.0,0.0,0.0,0.0,0.0,0.0,0.0,0.0,0.0,0.0,0.0,0.0,0.0,0.0,0.0,0.0,0.0,0.0,0.0,0.0,0.0,0.0,0.0,0.0,0.0,0.0,0.0,0.0,0.0,0.0,0.0,0.0,0.0,0.0,0.0,0.0,0.0,0.0,0.0,0.0,0.0,0.0,0.0,0.0,0.0,0.0,0.0,0.0,0.0,0.0,0.0,0.0,0.0,0.0,0.0,0.0,0.0,0.0,0.0,0.0,0.0,0.0,0.0,0.0,0.0,0.0,0.0,0.0,0.0,0.0,0.0,0.0,0.0,0.0,0.0,0.0,0.0,0.0,0.0,0.0,0.0,0.0,0.0,0.0,0.0,0.0,0.0,0.0,0.0,0.0,0.0,0.0,0.0,0.0,0.0,0.0,0.0,0.0,0.0,0.0,0.0,0.0,0.0,0.0,0.0,0.0,0.0,0.0,0.0,0.0,0.0,0.0,0.0,0.0,0.0,0.0,0.0,0.0,0.0,0.0,0.0,0.0,0.0,0.0,0.0,0.0,0.0,0.0,0.0,0.0,0.0,0.0,0.0,0.0,0.0,0.0,0.0,0.0,0.0,0.0,0.0,0.0,0.0,0.0,0.0,0.0,0.0,0.0,0.0,0.0,0.0,0.0,0.0,0.0,0.0,0.0,0.0,0.0,0.0,0.0,0.0,0.0,0.0,0.0,0.0,0.0,0.0,0.0,0.0,0.0,0.0,0.0,0.0,0.0,0.0,0.0,0.0,0.0,0.0,0.0,0.0,0.0,0.0,0.0,0.0,0.0,0.0,0.0,0.0,0.0,0.0,0.0,0.0,0.0,0.0,0.0,0.0,0.0,0.0,0.0,0.0,0.0,0.0,0.0,0.0,0.0,0.0,0.0,0.0,0.0,0.0,0.0,0.0,0.0,0.0,0.0,0.0,0.0,0.0,0.0,0.0,0.0,0.0,0.0,0.0,0.0,0.0,0.0,0.0,0.0,0.0,0.0,0.0,0.0,0.0,0.0,0.0,0.0,0.0,0.0,0.0,0.0,0.0,0.0,0.0,0.0,0.0,0.0,0.0,0.0,0.0,0.0,0.0,0.0,0.0,0.0,0.0,0.0,0.0,0.0,0.0,0.0,0.0,0.0,0.0,0.0,0.0,0.0,0.0,0.0,0.0,0.0,0.0,0.0,0.0,0.0,0.0,0.0,0.0,0.0,0.0,0.0,0.0,0.0,0.0,0.0,0.0,0.0,0.0,0.0,0.0,0.0,0.0,0.0,0.0,0.0,0.0,0.0,0.0,0.0,0.0,0.0,0.0,0.0,0.0,0.0,0.0,0.0,0.0,0.0,0.0,0.0,0.0,0.0,0.0,0.0,0.0,0.0,0.0,0.0,0.0,0.0,0.0,0.0,0.0,0.0,0.0,0.0,0.0,0.0,0.0,0.0,0.0,0.0,0.0,0.0,0.0,0.0,0.0,0.0,0.0,0.0,0.0,0.0,0.0,0.0,0.0,0.0,0.0,0.0,0.0,0.0,0.0,0.0,0.0,0.0,0.0,0.0,0.0,0.0,0.0,0.0,0.0,0.0,0.0,0.0,0.0,0.0,0.0,0.0,0.0,0.0,0.0,0.0,0.0,0.0,0.0,0.0,0.0,0.0,0.0,0.0,0.0,0.0,0.0,0.0,0.0,0.0,0.0,0.0,0.0,0.0,0.0,0.0,0.0,0.0,0.0,0.0,0.0,0.0,0.0,0.0,0.0,0.0,0.0,0.0,0.0,0.0,0.0,0.0,0.0,0.0,0.0,0.0,0.0,0.0,0.0,0.0,0.0,0.0,0.0,0.0,0.0,0.0,0.0,0.0,0.0,0.0,0.0,0.0,0.0,0.0,0.0,0.0,0.0,0.0,0.0,0.0,0.0,0.0,0.0,0.0,0.0,0.0,0.0,0.0,0.0,0.0,0.0,0.0,0.0,2.5446,0.0,0.0,0.0,0.0,0.0,0.0,0.0,0.0,0.0,0.0,0.0,0.0,0.0,0.0,0.0,0.0,0.0,0.0,0.0,0.0,0.0,0.0,0.0,0.0,0.0,0.0,0.0,0.0,0.0,0.0,0.0,0.0,0.0,0.0,0.0,0.0,0.0,0.0,0.0,0.0,0.0,0.0,0.0,0.0,0.0,0.0,0.0,0.0,0.0,0.0,0.0,0.0,0.0,0.0,0.0,0.0,0.0,0.0,0.0,0.0,0.0,0.0,0.0,0.0,0.0,0.0,0.0,0.0,0.0,0.0,0.0,0.0,0.0,0.0,0.0,0.0,0.0,0.0,0.0,0.0,0.0,0.0,0.0,0.0,0.0,0.0,0.0,0.0,0.0,0.0,0.0,0.0,0.0,0.0,0.0,0.0,0.0,0.0,0.0,0.0,0.0,0.0,0.0,0.0,0.0,0.0,0.0,0.0,0.0,0.0,2.4762,2.5647,2.4345,2.4262,2.5646,0.0,0.0,0.0,0.0,0.0,0.0,0.0,0.0,0.0,0.0,0.0,0.0,0.0,0.0,0.0,0.0,0.0,0.0,0.0,0.0,0.0,0.0,0.0,0.0,0.0,0.0,0.0,0.0,0.0,0.0,0.0,0.0,0.0,0.0,0.0,0.0,0.0,0.0,0.0,0.0,0.0,0.0,0.0,0.0,0.0,0.0,0.0,0.0,0.0,0.0,0.0,0.0,0.0,0.0,0.0,0.0,0.0,0.0,0.0,0.0,0.0,0.0,0.0,0.0,0.0,0.0,0.0,0.0,0.0,0.0,0.0,0.0,0.0,0.0,0.0,0.0,0.0,0.0,0.0,0.0,0.0,0.0,0.0,0.0,0.0,0.0,0.0,0.0,0.0,0.0,0.0,0.0,0.0,0.0,0.0,0.0,0.0,0.0,0.0,0.0,0.0,0.0,0.0,0.0,0.0,0.0,0.0,0.0,0.0,0.0,0.0,0.0,2.5075,2.499,2.6124,0.0,0.0,0.0,0.0,0.0,0.0,0.0,0.0,0.0,0.0,0.0,0.0,0.0,0.0,0.0,0.0,0.0,0.0,0.0,0.0,0.0,0.0,0.0,0.0,0.0,0.0,0.0,0.0,0.0,0.0,0.0,0.0,0.0,0.0,0.0,0.0,0.0,0.0,0.0,0.0,0.0,0.0,0.0,0.0,0.0,0.0,0.0,0.0,0.0,0.0,0.0,0.0,0.0,0.0,0.0,0.0,0.0,0.0,0.0,0.0,0.0,0.0,0.0,0.0,0.0,0.0,0.0,0.0,0.0,0.0,0.0,0.0,0.0,0.0,0.0,0.0,0.0,0.0,0.0,0.0,0.0,0.0,0.0,0.0,0.0,0.0,0.0,0.0,0.0,0.0,0.0,0.0,0.0,0.0,0.0,0.0,0.0,0.0,0.0,0.0,0.0,0.0,0.0,0.0,0.0,0.0,0.0,0.0,0.0,0.0,2.792,2.79,2.8411,0.0,2.7846,0.0,0.0,0.0,0.0,0.0,0.0,0.0,0.0,0.0,0.0,0.0,0.0,0.0,0.0,0.0,0.0,0.0,0.0,0.0,0.0,0.0,0.0,0.0,0.0,0.0,0.0,0.0,0.0,0.0,0.0,0.0,0.0,0.0,0.0,0.0,0.0,0.0,0.0,0.0,0.0,0.0,0.0,0.0,0.0,0.0,0.0,0.0,0.0,0.0,0.0,0.0,0.0,0.0,0.0,0.0,0.0,0.0,0.0,0.0,0.0,0.0,0.0,0.0,0.0,0.0,0.0,0.0,0.0,0.0,0.0,0.0,0.0,0.0,0.0,0.0,0.0,0.0,0.0,0.0,0.0,0.0,0.0,0.0,0.0,0.0,0.0,0.0,0.0,0.0,0.0,0.0,0.0,0.0,0.0,0.0,0.0,0.0,0.0,0.0,0.0,0.0,0.0,0.0,0.0,0.0,0.0,0.0,0.0,0.0,0.0,2.8449,2.8778,2.862,2.8171,0.0,0.0,0.0,0.0,0.0,0.0,0.0,0.0,0.0,0.0,0.0,0.0,0.0,0.0,0.0,0.0,0.0,0.0,0.0,0.0,0.0,0.0,0.0,0.0,0.0,0.0,0.0,0.0,0.0,0.0,0.0,0.0,0.0,0.0,0.0,0.0,0.0,0.0,0.0,0.0,0.0,0.0,0.0,0.0,0.0,0.0,0.0,0.0,0.0,0.0,0.0,0.0,0.0,0.0,0.0,0.0,0.0,0.0,0.0,0.0,0.0,0.0,0.0,0.0,0.0,0.0,0.0,0.0,0.0,0.0,0.0,0.0,0.0,0.0,0.0,0.0,0.0,0.0,0.0,0.0,0.0,0.0,0.0,0.0,0.0,0.0,0.0,0.0,0.0,0.0,0.0,0.0,0.0,0.0,0.0,0.0,0.0,0.0,0.0,0.0,0.0,0.0,0.0,0.0,0.0,0.0,0.0,0.0,0.0,0.0,2.9416,2.949,2.984,2.8955,2.8079,2.728,0.0,0.0,0.0,0.0,0.0,0.0,0.0,0.0,0.0,0.0,0.0,0.0,0.0,0.0,0.0,0.0,0.0,0.0,0.0,0.0,0.0,0.0,0.0,0.0,0.0,0.0,0.0,0.0,0.0,0.0,0.0,0.0,0.0,0.0,0.0,0.0,0.0,0.0,0.0,0.0,0.0,0.0,0.0,0.0,0.0,0.0,0.0,0.0,0.0,0.0,0.0,0.0,0.0,0.0,0.0,0.0,0.0,0.0,0.0,0.0,0.0,0.0,0.0,0.0,0.0,0.0,0.0,0.0,0.0,0.0,0.0,0.0,0.0,0.0,0.0,0.0,0.0,0.0,0.0,0.0,0.0,0.0,0.0,0.0,0.0,0.0,0.0,0.0,0.0,0.0,0.0,0.0,0.0,0.0,0.0,0.0,0.0,0.0,0.0,0.0,0.0,0.0,0.0,0.0,0.0,0.0,0.0,0.0,3.2631,3.2051,3.1636,3.1442,3.0193,2.9022,0.0,0.0,0.0,0.0,0.0,0.0,0.0,0.0,0.0,0.0,0.0,0.0,0.0,0.0,0.0,0.0,0.0,0.0,0.0,0.0,0.0,0.0,0.0,0.0,0.0,0.0,0.0,0.0,0.0,0.0,0.0,0.0,0.0,0.0,0.0,0.0,0.0,0.0,0.0,0.0,0.0,0.0,0.0,0.0,0.0,0.0,0.0,0.0,0.0,0.0,0.0,0.0,0.0,0.0,0.0,0.0,0.0,0.0,0.0,0.0,0.0,0.0,0.0,0.0,0.0,0.0,0.0,0.0,0.0,0.0,0.0,0.0,0.0,0.0,0.0,0.0,0.0,0.0,0.0,0.0,0.0,0.0,0.0,0.0,0.0,0.0,0.0,0.0,0.0,0.0,0.0,0.0,0.0,0.0,0.0,0.0,0.0,0.0,0.0,0.0,0.0,0.0,0.0,0.0,0.0,0.0,0.0,0.0,0.0,3.2361,3.2496,3.2292,3.1708,3.0094,2.9061,0.0,0.0,0.0,0.0,0.0,0.0,0.0,0.0,0.0,0.0,0.0,0.0,0.0,0.0,0.0,0.0,0.0,0.0,0.0,0.0,0.0,0.0,0.0,0.0,0.0,0.0,0.0,0.0,0.0,0.0,0.0,0.0,0.0,0.0,0.0,0.0,0.0,0.0,0.0,0.0,0.0,0.0,0.0,0.0,0.0,0.0,0.0,0.0,0.0,0.0,0.0,0.0,0.0,0.0,0.0,0.0,0.0,0.0,0.0,0.0,0.0,0.0,0.0,0.0,0.0,0.0,0.0,0.0,0.0,0.0,0.0,0.0,0.0,0.0,0.0,0.0,0.0,0.0,0.0,0.0,0.0,0.0,0.0,0.0,0.0,0.0,0.0,0.0,0.0,0.0,0.0,0.0,0.0,0.0,0.0,0.0,0.0,0.0,0.0,0.0,0.0,0.0,0.0,0.0,0.0,0.0,0.0,0.0,0.0,3.3097,0.0,3.3342,3.2047,3.0877,2.9638,0.0,0.0,0.0,0.0,0.0,0.0,0.0,0.0,0.0,0.0,0.0,0.0,0.0,0.0,0.0,0.0,0.0,0.0,0.0,0.0,0.0,0.0,0.0,0.0,0.0,0.0,0.0,0.0,0.0,0.0,0.0,0.0,0.0,0.0,0.0,0.0,0.0,0.0,0.0,0.0,0.0,0.0,0.0,0.0,0.0,0.0,0.0,0.0,0.0,0.0,0.0,0.0,0.0,0.0,0.0,0.0,0.0,0.0,0.0,0.0,0.0,0.0,0.0,0.0,0.0,0.0,0.0,0.0,0.0,0.0,0.0,0.0,0.0,0.0,0.0,0.0,0.0,0.0,0.0,0.0,0.0,0.0,0.0,0.0,0.0,0.0,0.0,0.0,0.0,0.0,0.0,0.0,0.0,0.0,0.0,0.0,0.0,0.0,0.0,0.0,0.0,0.0,0.0,0.0,0.0,0.0,0.0,0.0,3.4071,3.5206,3.5808,3.5022,3.2683,3.2707,3.0888,0.0,0.0,0.0,0.0,0.0,0.0,0.0,0.0,0.0,0.0,0.0,0.0,0.0,0.0,0.0,0.0,0.0,0.0,0.0,0.0,0.0,0.0,0.0,0.0,0.0,0.0,0.0,0.0,0.0,0.0,0.0,0.0,0.0,0.0,0.0,0.0,0.0,0.0,0.0,0.0,0.0,0.0,0.0,0.0,0.0,0.0,0.0,0.0,0.0,0.0,0.0,0.0,0.0,0.0,0.0,0.0,0.0,0.0,0.0,0.0,0.0,0.0,0.0,0.0,0.0,0.0,0.0,0.0,0.0,0.0,0.0,0.0,0.0,0.0,0.0,0.0,0.0,0.0,0.0,0.0,0.0,0.0,0.0,0.0,0.0,0.0,0.0,0.0,0.0,0.0,0.0,0.0,0.0,0.0,0.0,0.0,0.0,0.0,0.0,0.0,0.0,0.0,0.0,0.0,0.0,0.0,0.0,0.0,0.0,3.4563,3.5927,3.6561,3.6163,3.3299,3.1587,0.0,0.0,0.0,0.0,0.0,0.0,0.0,0.0,0.0,0.0,0.0,0.0,0.0,0.0,0.0,0.0,0.0,0.0,0.0,0.0,0.0,0.0,0.0,0.0,0.0,0.0,0.0,0.0,0.0,0.0,0.0,0.0,0.0,0.0,0.0,0.0,0.0,0.0,0.0,0.0,0.0,0.0,0.0,0.0,0.0,0.0,0.0,0.0,0.0,0.0,0.0,0.0,0.0,0.0,0.0,0.0,0.0,0.0,0.0,0.0,0.0,0.0,0.0,0.0,0.0,0.0,0.0,0.0,0.0,0.0,0.0,0.0,0.0,0.0,0.0,0.0,0.0,0.0,0.0,0.0,0.0,0.0,0.0,0.0,0.0,0.0,0.0,0.0,0.0,0.0,0.0,0.0,0.0,0.0,0.0,0.0,0.0,0.0,0.0,0.0,0.0,0.0,0.0,0.0,0.0,0.0,0.0,0.0,0.0,3.7699,3.8583,3.8913,3.8413,3.5543,3.3434,3.2262,0.0,0.0,0.0,0.0,0.0,0.0,0.0,0.0,0.0,0.0,0.0,0.0,0.0,0.0,0.0,0.0,0.0,0.0,0.0,0.0,0.0,0.0,0.0,0.0,0.0,0.0,0.0,0.0,0.0,0.0,0.0,0.0,0.0,0.0,0.0,0.0,0.0,0.0,0.0,0.0,0.0,0.0,0.0,0.0,0.0,0.0,0.0,0.0,0.0,0.0,0.0,0.0,0.0,0.0,0.0,0.0,0.0,0.0,0.0,0.0,0.0,0.0,0.0,0.0,0.0,0.0,0.0,0.0,0.0,0.0,0.0,0.0,0.0,0.0,0.0,0.0,0.0,0.0,0.0,0.0,0.0,0.0,0.0,0.0,0.0,0.0,0.0,0.0,0.0,0.0,0.0,0.0,0.0,0.0,0.0,0.0,0.0,0.0,0.0,0.0,0.0,0.0,0.0,0.0,0.0,0.0,0.0,0.0,4.3699,4.352,4.2299,3.9879,3.9183,3.6327,0.0,0.0,0.0,0.0,0.0,0.0,0.0,0.0,0.0,0.0,0.0,0.0,0.0,0.0,0.0,0.0,0.0,0.0,0.0,0.0,0.0,0.0,0.0,0.0,0.0,0.0,0.0,0.0,0.0,0.0,0.0,0.0,0.0,0.0,0.0,0.0,0.0,0.0,0.0,0.0,0.0,0.0,0.0,0.0,0.0,0.0,0.0,0.0,0.0,0.0,0.0,0.0,0.0,0.0,0.0,0.0,0.0,0.0,0.0,0.0,0.0,0.0,0.0,0.0,0.0,0.0,0.0,0.0,0.0,0.0,0.0,0.0,0.0,0.0,0.0,0.0,0.0,0.0,0.0,0.0,0.0,0.0,0.0,0.0,0.0,0.0,0.0,0.0,0.0,0.0,0.0,0.0,0.0,0.0,0.0,0.0,0.0,0.0,0.0,0.0,0.0,0.0,0.0,0.0,0.0,0.0,0.0,0.0,0.0,4.8675,4.9609,4.8433,4.5072,4.2386,3.9242,0.0,0.0,0.0,0.0,0.0,0.0,0.0,0.0,0.0,0.0,0.0,0.0,0.0,0.0,0.0,0.0,0.0,0.0,0.0,0.0,0.0,0.0,0.0,0.0,0.0,0.0,0.0,0.0,0.0,0.0,0.0,0.0,0.0,0.0,0.0,0.0,0.0,0.0,0.0,0.0,0.0,0.0,0.0,0.0,0.0,0.0,0.0,0.0,0.0,0.0,0.0,0.0,0.0,0.0,0.0,0.0,0.0,0.0,0.0,0.0,0.0,0.0,0.0,0.0,0.0,0.0,0.0,0.0,0.0,0.0,0.0,0.0,0.0,0.0,0.0,0.0,0.0,0.0,0.0,0.0,0.0,0.0,0.0,0.0,0.0,0.0,0.0,0.0,0.0,0.0,0.0,0.0,0.0,0.0,0.0,0.0,0.0,0.0,0.0,0.0,0.0,0.0,0.0,0.0,0.0,0.0,0.0,0.0,4.8977,5.2187,5.4002,5.3489,5.0454,4.6642,4.2359,0.0,0.0,0.0,0.0,0.0,0.0,0.0,0.0,0.0,0.0,0.0,0.0,0.0,0.0,0.0,0.0,0.0,0.0,0.0,0.0,0.0,0.0,0.0,0.0,0.0,0.0,0.0,0.0,0.0,0.0,0.0,0.0,0.0,0.0,0.0,0.0,0.0,0.0,0.0,0.0,0.0,0.0,0.0,0.0,0.0,0.0,0.0,0.0,0.0,0.0,0.0,0.0,0.0,0.0,0.0,0.0,0.0,0.0,0.0,0.0,0.0,0.0,0.0,0.0,0.0,0.0,0.0,0.0,0.0,0.0,0.0,0.0,0.0,0.0,0.0,0.0,0.0,0.0,0.0,0.0,0.0,0.0,0.0,0.0,0.0,0.0,0.0,0.0,0.0,0.0,0.0,0.0,0.0,0.0,0.0,0.0,0.0,0.0,0.0,0.0,0.0,0.0,0.0,0.0,0.0,0.0,0.0,0.0,5.1874,5.5011,5.7396,5.7629,5.5506,5.1137,4.5399,0.0,0.0,0.0,0.0,0.0,0.0,0.0,0.0,0.0,0.0,0.0,0.0,0.0,0.0,0.0,0.0,0.0,0.0,0.0,0.0,0.0,0.0,0.0,0.0,0.0,0.0,0.0,0.0,0.0,0.0,0.0,0.0,0.0,0.0,0.0,0.0,0.0,0.0,0.0,0.0,0.0,0.0,0.0,0.0,0.0,0.0,0.0,0.0,0.0,0.0,0.0,0.0,0.0,0.0,0.0,0.0,0.0,0.0,0.0,0.0,0.0,0.0,0.0,0.0,0.0,0.0,0.0,0.0,0.0,0.0,0.0,0.0,0.0,0.0,0.0,0.0,0.0,0.0,0.0,0.0,0.0,0.0,0.0,0.0,0.0,0.0,0.0,0.0,0.0,0.0,0.0,0.0,0.0,0.0,0.0,0.0,0.0,0.0,0.0,0.0,0.0,0.0,0.0,0.0,0.0,0.0,0.0,0.0,5.4766,5.9311,6.0704,6.0649,5.9115,5.3303,4.7079,0.0,0.0,0.0,0.0,0.0,0.0,0.0,0.0,0.0,0.0,0.0,0.0,0.0,0.0,0.0,0.0,0.0,0.0,0.0,0.0,0.0,0.0,0.0,0.0,0.0,0.0,0.0,0.0,0.0,0.0,0.0,0.0,0.0,0.0,0.0,0.0,0.0,0.0,0.0,0.0,0.0,0.0,0.0,0.0,0.0,0.0,0.0,0.0,3.2094,0.0,0.0,0.0,0.0,0.0,0.0,0.0,0.0,0.0,0.0,0.0,0.0,0.0,0.0,0.0,0.0,0.0,0.0,0.0,0.0,0.0,0.0,0.0,0.0,0.0,0.0,0.0,0.0,0.0,0.0,0.0,0.0,0.0,0.0,0.0,0.0,0.0,0.0,0.0,0.0,0.0,0.0,0.0,0.0,0.0,0.0,0.0,0.0,0.0,0.0,0.0,0.0,0.0,0.0,0.0,0.0,0.0,0.0,0.0,5.7046,6.1875,6.2383,6.1887,6.0324,5.5417,4.9861,0.0,0.0,0.0,0.0,0.0,0.0,0.0,0.0,0.0,0.0,0.0,0.0,0.0,0.0,0.0,0.0,0.0,0.0,0.0,0.0,0.0,0.0,0.0,0.0,0.0,0.0,0.0,0.0,0.0,0.0,0.0,0.0,0.0,0.0,0.0,0.0,0.0,0.0,0.0,0.0,0.0,0.0,0.0,0.0,0.0,0.0,0.0,0.0,0.0,0.0,0.0,0.0,0.0,0.0,0.0,0.0,0.0,0.0,0.0,0.0,0.0,0.0,0.0,0.0,0.0,0.0,0.0,0.0,0.0,0.0,0.0,0.0,0.0,0.0,0.0,0.0,0.0,0.0,0.0,0.0,0.0,0.0,0.0,0.0,0.0,0.0,0.0,0.0,0.0,0.0,0.0,0.0,0.0,0.0,0.0,0.0,0.0,0.0,0.0,0.0,0.0,0.0,0.0,0.0,0.0,0.0,0.0,5.4967,5.9079,6.3695,6.3754,6.2865,6.123,5.7549,5.2843,0.0,0.0,0.0,0.0,0.0,0.0,0.0,0.0,0.0,0.0,0.0,0.0,0.0,0.0,0.0,0.0,0.0,0.0,0.0,0.0,0.0,0.0,0.0,0.0,0.0,0.0,0.0,0.0,0.0,0.0,0.0,0.0,0.0,0.0,0.0,0.0,0.0,0.0,0.0,2.8801,3.1594,0.0,0.0,0.0,0.0,0.0,0.0,0.0,0.0,3.3925,0.0,0.0,0.0,0.0,0.0,0.0,0.0,0.0,0.0,0.0,0.0,0.0,0.0,0.0,0.0,0.0,0.0,0.0,0.0,0.0,0.0,0.0,0.0,0.0,0.0,0.0,0.0,0.0,0.0,0.0,0.0,0.0,0.0,0.0,0.0,0.0,0.0,0.0,0.0,0.0,0.0,0.0,0.0,0.0,0.0,0.0,0.0,0.0,0.0,0.0,0.0,0.0,0.0,0.0,0.0,0.0,5.3393,5.6921,6.1044,6.5715,6.6265,6.5577,6.3542,5.9743,5.4921,4.9041,0.0,0.0,0.0,0.0,0.0,0.0,0.0,0.0,0.0,0.0,0.0,0.0,0.0,0.0,0.0,0.0,0.0,0.0,0.0,0.0,0.0,0.0,0.0,0.0,0.0,0.0,0.0,0.0,0.0,0.0,0.0,0.0,0.0,0.0,0.0,0.0,0.0,0.0,0.0,3.6171,3.7919,0.0,0.0,0.0,0.0,0.0,0.0,0.0,0.0,3.5036,0.0,0.0,0.0,0.0,0.0,0.0,0.0,0.0,0.0,0.0,0.0,0.0,0.0,0.0,0.0,0.0,0.0,0.0,0.0,0.0,0.0,0.0,0.0,0.0,0.0,0.0,0.0,0.0,0.0,0.0,0.0,0.0,0.0,0.0,0.0,0.0,0.0,0.0,0.0,0.0,0.0,0.0,0.0,0.0,0.0,0.0,0.0,0.0,0.0,0.0,0.0,0.0,0.0,0.0,0.0,5.4893,5.9467,6.3768,6.7721,6.7322,6.6129,6.4329,5.9895,5.4452,0.0,0.0,0.0,0.0,0.0,0.0,0.0,0.0,0.0,0.0,0.0,0.0,0.0,0.0,0.0,0.0,0.0,0.0,0.0,0.0,0.0,0.0,0.0,0.0,0.0,0.0,0.0,0.0,0.0,0.0,0.0,0.0,0.0,0.0,0.0,0.0,0.0,0.0,0.0,0.0,3.7316,3.8347,3.9497,0.0,0.0,0.0,0.0,0.0,0.0,3.8045,3.7417,0.0,0.0,0.0,0.0,0.0,0.0,0.0,0.0,0.0,0.0,0.0,0.0,0.0,0.0,0.0,0.0,0.0,0.0,0.0,0.0,0.0,0.0,0.0,0.0,0.0,0.0,0.0,0.0,0.0,0.0,0.0,0.0,0.0,0.0,0.0,0.0,0.0,0.0,0.0,0.0,0.0,0.0,0.0,0.0,0.0,0.0,0.0,0.0,0.0,0.0,0.0,0.0,0.0,0.0,0.0,5.5922,6.1484,6.5999,6.9111,6.798,6.6497,6.4783,6.0047,5.4124,0.0,0.0,0.0,0.0,0.0,0.0,0.0,0.0,0.0,0.0,0.0,0.0,0.0,0.0,0.0,0.0,0.0,0.0,0.0,0.0,0.0,0.0,0.0,0.0,0.0,0.0,0.0,0.0,0.0,0.0,0.0,0.0,0.0,0.0,0.0,0.0,0.0,0.0,0.0,0.0,0.0,3.9425,4.1554,4.0821,0.0,0.0,0.0,0.0,4.0968,4.0931,0.0,0.0,0.0,0.0,0.0,0.0,0.0,0.0,0.0,0.0,0.0,0.0,0.0,0.0,0.0,0.0,0.0,0.0,0.0,0.0,0.0,0.0,0.0,0.0,0.0,0.0,0.0,0.0,0.0,0.0,0.0,0.0,0.0,0.0,0.0,0.0,0.0,0.0,0.0,0.0,0.0,0.0,0.0,0.0,0.0,0.0,0.0,0.0,0.0,0.0,0.0,0.0,0.0,0.0,0.0,0.0,5.5632,6.2013,6.6577,6.8986,6.8954,6.7793,6.5605,6.1782,5.5928,0.0,0.0,0.0,0.0,0.0,0.0,0.0,0.0,0.0,0.0,0.0,0.0,0.0,0.0,0.0,0.0,0.0,0.0,0.0,0.0,0.0,0.0,0.0,0.0,0.0,0.0,0.0,0.0,0.0,0.0,0.0,0.0,0.0,0.0,0.0,0.0,0.0,0.0,0.0,0.0,0.0,4.4486,4.3948,4.419,4.4196,0.0,0.0,0.0,4.3706,4.4745,0.0,0.0,0.0,0.0,0.0,0.0,0.0,0.0,0.0,0.0,0.0,0.0,0.0,0.0,0.0,0.0,0.0,0.0,0.0,0.0,0.0,0.0,0.0,0.0,0.0,0.0,0.0,0.0,0.0,0.0,0.0,0.0,0.0,0.0,0.0,0.0,0.0,0.0,0.0,0.0,0.0,0.0,0.0,0.0,0.0,0.0,0.0,0.0,0.0,0.0,0.0,0.0,0.0,0.0,0.0,5.3179,5.6779,6.3512,6.8127,7.024,6.9792,6.8475,6.6362,6.1746,5.5918,0.0,0.0,0.0,0.0,0.0,0.0,0.0,0.0,0.0,0.0,0.0,0.0,0.0,0.0,0.0,0.0,0.0,0.0,0.0,0.0,0.0,0.0,0.0,0.0,0.0,0.0,0.0,0.0,0.0,0.0,0.0,0.0,0.0,0.0,0.0,0.0,0.0,0.0,0.0,0.0,0.0,0.0,4.6644,4.718,0.0,0.0,0.0,4.7359,4.7049,0.0,0.0,0.0,0.0,0.0,0.0,0.0,0.0,0.0,0.0,0.0,0.0,0.0,0.0,0.0,0.0,0.0,0.0,0.0,0.0,0.0,0.0,0.0,0.0,0.0,0.0,0.0,0.0,0.0,0.0,0.0,0.0,0.0,0.0,0.0,0.0,0.0,0.0,0.0,0.0,0.0,0.0,0.0,0.0,0.0,0.0,0.0,0.0,0.0,0.0,0.0,0.0,0.0,0.0,0.0,0.0,0.0,5.779,6.4961,6.9572,7.1244,7.0176,6.8614,6.6696,6.1676,0.0,0.0,0.0,0.0,0.0,0.0,0.0,0.0,0.0,0.0,0.0,0.0,0.0,0.0,0.0,0.0,0.0,0.0,0.0,0.0,0.0,0.0,0.0,0.0,0.0,0.0,0.0,0.0,0.0,0.0,0.0,0.0,0.0,0.0,0.0,0.0,0.0,0.0,0.0,0.0,0.0,0.0,4.7261,4.906,5.0137,5.0378,0.0,0.0,5.141,5.0506,5.1183,5.0458,0.0,0.0,0.0,0.0,0.0,0.0,0.0,0.0,0.0,0.0,0.0,0.0,0.0,0.0,0.0,0.0,0.0,0.0,0.0,0.0,0.0,0.0,0.0,0.0,0.0,0.0,0.0,0.0,0.0,0.0,0.0,0.0,0.0,0.0,0.0,0.0,0.0,0.0,0.0,0.0,0.0,0.0,0.0,0.0,0.0,0.0,0.0,0.0,0.0,0.0,0.0,0.0,0.0,0.0,0.0,5.8307,6.6006,7.0558,7.15,6.9738,6.8043,6.6518,6.2111,5.7036,0.0,0.0,0.0,0.0,0.0,0.0,0.0,0.0,0.0,0.0,0.0,0.0,0.0,0.0,0.0,0.0,0.0,0.0,0.0,0.0,0.0,0.0,0.0,0.0,0.0,0.0,0.0,0.0,0.0,0.0,0.0,0.0,0.0,0.0,0.0,0.0,0.0,0.0,0.0,0.0,0.0,5.0335,5.0854,5.326,5.4924,0.0,0.0,5.5381,5.3987,5.5547,5.4834,4.84,0.0,0.0,0.0,0.0,0.0,0.0,0.0,0.0,0.0,0.0,0.0,0.0,0.0,0.0,0.0,0.0,0.0,0.0,0.0,0.0,0.0,0.0,0.0,0.0,0.0,0.0,0.0,0.0,0.0,0.0,0.0,0.0,0.0,0.0,0.0,0.0,0.0,0.0,0.0,0.0,0.0,0.0,0.0,0.0,0.0,0.0,0.0,0.0,0.0,0.0,0.0,0.0,0.0,5.5342,5.7867,6.6276,7.072,7.081,6.9894,6.8435,6.649,6.2605,5.8096,0.0,0.0,0.0,0.0,0.0,0.0,0.0,0.0,0.0,0.0,0.0,0.0,0.0,0.0,0.0,0.0,0.0,0.0,0.0,0.0,0.0,0.0,0.0,0.0,0.0,0.0,0.0,0.0,3.0399,3.1853,3.3667,0.0,0.0,0.0,0.0,0.0,0.0,0.0,0.0,0.0,0.0,5.2706,5.4211,5.6029,0.0,0.0,5.7422,5.7522,5.7353,5.6492,5.4606,5.0966,4.8726,0.0,0.0,0.0,0.0,0.0,0.0,0.0,0.0,0.0,0.0,0.0,0.0,0.0,0.0,0.0,0.0,0.0,0.0,0.0,0.0,0.0,0.0,0.0,0.0,0.0,0.0,0.0,0.0,0.0,0.0,0.0,0.0,0.0,0.0,0.0,0.0,0.0,0.0,0.0,0.0,0.0,0.0,0.0,0.0,0.0,0.0,0.0,0.0,0.0,0.0,0.0,0.0,5.5433,5.7629,6.6439,7.0785,7.0387,6.9807,6.8458,6.6191,6.2823,5.9097,0.0,0.0,0.0,0.0,0.0,0.0,0.0,0.0,0.0,0.0,0.0,0.0,0.0,0.0,0.0,0.0,0.0,0.0,0.0,0.0,0.0,0.0,0.0,0.0,0.0,0.0,0.0,0.0,3.2932,3.3981,3.4896,0.0,0.0,0.0,0.0,0.0,0.0,0.0,0.0,0.0,0.0,5.5179,5.7362,5.8571,5.9351,5.9586,5.9379,5.9276,5.9546,5.7549,5.5139,5.2711,0.0,0.0,0.0,0.0,0.0,0.0,0.0,0.0,0.0,0.0,0.0,0.0,0.0,0.0,0.0,0.0,0.0,0.0,0.0,0.0,0.0,0.0,0.0,0.0,0.0,0.0,0.0,0.0,0.0,0.0,0.0,0.0,0.0,0.0,0.0,0.0,0.0,0.0,0.0,0.0,0.0,0.0,0.0,0.0,0.0,0.0,0.0,0.0,0.0,0.0,0.0,0.0,0.0,0.0,5.7762,6.6609,7.0901,7.0299,6.9404,6.7918,6.5736,6.2672,5.9951,5.7642,0.0,0.0,0.0,0.0,0.0,0.0,0.0,0.0,0.0,0.0,0.0,0.0,0.0,0.0,0.0,0.0,0.0,0.0,0.0,0.0,0.0,0.0,0.0,0.0,0.0,0.0,3.4902,3.529,3.56,0.0,0.0,0.0,0.0,0.0,0.0,0.0,0.0,0.0,0.0,5.5013,5.7883,6.0011,6.086,6.1479,6.2273,6.1534,6.0748,6.0271,5.9331,5.7326,0.0,0.0,0.0,0.0,0.0,0.0,0.0,0.0,0.0,0.0,0.0,0.0,0.0,0.0,0.0,0.0,0.0,0.0,0.0,0.0,0.0,0.0,0.0,0.0,0.0,0.0,0.0,0.0,0.0,0.0,0.0,0.0,0.0,0.0,0.0,0.0,0.0,0.0,0.0,0.0,4.6224,4.807,0.0,0.0,0.0,0.0,0.0,0.0,0.0,0.0,0.0,0.0,0.0,0.0,5.613,5.8384,6.6686,7.0596,6.9547,6.9284,6.8039,6.5704,6.3277,6.0163,5.6232,0.0,0.0,0.0,0.0,0.0,0.0,0.0,0.0,0.0,0.0,0.0,0.0,0.0,0.0,0.0,0.0,0.0,0.0,0.0,0.0,0.0,0.0,0.0,0.0,0.0,3.5221,0.0,0.0,0.0,0.0,0.0,0.0,0.0,0.0,0.0,0.0,0.0,5.0687,5.4202,5.736,6.0052,6.2062,6.2623,6.3046,0.0,0.0,0.0,0.0,0.0,0.0,0.0,0.0,0.0,0.0,0.0,0.0,0.0,0.0,5.2103,4.7179,4.5949,4.5933,4.6691,0.0,0.0,0.0,0.0,0.0,0.0,0.0,0.0,0.0,0.0,0.0,0.0,0.0,0.0,0.0,0.0,3.9484,0.0,0.0,0.0,0.0,0.0,0.0,0.0,0.0,4.7658,4.995,5.056,5.243,5.2753,0.0,5.1976,5.045,0.0,0.0,0.0,0.0,0.0,0.0,0.0,0.0,5.7358,5.9535,6.7019,7.0454,6.9368,6.9246,6.828,6.6251,6.3884,6.0472,5.5971,5.2555,5.0183,0.0,0.0,0.0,0.0,0.0,0.0,0.0,0.0,0.0,0.0,0.0,0.0,0.0,0.0,0.0,0.0,0.0,0.0,0.0,0.0,0.0,0.0,0.0,3.8731,0.0,0.0,0.0,0.0,0.0,0.0,0.0,0.0,0.0,4.7122,5.0677,5.4371,5.7337,6.0143,6.2427,6.3845,0.0,0.0,0.0,0.0,0.0,0.0,0.0,5.8493,5.805,5.7858,5.7452,5.6648,5.7291,5.7859,5.7627,0.0,0.0,5.1494,5.0239,5.0213,5.0889,5.1431,5.2141,5.3209,5.443,5.5541,0.0,0.0,0.0,0.0,0.0,0.0,0.0,0.0,4.1844,4.1734,0.0,0.0,0.0,0.0,0.0,0.0,0.0,0.0,0.0,0.0,5.1963,5.4187,5.5918,5.607,5.5983,0.0,5.5993,5.5409,5.4006,4.9917,0.0,0.0,0.0,0.0,0.0,0.0,5.9382,6.1393,6.7603,7.051,6.972,6.9319,6.8519,6.7247,6.4363,6.0979,5.7252,5.6087,5.438,5.1705,4.7787,0.0,0.0,0.0,0.0,0.0,0.0,0.0,0.0,0.0,0.0,0.0,0.0,0.0,0.0,0.0,0.0,0.0,0.0,0.0,0.0,4.1672,0.0,0.0,0.0,0.0,0.0,0.0,0.0,0.0,0.0,0.0,5.1561,5.4904,5.8372,6.0946,0.0,0.0,0.0,0.0,6.5539,6.5598,6.4615,6.3397,6.2105,6.2366,6.183,5.9326,0.0,0.0,5.9888,6.0125,6.0324,5.9693,5.9607,5.9044,5.8262,5.7066,5.6399,5.6404,5.6439,5.6745,5.7369,5.836,5.9371,5.0418,0.0,0.0,0.0,0.0,4.4667,4.5828,4.7642,4.7751,4.7552,4.7223,4.6844,0.0,0.0,0.0,0.0,0.0,0.0,4.9956,5.3315,5.5822,5.7806,5.9285,5.9934,5.9602,5.8446,5.877,5.8456,5.7579,5.644,5.3675,4.9444,0.0,0.0,0.0,0.0,6.0898,6.3205,6.7876,7.0122,6.971,6.9305,6.8007,6.5763,6.3835,6.1785,5.969,5.8004,5.6235,5.4311,5.0317,0.0,0.0,0.0,0.0,0.0,0.0,0.0,0.0,0.0,0.0,0.0,0.0,0.0,0.0,0.0,0.0,0.0,0.0,0.0,4.2821,4.3018,4.28,0.0,0.0,0.0,0.0,0.0,0.0,0.0,0.0,0.0,5.8862,5.9722,6.0976,0.0,0.0,6.5483,6.6562,6.6362,6.6402,6.7353,0.0,0.0,0.0,6.361,6.3242,6.2453,6.3732,6.4742,6.4422,6.4903,6.529,6.5099,6.5016,6.4961,6.4719,6.1346,5.9157,5.9935,6.0622,6.1414,6.2551,6.4206,6.5581,5.5155,5.2099,4.9772,4.887,4.9003,4.9526,5.0592,5.191,5.2004,5.2038,5.1934,5.0856,4.9597,4.8296,4.7911,0.0,0.0,0.0,5.4014,5.7597,5.9396,6.1157,6.2727,6.3051,6.2649,6.1699,6.1312,6.0974,6.0627,6.0666,5.865,5.4777,0.0,0.0,5.6719,6.0448,6.3446,6.562,6.8755,7.0165,6.971,6.902,6.7596,6.544,6.4275,6.3054,6.1688,5.9946,5.8255,5.6603,5.3484,5.094,0.0,0.0,0.0,0.0,0.0,0.0,0.0,0.0,0.0,0.0,0.0,3.8205,0.0,0.0,0.0,0.0,4.3362,4.5428,4.6247,4.6137,0.0,0.0,0.0,0.0,0.0,0.0,0.0,5.5099,5.8333,6.1163,6.3275,6.3883,6.4513,6.5577,6.6443,6.7251,6.7952,0.0,6.7826,6.863,6.7878,6.6915,6.6055,6.5901,6.5922,6.6004,6.6892,6.7742,6.8059,6.8469,6.8869,6.9097,6.9189,6.9273,6.9546,6.6711,6.4414,6.4747,6.5357,6.6264,6.7371,6.87,6.9732,5.9587,5.9,5.6242,5.4699,5.4144,5.471,5.5002,5.5057,5.496,5.5172,5.5481,5.3849,5.3161,5.3184,5.2123,0.0,0.0,5.5739,5.8192,6.1865,6.2672,6.415,6.6099,6.5496,6.5183,6.5039,6.3766,6.3234,6.3365,6.3268,6.2751,6.1831,6.1357,6.1745,6.3056,6.4726,6.6524,6.8375,6.998,7.0406,6.9602,6.8594,6.7348,6.5917,6.5292,6.4356,6.3054,6.1677,6.0146,5.8436,5.6774,5.5008,5.3099,0.0,0.0,0.0,0.0,0.0,0.0,0.0,0.0,0.0,0.0,0.0,0.0,0.0,0.0,0.0,4.9398,0.0,5.0165,5.0223,0.0,0.0,0.0,5.0349,5.2438,5.4349,5.6392,5.8705,0.0,0.0,0.0,0.0,6.8527,6.8604,6.9261,6.9676,6.9551,6.9619,6.9653,6.9812,6.9616,6.9157,6.8513,6.8852,6.9255,6.9304,6.9791,7.0194,7.0682,7.0955,7.1273,7.1786,7.2002,7.2044,7.2339,7.2097,7.1964,6.9982,7.0143,7.0794,7.1474,7.1888,7.2474,6.3335,6.2842,6.2144,6.0377,5.8015,5.7664,5.7835,5.8249,5.7064,5.6483,5.6349,5.5533,5.5531,5.6172,5.6244,5.7601,5.9905,6.0454,6.2146,6.4657,6.4898,6.5682,6.69,6.6962,6.6699,6.619,6.6156,6.5989,6.5736,6.6589,6.7022,6.7116,6.779,6.6776,6.4242,6.6275,6.8028,6.9337,7.0321,7.0202,6.9001,6.869,6.7689,6.5936,6.5249,6.4112,6.2409,6.1111,6.0001,5.9012,5.7339,5.6159,5.5618,5.2408,0.0,0.0,0.0,0.0,0.0,0.0,0.0,0.0,0.0,4.3724,4.4587,0.0,4.8596,0.0,5.0641,5.1887,5.1879,5.1557,0.0,0.0,5.1904,5.3395,5.6452,5.8096,6.0048,6.2854,6.4759,6.673,6.9025,7.0172,7.1128,7.2056,7.095,7.0272,7.0769,7.1345,7.1898,7.2316,7.2383,7.218,7.1434,7.1479,7.14,7.0916,7.1774,7.2463,7.209,7.2497,7.2904,7.3107,7.3141,7.3232,7.3469,7.3946,7.4241,7.3884,7.3413,7.3222,7.397,7.4994,7.5881,6.5912,6.5389,6.5389,6.4098,6.1941,6.108,6.094,6.1235,6.0057,5.9522,5.9454,5.8753,5.875,5.9208,6.0032,6.1363,6.3064,6.398,6.5372,6.707,6.7333,6.7919,6.8752,6.8735,6.8552,6.8298,6.8095,6.7918,6.78,6.8541,6.9024,6.9293,7.0474,6.9913,6.7842,6.9001,7.0169,7.1056,7.074,7.0056,6.9016,6.8354,6.7502,6.6426,6.5198,6.4014,6.2807,6.1397,6.0367,5.9703,5.8629,5.7703,5.6874,5.4989,5.2945,0.0,0.0,0.0,0.0,0.0,0.0,0.0,0.0,0.0,0.0,0.0,5.1546,0.0,0.0,0.0,5.5025,5.482,5.4861,5.5304,5.5722,5.7303,6.0616,6.1541,6.3237,6.6608,6.7799,6.9131,7.1195,7.2065,7.2643,7.3274,7.2535,7.2032,7.2236,7.2642,7.3048,7.3421,7.3488,7.3376,7.2937,7.2892,7.2778,7.2439,7.2981,7.3421,7.3409,7.3713,7.4086,7.4402,7.4774,7.4958,7.4942,7.5476,7.6034,7.6175,7.588,7.5716,7.6172,7.7215,7.8007,6.7951,6.7428,6.7397,6.6876,6.5923,6.4777,6.3995,6.342,6.2765,6.2702,6.3051,6.2502,6.2249,6.2281,6.3469,6.4493,6.5344,6.6654,6.7905,6.8995,6.9412,6.9979,7.0692,7.0295,7.0251,7.0478,6.9641,6.9288,6.9448,6.9788,7.0002,7.0174,7.1324,7.1991,7.2122,7.2082,7.2271,7.2664,7.124,7.0138,6.9444,6.8098,6.7256,6.6882,6.516,6.3972,6.3472,6.1915,6.0836,6.0391,5.9984,5.9179,5.7764,5.6945,5.537,0.0,5.2058,0.0,0.0,0.0,0.0,0.0,0.0,0.0,0.0,5.3153,5.4825,5.6841,5.7604,5.8135,5.8621,5.889,5.9246,5.971,6.0106,6.1509,6.4339,6.4644,6.6032,6.9758,7.0479,7.1225,7.2719,7.3322,7.3482,7.3547,7.3884,7.3991,7.3753,7.3722,7.3802,7.3781,7.3759,7.3928,7.3872,7.3835,7.3811,7.3803,7.386,7.4063,7.4784,7.492,7.5122,7.5845,7.6487,7.6797,7.6435,7.6867,7.7324,7.7514,7.7585,7.7725,7.7982,7.8554,7.9219,7.0259,7.0136,7.0151,7.0027,6.9733,6.8435,6.5937,6.2742,6.2069,6.2437,6.355,6.474,6.5363,6.5623,6.6461,6.7198,6.7817,6.8422,6.9215,7.008,6.9702,6.995,7.0646,7.0382,7.0401,7.0656,7.0442,7.0295,7.0142,7.1291,7.1843,7.1805,7.3058,7.3791,0.0,0.0,0.0,0.0,7.1776,7.1099,7.0124,6.9034,6.7917,6.6689,6.501,0.0,6.2961,6.1539,6.0757,6.068,5.9814,0.0,0.0,0.0,0.0,0.0,0.0,0.0,0.0,0.0,0.0,0.0,5.5656,5.5236,5.4667,5.6319,5.8124,5.9713,5.99,6.0229,6.104,6.1984,6.2431,6.2307,6.3367,6.4859,6.6607,6.6991,6.8203,7.0904,7.1373,7.2112,7.3875,7.4126,7.4288,7.4692,7.4858,7.4807,7.4701,7.4788,7.502,7.5222,7.5156,7.5236,7.527,7.5212,7.5155,7.527,7.527,7.5574,7.6251,7.6454,7.669,7.7367,7.7696,7.7764,7.7609,7.7757,7.7883,7.7919,7.8394,7.8754,7.8634,7.9173,7.9638,7.1459,0.0,7.1044,7.0781,0.0,6.9526,6.7576,6.5103,6.4461,6.4763,6.5731,6.6734,6.722,6.7337,6.7651,6.7896,6.806,6.8206,6.8734,6.9518,6.9857,7.0516,7.1454,7.1813,7.2028,7.2084,7.2148,7.1915,7.1491,7.2384,7.2997,7.3288,7.3968,7.4425,7.4679,7.4032,7.3039,7.1656,7.1671,7.1134,7.0067,6.9063,6.7988,6.6807,0.0,0.0,0.0,0.0,0.0,0.0,0.0,0.0,0.0,0.0,0.0,5.8229,5.7284,5.697,5.7506,5.7798,5.8449,5.9723,5.9953,5.938,5.7924,5.9529,6.1233,6.2614,6.2678,6.3096,6.4163,6.4806,6.5199,6.5385,6.6072,6.7167,6.8656,6.928,7.0372,7.228,7.2926,7.3603,7.4794,7.4851,7.4796,7.4938,7.4871,7.4955,7.5259,7.5238,7.5216,7.547,7.5512,7.5538,7.5664,7.5676,7.5879,7.6183,7.6294,7.6599,7.7312,7.7447,7.7582,7.7954,7.8293,7.845,7.809,7.828,7.8517,7.8585,7.8855,7.9358,7.9778,8.0118,8.0194,7.2491,7.2475,7.1814,7.1397,7.1066,7.0432,6.9511,6.8395,0.0,0.0,0.0,6.8625,6.883,6.8754,6.8771,6.864,6.8418,6.8271,6.8661,6.9494,7.0394,7.1409,7.2496,7.3271,7.3543,7.3485,7.3562,7.3323,7.278,7.3111,7.3694,7.434,7.4299,7.4354,7.4578,7.3819,7.2782,7.159,7.1513,7.1073,7.0091,6.9038,6.8019,6.7044,6.5543,6.4045,6.264,6.1813,6.1421,6.1468,6.1117,6.1105,6.1524,6.0971,6.0829,6.1181,6.0663,6.0743,6.167,6.1678,6.211,6.3234,6.3684,6.3104,6.1215,6.2455,6.3912,6.5247,6.5403,6.5895,6.7083,6.7343,6.7653,6.8246,6.8351,6.9016,7.055,7.1095,7.1909,7.3605,7.42,7.4678,7.5145,7.5154,7.5115,7.487,7.4826,7.5,7.5591,7.566,7.5594,7.5793,7.5795,7.5645,7.5855,7.5946,7.6171,7.6724,7.6958,7.7352,7.7976,7.8191,7.8225,7.8496,7.8923,7.8991,7.8585,7.8923,7.9317,7.9464,7.9486,7.9892,8.108,8.1199,8.1027,7.4313,7.4568,7.4157,7.4145,7.4278,7.3631,7.2583,7.1288,6.9662,6.9005,6.9168,7.0714,7.1213,7.0992,7.1468,7.1683,7.1625,7.1357,7.1867,0.0,7.2306,7.255,7.3469,7.3412,7.337,7.3345,7.337,7.3295,7.3224,7.3337,7.374,7.4281,7.3891,7.3525,7.3277,7.3154,7.2707,7.1936,7.189,7.1672,7.1167,6.9912,6.8568,6.7216,6.6398,6.5489,6.455,6.3238,6.2667,6.2884,6.2084,6.1863,6.231,6.2055,6.2058,6.2482,6.2423,6.2453,6.2649,6.3737,6.4776,6.5566,6.6455,6.6023,6.3933,6.4523,6.5646,6.7052,6.7368,6.7825,6.8707,6.9327,6.9744,6.9881,7.0044,7.0664,7.1943,7.1819,7.2305,7.3932,7.4197,7.4493,7.4902,7.4858,7.4972,7.5339,7.5318,7.5468,7.6117,7.6543,7.6894,7.7043,7.6659,7.6445,7.6562,7.6724,7.678,7.686,7.749,7.8087,7.8809,7.8957,7.9114,7.9735,7.987,7.9904,7.9815,7.9951,8.0242,8.0695,8.083,8.1224,8.2069,8.2176,8.2181,7.4812,7.5186,7.4702,7.4909,7.5476,7.483,7.4184,7.3538,7.2383,7.13,7.0535,7.1302,7.1536,7.1399,7.1228,7.1058,7.0885,7.032,7.0537,7.1457,7.1827,7.2524,7.3511,7.3949,7.4051,7.3892,7.4082,7.3963,7.3666,7.3842,7.4408,7.5166,7.464,7.4064,7.3553,7.3183,7.2845,7.2537,7.2183,7.1642,7.0875,7.0255,6.9255,6.7812,6.7435,6.6662,6.5312,6.4659,6.4203,6.3922,6.3392,6.35,6.4393,6.3964,6.4089,6.4944,6.4643,6.4653,6.5182,6.6197,6.6944,6.7301,6.8004,6.8216,6.769,6.7362,6.7705,6.8881,6.9103,6.962,7.077,7.121,7.156,7.1966,7.2067,7.235,7.2914,7.3219,7.3477,7.4117,7.4539,7.4704,7.451,7.4768,7.4887,7.5094,7.5576,7.6367,7.6822,7.7435,7.754,7.6818,7.6113,7.6062,7.6741,7.6903,7.7229,7.793,7.8363,7.8904,7.9528,7.9701,7.9837,8.0107,8.0209,8.0209,8.0209,8.0547,8.0932,8.1169,8.1663,8.2124,8.2767,8.3274,8.3443,7.5087,7.5648,7.5075,7.5348,7.6137,7.5491,7.523,7.5169,7.4491,7.3462,7.2288,7.2007,7.1836,7.1682,7.1193,7.0785,7.0411,6.9805,6.9942,7.0694,7.1724,7.2744,7.3705,7.4572,7.4746,7.4524,7.4906,7.4836,7.4338,7.4606,7.4994,7.5465,7.5161,7.4584,7.3783,7.3245,7.2999,7.2968,7.2475,7.1766,7.0802,7.0749,7.0031,6.868,6.8732,6.8012,6.6441,6.6011,6.5556,6.5019,6.4582,6.4868,6.5877,6.5546,6.5757,6.6764,6.6422,6.6612,6.7702,6.8371,6.8839,6.9116,6.9568,7.0168,7.0734,7.007,6.9861,7.0603,7.085,7.1323,7.2269,7.2597,7.2879,7.3421,7.3488,7.3465,7.3689,7.4126,7.4387,7.4258,7.4774,7.4889,7.4458,7.466,7.4956,7.5055,7.6187,7.7299,7.7649,7.8067,7.7628,7.6842,7.6052,7.6322,7.7177,7.7432,7.7939,7.9,7.925,7.9554,8.0002,8.0175,8.0175,8.0209,8.0209,8.0209,8.0242,8.0593,8.1101,8.1473,8.1989,8.2644,8.3578,8.412,8.439,7.5752,7.6282,7.5894,7.6205,7.6782,7.6199,7.5907,7.583,7.5199,7.4846,7.4478,7.3711,7.3092,7.2922,7.3045,7.2875,7.2583,7.2614,7.2828,7.3345,7.3638,7.4063,7.4667,7.4851,7.4895,7.491,7.5498,7.5586,7.5267,7.565,7.5309,7.4372,7.4723,7.4368,7.3245,7.306,7.2999,7.2999,7.2937,7.2552,7.192,7.1784,7.1099,6.9724,7.0245,6.9876,6.8432,6.7186,6.6491,6.6346,6.5447,6.5151,6.5724,6.5938,6.64,6.7184,6.7177,6.7788,6.9348,6.9838,7.0472,7.1519,7.1797,7.2005,7.2199,7.2111,7.2131,7.2426,7.2662,7.2802,7.3026,7.3248,7.3477,7.3623,7.36,7.3678,7.4014,7.3956,7.3931,7.4115,7.4523,7.4704,7.4427,7.4523,7.4911,7.5693,7.687,7.7901,7.8145,7.7934,7.7867,7.7903,7.7882,7.8077,7.8617,7.8877,7.8898,7.9147,7.9676,8.0014,8.0175,8.0209,8.0209,8.0209,8.0209,8.0209,8.0276,8.0344,8.0885,8.2035,8.253,8.2902,8.4086,8.4546,8.4512,7.592,7.6188,7.6255,7.6523,7.6936,7.6691,7.6599,7.6538,7.5891,7.5583,7.5431,7.4326,7.3724,7.3599,7.3323,7.3123,7.2999,7.2999,7.3231,7.3662,7.383,7.4147,7.4584,7.4823,7.4997,7.5197,7.5512,7.5675,7.5822,7.6119,7.5693,7.4724,7.4892,7.4522,7.3614,7.3214,7.2999,7.2999,7.2999,7.2938,7.2876,7.262,7.2035,7.1235,7.166,7.1326,7.0076,6.9367,6.8717,6.7953,6.7673,6.7791,6.8177,6.861,6.9093,6.9526,6.9575,6.9854,7.0568,7.0871,7.1172,7.1515,7.218,7.2647,7.2862,7.3421,7.3803,7.3763,7.3393,7.3307,7.3886,7.4083,7.4252,7.4506,7.4571,7.4505,7.4363,7.4283,7.4177,7.394,7.4013,7.42,7.4268,7.4766,7.5562,7.6474,7.7416,7.7905,7.8182,7.8125,7.8338,7.8764,7.8919,7.8942,7.9106,7.9105,7.9295,7.9667,7.9972,8.0209,8.0209,8.0209,8.0209,8.0209,8.0242,8.0445,8.083,8.1291,8.1866,8.28,8.3511,8.3937,8.4512,8.458,8.458,7.6463,7.6585,7.7004,7.7246,7.726,7.7276,7.7167,7.6968,7.6476,7.6261,7.6168,7.5046,7.4553,7.443,7.3676,7.3276,7.3276,7.3276,7.3509,7.3849,7.3923,7.4242,7.4807,7.4957,7.5164,7.5425,7.5726,7.6057,7.6368,7.6531,7.618,7.5369,7.5292,7.4953,7.4276,7.3753,7.3461,7.3307,7.3276,7.337,7.3432,7.3286,7.289,7.2414,7.2837,7.2464,7.1151,7.0912,7.0276,6.9187,6.9294,6.9558,6.9928,7.0364,7.0725,7.1044,7.1158,7.1294,7.1458,7.166,7.1822,7.1971,7.2773,7.3396,7.3797,7.4621,7.5174,7.5142,7.4372,7.416,7.4462,7.4839,7.5094,7.524,7.5289,7.5132,7.4489,7.4281,7.3953,7.3577,7.3816,7.4091,7.4547,7.5432,7.6378,7.6871,7.7418,7.7875,7.8147,7.839,7.8637,7.9179,7.9237,7.9322,7.9355,7.9468,7.9701,7.9938,8.0209,8.0209,8.0209,8.0209,8.0209,8.0209,8.031,8.0615,8.1067,8.1799,8.2644,8.3355,8.4018,8.4512,8.458,8.458,8.458,7.7508,7.7891,7.8634,7.8521,7.7937,7.7906,7.7584,7.7061,7.6938,7.6938,7.6814,7.6137,7.5891,7.5784,7.4553,7.3968,7.3968,7.3937,7.4283,7.4764,7.4202,7.4645,7.5848,7.5561,7.5379,7.5554,7.6338,7.6959,7.729,7.7089,7.6615,7.5984,7.5938,7.56,7.5015,7.483,7.4553,7.4015,7.3984,7.3833,7.3633,7.38,7.3729,7.3448,7.3678,7.3176,7.1912,7.1182,7.0644,7.0154,6.9672,6.9526,6.9985,7.009,7.041,7.0894,7.1097,7.1511,7.2022,7.2191,7.2589,7.3496,7.4193,7.4823,7.5047,7.5717,7.6197,7.6494,7.5805,7.5281,7.4772,7.5233,7.5478,7.5072,7.5314,7.5017,7.425,7.3791,7.3279,7.3272,7.3984,7.4754,7.5474,7.6488,7.677,7.6938,7.7467,7.812,7.8336,7.8457,7.8631,7.8856,7.9028,7.9204,7.9905,7.9909,7.9989,8.0175,8.0209,8.0209,8.0209,8.0209,8.0209,8.0378,8.0763,8.1101,8.1372,8.1934,8.278,8.3524,8.4153,8.4525,8.458,8.458,8.458,7.775,7.8335,7.8875,7.8924,7.8661,7.8183,7.7844,7.7615,7.7184,7.6983,7.6876,7.6291,7.623,7.6568,7.5676,7.5046,7.4645,7.4645,7.4868,7.5215,7.461,7.492,7.5837,7.5431,7.5496,7.6119,7.649,7.684,7.715,7.7048,7.6907,7.6599,7.6199,7.5877,7.5583,7.5199,7.4861,7.4676,7.4645,7.4791,7.5045,7.5216,7.518,7.505,7.4711,7.4107,7.3176,7.2906,7.2575,7.2221,7.2052,7.2023,7.1955,7.1719,7.1891,7.2447,7.226,7.215,7.2404,7.3004,7.3508,7.3901,7.476,7.5378,7.5713,7.632,7.6677,7.6455,7.6255,7.5706,7.5037,7.5143,7.5162,7.4788,7.466,7.454,7.4143,7.3881,7.3819,7.4053,7.476,7.5427,7.5775,7.6442,7.693,7.7031,7.7465,7.7897,7.8201,7.8376,7.8591,7.8817,7.8922,7.908,7.957,7.9819,7.998,8.0145,8.0209,8.0242,8.0242,8.039,8.0424,8.0932,8.1338,8.1879,8.2285,8.305,8.3714,8.395,8.4559,8.4559,8.458,8.458,8.458,7.8647,7.9349,7.9622,7.9478,7.9047,7.8569,7.8076,7.766,7.7198,7.6983,7.6907,7.6507,7.6599,7.6876,7.6507,7.6076,7.5661,7.5446,7.5515,7.5724,7.512,7.5355,7.6104,7.5761,7.5837,7.6438,7.6603,7.6796,7.6985,7.6983,7.6983,7.6952,7.6507,7.6322,7.623,7.586,7.5569,7.5368,7.5307,7.555,7.5948,7.5995,7.6118,7.6182,7.5639,7.4802,7.3934,7.3871,7.3773,7.3497,7.3579,7.3649,7.3554,7.332,7.3383,7.3771,7.3461,7.3156,7.3248,7.3785,7.4279,7.4526,7.5321,7.5968,7.638,7.7073,7.7265,7.7067,7.6742,7.6319,7.5804,7.5438,7.4972,7.4362,7.4293,7.4281,7.4055,7.4122,7.4429,7.4863,7.5302,7.5724,7.6066,7.659,7.6971,7.7172,7.7486,7.7856,7.8079,7.8323,7.8537,7.877,7.9016,7.9282,7.9666,7.9995,8.0301,8.0448,8.0636,8.0555,8.0716,8.0763,8.0978,8.1507,8.2082,8.2691,8.3389,8.4187,8.4492,8.458,8.458,8.458,8.458,8.458,8.458,8.0278,8.0825,8.1082,8.0203,7.917,7.8955,7.8247,7.7245,7.7061,7.6983,7.6983,7.6938,7.6921,7.6983,7.6907,7.6921,7.6722,7.623,7.6145,7.6373,7.5755,7.5975,7.6835,7.6472,7.6375,7.6575,7.684,7.6985,7.6999,7.6983,7.6983,7.6999,7.6952,7.6876,7.6968,7.6814,7.6568,7.6137,7.6014,7.6028,7.601,7.6151,7.6447,7.686,7.6367,7.5498,7.4124,7.4027,7.4002,7.3834,7.3866,7.4018,7.4586,7.4484,7.4548,7.4562,7.4548,7.4516,7.453,7.4576,7.4914,7.5431,7.6168,7.6804,7.7345,7.796,7.8291,7.8153,7.7662,7.7219,7.7007,7.6268,7.5194,7.3829,7.4424,7.4701,7.4377,7.4434,7.4918,7.5538,7.5811,7.6038,7.6613,7.6934,7.7102,7.7255,7.7601,7.7957,7.8006,7.8255,7.8444,7.8682,7.9081,7.9547,7.9908,8.0281,8.0619,8.0886,8.1075,8.119,8.1613,8.1811,8.19,8.234,8.2949,8.3558,8.3862,8.4525,8.4525,8.458,8.458,8.458,8.458,8.458,8.458,8.0182,8.0058,8.0299,7.9909,7.9078,7.8569,7.8045,7.7645,7.7215,7.6983,7.6983,7.6983,7.6983,7.6983,7.6983,7.6983,7.6983,7.6784,7.6757,7.67,7.6161,7.6241,7.6769,7.641,7.6392,7.6777,7.6942,7.6983,7.6983,7.6983,7.6983,7.6983,7.6983,7.6983,7.6983,7.6999,7.6845,7.6722,7.6691,7.6813,7.7046,7.724,7.7402,7.7354,7.7334,7.692,7.6081,7.5326,7.5031,7.5117,7.5364,7.5676,7.5857,7.5145,7.4886,7.5215,7.484,7.4581,7.4646,7.508,7.562,7.6229,7.6902,7.7535,7.8059,7.8365,7.8484,7.8391,7.7695,7.7046,7.6733,7.5952,7.5242,7.4798,7.4964,7.5169,7.5213,7.5673,7.6149,7.6394,7.6459,7.6589,7.6718,7.6924,7.7036,7.7172,7.7454,7.7634,7.7807,7.8238,7.8479,7.8888,7.9394,7.9941,8.0416,8.0907,8.127,8.1522,8.1711,8.2046,8.2472,8.2767,8.2868,8.3139,8.3781,8.4153,8.4492,8.458,8.458,8.458,8.458,8.458,8.458,8.458,8.458,8.0335,8.0106,8.0114,7.9707,7.9047,7.8322,7.7861,7.7615,7.7184,7.6983,7.6983,7.6983,7.6983,7.6983,7.6983,7.6983,7.6983,7.6983,7.6983,7.6952,7.6599,7.663,7.6938,7.6599,7.6538,7.6938,7.6983,7.6983,7.6983,7.6983,7.6983,7.6983,7.6983,7.6983,7.6983,7.6983,7.6983,7.6983,7.6999,7.7245,7.7667,7.7942,7.8059,7.8062,7.8028,7.7866,7.7497,7.6751,7.6288,7.6266,7.6399,7.6599,7.6704,7.5941,7.5617,7.5876,7.5747,7.5423,7.5455,7.5876,7.6354,7.693,7.7348,7.7823,7.835,7.8484,7.8457,7.8237,7.7805,7.7259,7.6807,7.6327,7.5919,7.59,7.5568,7.5584,7.602,7.6524,7.6751,7.6751,7.6797,7.6829,7.6829,7.691,7.7008,7.7204,7.7636,7.7966,7.8294,7.8752,7.923,7.9708,8.0289,8.0755,8.1058,8.1492,8.1908,8.2188,8.2418,8.285,8.3347,8.3531,8.3687,8.3836,8.4275,8.4356,8.458,8.458,8.458,8.458,8.4681,8.458,8.458,8.458,8.458,8.0723,8.0925,8.0371,7.9663,7.8955,7.8292,7.7645,7.7075,7.703,7.6983,7.6983,7.6983,7.6983,7.6983,7.6983,7.6983,7.6983,7.6983,7.6983,7.7014,7.6999,7.7091,7.6968,7.6907,7.6938,7.6983,7.6983,7.6983,7.6983,7.6983,7.6983,7.6983,7.6983,7.6983,7.6983,7.6983,7.6983,7.6983,7.7032,7.7391,7.7958,7.8118,7.8374,7.888,7.8453,7.826,7.8425,7.8104,7.7642,7.7122,7.7001,7.6917,7.688,7.6815,7.6686,7.6686,7.6783,7.6668,7.6732,7.6635,7.692,7.7429,7.7572,7.7856,7.8376,7.8444,7.835,7.8174,7.7973,7.7695,7.7254,7.6995,7.6883,7.6724,7.6173,7.6117,7.6668,7.6783,7.6876,7.6876,7.6876,7.6876,7.6923,7.712,7.7236,7.7474,7.828,7.883,7.9015,7.9383,8.0341,8.0774,8.0912,8.1464,8.1748,8.1998,8.2403,8.2686,8.2953,8.3403,8.3871,8.4033,8.4215,8.4411,8.4546,8.4614,8.4695,8.4728,8.4817,8.4952,8.4884,8.4681,8.4695,8.4796,8.4796,8.0733,8.034,8.0186,7.94,7.8353,7.806,7.7615,7.7044,7.7014,7.6983,7.6983,7.6983,7.6983,7.6983,7.6983,7.6983,7.6983,7.6983,7.6983,7.7091,7.7553,7.7399,7.7091,7.703,7.703,7.7044,7.7061,7.6983,7.6983,7.703,7.7014,7.6983,7.703,7.7014,7.6983,7.703,7.6983,7.7032,7.7277,7.7457,7.7716,7.823,7.8517,7.8675,7.8785,7.8972,7.9264,7.9175,7.8871,7.8382,7.7787,7.7514,7.7481,7.7107,7.6894,7.6927,7.6829,7.6829,7.6829,7.6829,7.7064,7.7527,7.7648,7.7889,7.843,7.8309,7.8188,7.8025,7.7738,7.7394,7.7199,7.7036,7.69,7.6811,7.6621,7.6589,7.6783,7.6829,7.6969,7.7356,7.7095,7.7095,7.7392,7.7569,7.7666,7.7867,7.8606,7.9322,7.9407,7.9981,8.0928,8.0848,8.108,8.1853,8.24,8.2561,8.2862,8.3146,8.3409,8.3694,8.4069,8.4304,8.4425,8.458,8.4762,8.4864,8.4965,8.5033,8.5189,8.5466,8.5459,8.5439,8.5236,8.5249,8.5202,8.088,8.0463,7.9909,7.9386,7.8784,7.7953,7.7522,7.7368,7.7122,7.6983,7.6983,7.6983,7.6983,7.6983,7.6983,7.6983,7.6983,7.6983,7.6983,7.7061,7.7368,7.7645,7.7738,7.7645,7.7553,7.7769,7.7276,7.7368,7.7676,7.7338,7.7307,7.7676,7.7276,7.7137,7.7413,7.7122,7.6983,7.7048,7.7312,7.7555,7.7749,7.8294,7.8643,7.877,7.9022,7.9288,7.9736,8.0024,7.978,7.9053,7.8499,7.8273,7.8193,7.7578,7.7366,7.7593,7.7172,7.6912,7.7172,7.7204,7.7254,7.7469,7.7659,7.7913,7.8064,7.7984,7.7889,7.7684,7.738,7.7302,7.7394,7.7289,7.7251,7.7236,7.7222,7.7204,7.7222,7.7269,7.739,7.7577,7.7516,7.733,7.7796,7.7926,7.8167,7.8606,7.9545,7.9846,7.9988,8.0725,8.1274,8.1316,8.1523,8.2264,8.2632,8.2774,8.3037,8.334,8.384,8.4129,8.4364,8.4561,8.4526,8.4661,8.4898,8.5134,8.527,8.5561,8.6041,8.6243,8.6271,8.6217,8.6061,8.579,8.5757,8.1082,8.1021,7.9834,7.957,7.9632,7.8045,7.7537,7.766,7.7245,7.7061,7.7106,7.7061,7.7091,7.7091,7.7091,7.6983,7.6983,7.6983,7.7075,7.7137,7.7319,7.773,7.8789,7.7981,7.8119,7.8502,7.7643,7.7903,7.8286,7.7702,7.7953,7.8384,7.7707,7.7475,7.766,7.7307,7.7014,7.7048,7.7312,7.7588,7.7878,7.8326,7.8675,7.8912,7.9241,7.9568,8.0122,8.0507,8.0413,7.9212,7.9064,7.8985,7.8935,7.8323,7.8193,7.8467,7.7834,7.7431,7.7787,7.7916,7.7851,7.7758,7.8154,7.8252,7.8139,7.8101,7.7911,7.76,7.7316,7.7459,7.7692,7.7819,7.7916,7.7916,7.7934,7.7949,7.8014,7.7981,7.7916,7.7902,7.7916,7.7902,7.802,7.8303,7.8763,7.9343,8.0284,8.0794,8.1002,8.1567,8.1981,8.2132,8.2377,8.2737,8.2878,8.2926,8.3206,8.3518,8.414,8.4526,8.4709,8.4797,8.4668,8.4695,8.483,8.5168,8.5628,8.6074,8.6703,8.7007,8.7015,8.7028,8.6974,8.6602,8.642,8.1082,8.1065,8.0788,8.0142,7.9324,7.8832,7.8076,7.7276,7.7122,7.7338,7.7584,7.7245,7.7307,7.769,7.7215,7.6983,7.7014,7.7044,7.7245,7.7719,7.7486,7.8165,7.8859,7.8063,7.7879,7.8361,7.8113,7.8141,7.8467,7.8745,7.8753,7.8924,7.8384,7.7875,7.7937,7.7492,7.6983,7.7048,7.7343,7.7507,7.7733,7.8278,7.8643,7.8864,7.9475,8.003,8.0379,8.0786,8.0834,8.0492,8.0054,7.9745,7.9615,7.9064,7.8823,7.887,7.8708,7.8435,7.8629,7.8676,7.8726,7.871,7.8865,7.9137,7.9327,7.8994,7.862,7.8167,7.7834,7.7775,7.7898,7.837,7.8596,7.8661,7.8676,7.8902,7.9259,7.9,7.8694,7.8661,7.8661,7.8661,7.8723,7.9404,7.987,8.0268,8.0894,8.1684,8.2062,8.235,8.2482,8.2552,8.2684,8.2911,8.3066,8.3165,8.3485,8.3853,8.4486,8.4959,8.5142,8.5243,8.5189,8.4931,8.4661,8.5222,8.6203,8.6623,8.7251,8.7522,8.7759,8.7773,8.7685,8.7347,8.711,8.0836,8.1052,8.0449,7.994,7.9509,7.8876,7.8353,7.7953,7.7567,7.766,7.7875,7.7598,7.7522,7.7475,7.7167,7.6983,7.7075,7.7352,7.7761,7.8116,7.8084,7.8736,7.944,7.8689,7.826,7.9137,7.88,7.8926,7.9445,7.9359,7.9403,7.9895,7.903,7.8784,7.8753,7.7984,7.7553,7.7465,7.745,7.7474,7.7604,7.8214,7.8801,7.9116,7.9814,8.0349,8.05,8.0816,8.0966,8.0898,8.0654,8.0442,8.0345,7.9842,7.96,7.9795,7.9162,7.9162,7.9291,7.9403,7.9317,7.9152,7.9394,7.9433,7.9436,7.9206,7.8986,7.8665,7.842,7.8305,7.837,7.9,7.9356,7.9421,7.9403,7.9745,8.0151,7.9827,7.9421,7.9421,7.9421,7.9421,7.9685,8.0152,8.0605,8.0855,8.1416,8.2132,8.225,8.2491,8.2614,8.2718,8.2817,8.2968,8.3179,8.3443,8.3849,8.4283,8.4864,8.5263,8.554,8.5682,8.5811,8.5642,8.5574,8.6332,8.7177,8.7516,8.7753,8.8226,8.8463,8.8511,8.8443,8.824,8.7955,8.0603,8.1021,7.9864,7.9694,7.9861,7.8907,7.8661,7.8893,7.8322,7.8029,7.8076,7.7998,7.7492,7.7245,7.7061,7.703,7.7151,7.7544,7.7976,7.8128,7.822,7.8901,7.9515,7.9187,7.9151,8.03,7.9646,7.9889,8.0268,8.0077,8.0111,8.0696,7.9864,7.9478,7.9632,7.8876,7.8169,7.8157,7.78,7.7623,7.766,7.8243,7.8786,7.963,8.0013,8.0455,8.0621,8.0861,8.0995,8.0995,8.0995,8.0995,8.0848,8.0572,8.0345,8.0898,7.9924,7.973,8.0036,8.0101,7.9907,7.9277,7.9745,7.9842,7.9468,7.9432,7.9335,7.9191,7.9064,7.9064,7.9111,7.9712,8.0068,8.0133,8.0148,8.041,8.0719,8.0475,8.0183,7.9945,8.0024,8.0071,8.0127,8.0371,8.0937,8.145,8.2028,8.2438,8.2524,8.2609,8.2746,8.2784,8.285,8.315,8.3388,8.408,8.4431,8.4952,8.5459,8.5939,8.6311,8.6846,8.7076,8.6792,8.6941,8.74,8.7536,8.755,8.7955,8.8748,8.8849,8.8545,8.8714,8.9066,8.8748,8.1004,8.1082,8.0867,8.0542,8.0094,7.98,7.9478,7.9016,7.8384,7.8384,7.8692,7.7738,7.7506,7.7537,7.7215,7.703,7.7149,7.7581,7.7778,7.7931,7.811,7.8733,7.9281,7.9502,7.9806,8.0199,8.0103,8.0281,8.0639,8.0708,8.0727,8.088,8.034,8.0094,7.994,7.9355,7.8924,7.8832,7.833,7.7993,7.8066,7.8315,7.8912,7.9862,8.0198,8.047,8.0816,8.0951,8.0995,8.0995,8.0995,8.0995,8.0963,8.0848,8.0834,8.0866,8.0687,8.0492,8.0687,8.0751,8.0736,8.0672,8.0687,8.0751,8.0589,8.0542,8.0216,7.9939,7.9809,7.9792,7.9818,8.0375,8.0719,8.0816,8.0784,8.0801,8.0931,8.0834,8.0562,8.0262,8.0436,8.0687,8.0693,8.082,8.1344,8.1785,8.2209,8.2571,8.2728,8.2784,8.2822,8.285,8.2883,8.3248,8.3623,8.4523,8.5174,8.579,8.6379,8.7075,8.757,8.8294,8.8443,8.7854,8.7373,8.7332,8.7413,8.7562,8.7868,8.8423,8.8457,8.8409,8.8781,8.9134,8.9134,8.0788,8.1052,8.0727,8.0402,8.0155,8.0124,7.994,7.9523,7.8893,7.877,7.8709,7.8015,7.7444,7.7413,7.7198,7.7167,7.7529,7.7876,7.8183,7.8477,7.8829,7.922,7.9646,7.9921,8.0326,8.0635,8.0685,8.0671,8.081,8.0979,8.1065,8.1052,8.0727,8.0634,8.0463,7.9971,7.9663,7.9478,7.8986,7.8585,7.861,7.8863,7.9511,7.9909,8.0396,8.0728,8.0891,8.0995,8.0995,8.0995,8.0995,8.0995,8.0995,8.0995,8.0995,8.0995,8.0995,8.0995,8.0995,8.0995,8.0963,8.0963,8.0995,8.0995,8.0995,8.0898,8.0801,8.0622,8.0507,8.0522,8.0537,8.0831,8.0978,8.0995,8.0995,8.0995,8.0995,8.0995,8.0774,8.0491,8.0709,8.0896,8.1082,8.1334,8.1784,8.2152,8.2484,8.276,8.2987,8.3115,8.3215,8.329,8.3441,8.396,8.4434,8.5227,8.5904,8.652,8.7123,8.7854,8.826,8.8714,8.8781,8.8477,8.8049,8.755,8.7671,8.7913,8.8,8.8031,8.8085,8.8274,8.8795,8.9134,8.9134,8.0586,8.1034,8.0542,8.0309,8.0309,8.0309,8.02,8.0001,7.9523,7.9092,7.8801,7.8261,7.766,7.7368,7.7461,7.7752,7.8242,7.8498,7.8844,7.9319,7.965,8.0063,8.0392,8.0632,8.0832,8.1286,8.1325,8.1219,8.1061,8.1096,8.1065,8.1082,8.1082,8.1082,8.0911,8.0542,8.0357,8.0196,7.9734,7.9428,7.9526,7.9769,8.0126,8.0254,8.0702,8.0891,8.0981,8.0995,8.0995,8.0995,8.0995,8.0995,8.0995,8.0995,8.0995,8.0995,8.0995,8.0995,8.0995,8.0995,8.0995,8.0995,8.0995,8.0995,8.0995,8.0995,8.0963,8.0995,8.0963,8.0931,8.0881,8.0963,8.0995,8.0995,8.0995,8.0995,8.0995,8.0995,8.0995,8.0901,8.0995,8.1152,8.1339,8.1511,8.1882,8.2659,8.2978,8.3454,8.3687,8.373,8.3835,8.3943,8.4182,8.4815,8.5381,8.6052,8.6662,8.7122,8.7732,8.8409,8.8578,8.8748,8.8748,8.8753,8.8455,8.8049,8.8131,8.7966,8.7683,8.76,8.7779,8.8186,8.8815,8.91,8.9134,8.1052,8.1082,8.1004,8.099,8.0929,8.0911,8.0603,8.0094,7.9861,7.9246,7.8306,7.8045,7.7875,7.7937,7.8524,7.8832,7.8937,7.8861,7.915,7.9676,7.9838,8.0129,8.0545,8.0892,8.1344,8.1804,8.1945,8.1637,8.136,8.1206,8.1144,8.1175,8.1127,8.1082,8.1082,8.0911,8.1145,8.123,8.0741,8.0437,8.0391,8.0298,8.0554,8.0798,8.0906,8.095,8.1225,8.1222,8.1093,8.1093,8.1028,8.0995,8.0995,8.0995,8.0995,8.0995,8.0995,8.0995,8.0995,8.0995,8.0995,8.0995,8.0995,8.0995,8.0995,8.0995,8.0995,8.0995,8.0995,8.0995,8.0995,8.0995,8.0995,8.0995,8.0995,8.0995,8.0995,8.1028,8.0995,8.114,8.1172,8.1409,8.1628,8.1751,8.1966,8.2775,8.3523,8.3982,8.435,8.4388,8.4575,8.4698,8.4969,8.5554,8.5883,8.6602,8.7082,8.7617,8.8091,8.8646,8.868,8.868,8.8883,8.8824,8.8543,8.8214,8.7997,8.766,8.724,8.729,8.7638,8.8216,8.8883,8.9018,8.903,8.1082,8.1082,8.1082,8.088,8.0525,8.0525,8.0155,7.954,7.9092,7.8815,7.8446,7.7707,7.7645,7.8121,7.877,7.9293,7.9462,7.9167,7.952,8.0055,8.0147,8.0265,8.0876,8.1396,8.1896,8.2174,8.2389,8.2297,8.1866,8.1698,8.1668,8.1558,8.1281,8.1082,8.1082,8.1082,8.1289,8.147,8.1477,8.1394,8.1344,8.1423,8.157,8.1707,8.1882,8.2026,8.2018,8.1787,8.1658,8.1528,8.1302,8.0995,8.0995,8.0995,8.0995,8.0995,8.0995,8.0995,8.0995,8.0995,8.0995,8.0995,8.0995,8.0995,8.0995,8.0995,8.0995,8.0995,8.0995,8.0995,8.0995,8.0995,8.0995,8.1028,8.119,8.1172,8.1172,8.106,8.1075,8.1205,8.1414,8.181,8.2122,8.2207,8.2523,8.3311,8.3911,8.4315,8.4715,8.4992,8.5254,8.5591,8.589,8.6279,8.6472,8.6866,8.7259,8.7665,8.7894,8.8348,8.8463,8.8564,8.8793,8.872,8.8347,8.805,8.7801,8.7538,8.7216,8.7349,8.7548,8.8155,8.8681,8.8779,8.888,8.1021,8.085,8.085,8.0555,8.0107,8.0124,7.9755,7.9078,7.8815,7.8692,7.8599,7.8107,7.8076,7.8446,7.9232,7.9971,8.0289,7.9503,8.0016,8.0444,8.0505,8.0545,8.1222,8.1866,8.2266,8.2574,8.2851,8.2913,8.2666,8.2235,8.1927,8.1866,8.1298,8.1113,8.1082,8.1148,8.132,8.1802,8.2211,8.2264,8.2186,8.2424,8.2429,8.2523,8.2768,8.3088,8.2958,8.2435,8.2079,8.1917,8.1367,8.0995,8.0995,8.0995,8.0995,8.0995,8.0995,8.0995,8.0995,8.0995,8.0995,8.0995,8.0995,8.0995,8.0995,8.0995,8.0995,8.0995,8.0995,8.0995,8.1028,8.1125,8.1369,8.1481,8.1578,8.1561,8.1561,8.1658,8.182,8.2062,8.2301,8.2534,8.2745,8.2761,8.3143,8.3892,8.435,8.4732,8.5233,8.5772,8.6245,8.6683,8.7122,8.7294,8.7183,8.7388,8.7659,8.7711,8.7906,8.8079,8.8265,8.8456,8.8686,8.8489,8.8203,8.8156,8.8051,8.763,8.7257,8.7448,8.7682,8.8005,8.8388,8.8513,8.8767,8.0727,8.0155,8.0186,8.0107,8.0063,8.0124,7.9707,7.917,7.9632,7.917,7.8507,7.9184,7.9417,7.9417,8.0142,8.0788,8.0938,8.0173,8.0449,8.0601,8.0453,8.0829,8.1564,8.2204,8.2697,8.3467,8.3449,8.348,8.3418,8.2389,8.1835,8.1267,8.1312,8.1158,8.1227,8.1436,8.1715,8.2229,8.2722,8.2977,8.286,8.2885,8.2779,8.278,8.276,8.2716,8.2732,8.2524,8.2273,8.2241,8.1561,8.119,8.119,8.106,8.1028,8.1367,8.106,8.1125,8.1254,8.1222,8.106,8.1028,8.0995,8.106,8.119,8.106,8.1028,8.1157,8.1334,8.1222,8.1352,8.1561,8.1967,8.2115,8.226,8.245,8.2515,8.2644,8.2806,8.3016,8.3142,8.3216,8.3539,8.3575,8.3956,8.4659,8.5295,8.568,8.6434,8.699,8.7461,8.7927,8.8416,8.8433,8.7982,8.7995,8.7898,8.7759,8.7809,8.7963,8.8094,8.8328,8.8547,8.8427,8.8203,8.8262,8.8247,8.785,8.7596,8.7605,8.7806,8.816,8.8427,8.8595,8.8872,8.034,8.0063,7.9663,7.9478,7.9523,7.994,7.9724,7.9201,7.9355,7.9232,7.8739,8.0001,8.034,8.0124,8.0542,8.1082,8.0996,8.0531,8.0701,8.0754,8.0741,8.1078,8.1836,8.2543,8.3005,8.3497,8.3541,8.3203,8.2697,8.2297,8.2112,8.1743,8.1712,8.1712,8.1781,8.211,8.2492,8.266,8.2998,8.3207,8.3243,8.3395,8.3465,8.3691,8.3946,8.41,8.4207,8.3701,8.3244,8.2709,8.2046,8.1787,8.1626,8.1334,8.1528,8.1982,8.1593,8.1546,8.2014,8.1917,8.169,8.1561,8.1319,8.1222,8.1626,8.169,8.169,8.182,8.2046,8.2031,8.1792,8.2323,8.2776,8.2861,8.3038,8.3277,8.3405,8.3502,8.3631,8.3761,8.371,8.3672,8.4042,8.4392,8.4892,8.5442,8.603,8.6652,8.7227,8.7743,8.8035,8.8338,8.8781,8.8622,8.8123,8.8045,8.8006,8.7803,8.7647,8.773,8.7859,8.8123,8.8281,8.8218,8.8237,8.8324,8.8223,8.7998,8.7883,8.7824,8.8012,8.8352,8.8533,8.871,8.9083,8.0124,8.0063,7.9817,7.957,7.9478,7.9909,7.9847,7.9417,7.9201,7.8924,7.8924,8.0296,8.0727,8.0432,8.0788,8.1082,8.0979,8.0719,8.0788,8.088,8.1012,8.1446,8.2297,8.3005,8.3449,8.348,8.3449,8.322,8.2635,8.2068,8.2081,8.2266,8.2389,8.2389,8.2547,8.3069,8.3326,8.2997,8.336,8.3333,8.3336,8.3439,8.3749,8.4009,8.4299,8.4634,8.4677,8.4284,8.3892,8.3389,8.2871,8.2515,8.2256,8.2144,8.2273,8.245,8.2483,8.2223,8.2709,8.2806,8.2418,8.2338,8.2079,8.2094,8.2288,8.2418,8.245,8.2483,8.2871,8.2985,8.2471,8.305,8.3439,8.3539,8.3958,8.4214,8.415,8.4214,8.4344,8.4474,8.4406,8.4418,8.4846,8.526,8.5508,8.5995,8.6467,8.6903,8.7224,8.7699,8.8093,8.841,8.8753,8.8422,8.8019,8.8149,8.812,8.7386,8.7276,8.7409,8.7556,8.7872,8.8132,8.8156,8.8228,8.8343,8.8372,8.8285,8.8137,8.7929,8.8156,8.8376,8.8687,8.8912,8.9454,8.0094,8.0169,8.0713,8.0573,8.0094,8.0094,8.0063,7.9909,7.9417,7.8924,7.8723,8.0326,8.0788,8.0432,8.088,8.1082,8.1013,8.0754,8.0754,8.1033,8.1371,8.2064,8.285,8.348,8.3634,8.3818,8.3541,8.319,8.2882,8.1958,8.205,8.2789,8.3097,8.3097,8.3168,8.3786,8.3496,8.2634,8.3633,8.3679,8.3335,8.3258,8.352,8.3879,8.4154,8.446,8.4602,8.4547,8.4156,8.3799,8.3456,8.3195,8.3098,8.2968,8.3098,8.3292,8.3163,8.3098,8.3243,8.321,8.3227,8.313,8.2839,8.2904,8.3113,8.3178,8.3163,8.3195,8.3422,8.3372,8.3422,8.3746,8.4054,8.4313,8.4685,8.4862,8.4765,8.4765,8.4862,8.4895,8.5136,8.5358,8.5786,8.6128,8.6223,8.6527,8.6928,8.7216,8.736,8.7626,8.802,8.8353,8.862,8.8497,8.8236,8.8393,8.8185,8.7371,8.7029,8.7252,8.7389,8.7618,8.7856,8.8046,8.8238,8.8377,8.852,8.8648,8.8468,8.8281,8.8209,8.8396,8.8755,8.9244,8.9868,7.9909,8.0696,8.0049,8.0142,8.0634,8.0278,8.0124,8.0063,7.9861,7.9847,8.0124,8.0911,8.1004,8.0911,8.0911,8.1096,8.1044,8.1044,8.1061,8.1154,8.163,8.2314,8.3018,8.3357,8.348,8.3405,8.3128,8.282,8.2389,8.1896,8.2605,8.3436,8.3572,8.3757,8.3798,8.4044,8.3683,8.3182,8.3675,8.3935,8.3318,8.324,8.3436,8.3813,8.3944,8.4154,8.4492,8.4472,8.4356,8.4096,8.377,8.3875,8.3778,8.3648,8.3681,8.3972,8.3972,8.3454,8.3843,8.4167,8.4328,8.394,8.3551,8.3567,8.3778,8.3843,8.3875,8.3972,8.4199,8.4182,8.4102,8.4571,8.4847,8.4911,8.5154,8.5154,8.5154,8.5154,8.5186,8.5186,8.5315,8.5487,8.5857,8.6219,8.6412,8.671,8.7064,8.7205,8.7349,8.7552,8.7889,8.8209,8.8448,8.8442,8.8451,8.8424,8.8276,8.7589,8.7308,8.7342,8.7445,8.7556,8.786,8.8199,8.8319,8.8439,8.8625,8.8815,8.8767,8.8634,8.8712,8.8943,8.9402,8.9936,9.0494,8.0046,8.0959,8.0172,8.0142,8.0696,8.0525,8.034,8.0155,8.0124,8.0371,8.0696,8.0942,8.0979,8.0944,8.1044,8.0975,8.091,8.1061,8.1096,8.1236,8.2081,8.2481,8.2772,8.3172,8.319,8.3036,8.3005,8.2851,8.2605,8.2481,8.2882,8.3467,8.3757,8.3418,8.3587,8.381,8.395,8.3594,8.3912,8.4489,8.3746,8.3431,8.3674,8.3778,8.3862,8.3976,8.4299,8.4507,8.4586,8.4294,8.4321,8.454,8.4393,8.4361,8.4409,8.47,8.4668,8.4199,8.462,8.4895,8.4862,8.4635,8.4117,8.4182,8.4506,8.4571,8.4603,8.4733,8.5057,8.4927,8.4765,8.5219,8.5251,8.5283,8.5283,8.5283,8.5283,8.5283,8.5283,8.5283,8.5363,8.5566,8.5893,8.6164,8.6459,8.6813,8.7152,8.7259,8.7334,8.7523,8.7743,8.7987,8.8291,8.8381,8.8348,8.8286,8.8093,8.7758,8.7596,8.7464,8.7537,8.764,8.7991,8.8252,8.8242,8.8362,8.8778,8.8982,8.9209,8.9388,8.9504,8.9787,9.0179,9.0638,9.1156,8.0463,8.1052,8.1082,8.0665,8.0309,8.0727,8.0586,8.0094,8.0094,8.0138,8.0248,8.0894,8.091,8.0684,8.094,8.0892,8.0736,8.0962,8.1123,8.1527,8.242,8.2574,8.2943,8.3436,8.3344,8.2913,8.2851,8.3313,8.3128,8.3344,8.3436,8.319,8.3264,8.2956,8.3142,8.3627,8.3742,8.3548,8.4463,8.4643,8.3872,8.3889,8.3975,8.3982,8.3938,8.4101,8.4346,8.4556,8.4699,8.4777,8.5047,8.5188,8.5251,8.5283,8.5283,8.5283,8.5186,8.5154,8.5154,8.5251,8.5251,8.5089,8.5121,8.5219,8.5186,8.5089,8.5057,8.5057,8.5251,8.5251,8.5283,8.5283,8.5283,8.5283,8.5283,8.5283,8.5283,8.5283,8.5283,8.5331,8.5379,8.5615,8.6147,8.6451,8.6694,8.7065,8.7368,8.7301,8.7375,8.7482,8.764,8.7802,8.8045,8.8319,8.8276,8.818,8.8122,8.786,8.7655,8.7523,8.7626,8.781,8.8129,8.8279,8.8144,8.8448,8.9427,8.9834,8.998,9.0139,9.0332,9.064,9.0996,9.1315,9.1766,8.0494,8.1052,8.0603,8.0542,8.0757,8.0494,8.0001,7.9478,7.9878,8.0309,8.0802,8.0696,8.0754,8.094,8.0754,8.0788,8.091,8.1106,8.1465,8.2006,8.2666,8.3159,8.3528,8.3788,8.3757,8.3664,8.3634,8.3726,8.3911,8.4157,8.3836,8.3282,8.3203,8.2759,8.2727,8.3245,8.3189,8.3562,8.4892,8.4768,8.4346,8.43,8.429,8.4245,8.4136,8.4317,8.4533,8.4475,8.4572,8.4795,8.5111,8.5268,8.5283,8.5283,8.5283,8.5283,8.5283,8.5283,8.5283,8.5283,8.5283,8.5283,8.5283,8.5283,8.5283,8.5283,8.5283,8.5283,8.5283,8.5283,8.5283,8.5283,8.5283,8.5283,8.5283,8.5283,8.5283,8.5283,8.5316,8.5364,8.5428,8.6018,8.6519,8.6746,8.7005,8.7377,8.7603,8.7599,8.7515,8.7593,8.7582,8.7728,8.7831,8.8093,8.8122,8.802,8.8049,8.7977,8.7887,8.7847,8.8056,8.8259,8.8359,8.8632,8.9079,8.9768,9.0558,9.0818,9.0842,9.1035,9.1228,9.1522,9.1792,9.1977,9.2214,8.0573,8.0665,8.0573,8.0449,8.0296,8.0155,7.9724,7.9324,7.9817,8.0463,8.1,8.0684,8.0649,8.0771,8.0632,8.0632,8.0823,8.1058,8.1404,8.2081,8.282,8.3159,8.3621,8.3972,8.3818,8.388,8.3972,8.4034,8.4311,8.4649,8.4465,8.3634,8.3497,8.2882,8.2749,8.3271,8.3573,8.3969,8.4521,8.4845,8.4805,8.4742,8.4932,8.4631,8.4521,8.445,8.457,8.4359,8.4443,8.4667,8.4968,8.5268,8.5283,8.5283,8.5283,8.5283,8.5283,8.5283,8.5283,8.5283,8.5283,8.5283,8.5283,8.5283,8.5283,8.5283,8.5283,8.5283,8.5283,8.5283,8.5283,8.5283,8.5283,8.5283,8.5283,8.5283,8.5283,8.5283,8.5331,8.5412,8.5796,8.642,8.6814,8.7058,8.7496,8.8194,8.8541,8.8515,8.8201,8.7888,8.7763,8.7714,8.7743,8.7831,8.7927,8.8177,8.8265,8.8394,8.8507,8.8492,8.8634,8.8983,8.936,8.9881,9.0442,9.0929,9.1228,9.16,9.172,9.1899,9.2004,9.2234,9.2284,9.22,9.2442,8.0586,8.0186,8.0757,8.0323,7.9397,7.9984,7.9878,7.9372,8.0001,8.0542,8.0965,8.0684,8.0531,8.0667,8.0492,8.0601,8.0885,8.1169,8.1765,8.2266,8.3005,8.3497,8.3788,8.3849,8.4095,8.3805,8.3836,8.4403,8.4403,8.4711,8.4803,8.4188,8.3898,8.3313,8.2723,8.318,8.3359,8.3318,8.4407,8.521,8.4978,8.5343,8.5943,8.5263,8.4742,8.4366,8.4343,8.4307,8.4283,8.454,8.4826,8.5221,8.5283,8.5283,8.5283,8.5283,8.5283,8.5283,8.5283,8.5283,8.5283,8.5283,8.5283,8.5283,8.5283,8.5283,8.5283,8.5283,8.5283,8.5283,8.5283,8.5283,8.5283,8.5283,8.5283,8.5283,8.5283,8.5348,8.5445,8.5686,8.6343,8.6985,8.7837,8.8131,8.8486,8.9173,8.933,8.9277,8.9064,8.8549,8.8317,8.8091,8.8147,8.8339,8.8542,8.8726,8.8638,8.8753,8.9025,8.9255,8.9458,8.9942,9.0497,9.0949,9.1381,9.1429,9.1666,9.2102,9.2493,9.2522,9.2693,9.2875,9.2834,9.2608,9.2529,7.9786,8.0077,8.0278,8.0247,8.0242,8.0668,8.0757,8.0651,8.0757,8.0942,8.0996,8.0719,8.0649,8.0788,8.03,8.0487,8.1389,8.1411,8.2345,8.307,8.3695,8.3972,8.4465,8.4588,8.4649,8.4742,8.4803,8.4803,8.4834,8.4988,8.5019,8.4742,8.4188,8.3313,8.2899,8.3264,8.2913,8.2745,8.3812,8.4945,8.5132,8.4757,8.4805,8.4883,8.4742,8.4465,8.4377,8.4146,8.4331,8.4619,8.4779,8.5048,8.5268,8.5316,8.5316,8.5316,8.5348,8.5283,8.5283,8.5283,8.5283,8.5283,8.5283,8.5283,8.5283,8.5283,8.5283,8.5283,8.5283,8.5283,8.5283,8.5283,8.5283,8.5283,8.5316,8.5316,8.5316,8.5478,8.5591,8.6202,8.686,8.7697,8.8584,8.9224,8.9627,8.9781,8.9779,8.9756,8.9788,8.951,8.9377,8.9193,8.9018,8.9142,8.9227,8.9268,8.9205,8.9519,8.9917,9.0143,9.0317,9.0987,9.1628,9.1933,9.2215,9.2274,9.2497,9.3005,9.3286,9.3126,9.3031,9.3077,9.3128,9.2937,9.2788,7.9324,7.9724,8.0278,8.0349,8.0199,8.0817,8.0959,8.0727,8.0942,8.0979,8.0823,8.0632,8.0632,8.0771,8.0195,8.0352,8.1398,8.1472,8.2261,8.3285,8.4126,8.4495,8.4816,8.5093,8.5001,8.508,8.508,8.5062,8.5093,8.5062,8.5031,8.4988,8.4188,8.3744,8.3546,8.3142,8.2709,8.2495,8.3449,8.4277,8.5074,8.4862,8.4852,8.5073,8.4807,8.4513,8.4344,8.408,8.4072,8.4395,8.4603,8.5292,8.5513,8.551,8.5542,8.5607,8.5575,8.5283,8.5316,8.5283,8.5283,8.5283,8.5283,8.5283,8.5283,8.5283,8.5283,8.5283,8.5283,8.5283,8.5283,8.5283,8.5283,8.5283,8.538,8.5413,8.5656,8.598,8.6304,8.6805,8.7547,8.8387,8.9277,8.9988,9.0382,9.0725,9.0641,9.0542,9.0526,9.0362,9.0309,9.0184,8.9906,8.959,8.9423,8.9582,8.9761,9.0207,9.0754,9.1238,9.1595,9.2228,9.279,9.2839,9.2984,9.3193,9.3503,9.3601,9.3601,9.3421,9.3282,9.3212,9.3229,9.332,9.3402,7.8926,7.9182,8.0429,8.0437,7.9806,8.0647,8.0788,8.0432,8.0819,8.0858,8.0562,8.0527,8.051,8.0387,8.0111,8.0378,8.0789,8.1474,8.2303,8.3298,8.4065,8.4588,8.4908,8.5093,8.5093,8.5093,8.5093,8.5093,8.5093,8.5093,8.5093,8.5093,8.4926,8.4649,8.4434,8.4272,8.3931,8.3396,8.3746,8.4288,8.4707,8.4919,8.5006,8.4883,8.4631,8.4236,8.4068,8.3947,8.3731,8.4073,8.4524,8.5261,8.5773,8.5803,8.5948,8.6012,8.5851,8.5542,8.5348,8.5283,8.5283,8.5283,8.5316,8.5348,8.5413,8.5478,8.5478,8.5575,8.5575,8.5348,8.5348,8.5348,8.5348,8.5575,8.5624,8.5786,8.6207,8.6547,8.6968,8.747,8.8246,8.912,8.985,9.0581,9.1029,9.1361,9.1471,9.1455,9.1369,9.1114,9.0949,9.0801,9.0617,9.0235,8.9983,9.0099,9.0523,9.0896,9.1493,9.2217,9.279,9.302,9.3246,9.3406,9.3552,9.3586,9.3586,9.3601,9.3601,9.3601,9.3502,9.341,9.3586,9.371,9.4156,7.808,7.862,7.9809,8.0098,7.9968,8.074,8.1004,8.0959,8.1004,8.0906,8.0562,8.051,8.051,8.0492,8.0076,8.0299,8.1156,8.1682,8.2722,8.3852,8.4447,8.4834,8.505,8.5093,8.5093,8.5093,8.5093,8.5093,8.5093,8.5093,8.5093,8.5093,8.4526,8.428,8.4157,8.4044,8.39,8.3717,8.3905,8.4372,8.4197,8.4355,8.4422,8.4298,8.4077,8.3634,8.3383,8.3353,8.352,8.3895,8.4476,8.5262,8.5823,8.6176,8.6337,8.6563,8.6369,8.598,8.5786,8.5672,8.5672,8.564,8.5689,8.5818,8.5948,8.6191,8.6304,8.6531,8.6369,8.5704,8.5575,8.5575,8.5607,8.6207,8.6482,8.6774,8.713,8.7308,8.7567,8.8198,8.891,8.9639,9.0321,9.0902,9.1282,9.1502,9.1486,9.1486,9.1533,9.1533,9.1486,9.1317,9.1132,9.1508,9.1554,9.1262,9.1479,9.1805,9.2103,9.2594,9.304,9.339,9.3571,9.3497,9.3527,9.3542,9.3556,9.3527,9.3601,9.3586,9.3586,9.3603,9.3833,9.4192,9.4663]},{"header":{"parameterUnit":"m.s-1","parameterCategory":1,"la1":31.0,"la2":29.5877,"lo1":-88.7671,"lo2":-86.6584,"dy":0.0162,"dx":0.0185,"nx":115,"ny":88,"refTime":"2024-03-19T06:00:00:Z","depth":0,"parameterNumber":3,"parameterNumberName":"V-component_of_WINDS"},"data":[0.0,0.0,0.0,0.0,0.0,0.0,0.0,0.0,0.0,0.0,0.0,0.0,0.0,0.0,0.0,0.0,0.0,0.0,0.0,0.0,0.0,0.0,0.0,0.0,0.0,0.0,0.0,0.0,0.0,0.0,0.0,0.0,0.0,0.0,0.0,0.0,0.0,0.0,0.0,0.0,0.0,0.0,0.0,0.0,0.0,0.0,0.0,0.0,0.0,0.0,0.0,0.0,0.0,0.0,0.0,0.0,0.0,0.0,0.0,0.0,0.0,0.0,0.0,0.0,0.0,0.0,0.0,0.0,0.0,0.0,0.0,0.0,0.0,0.0,0.0,0.0,0.0,0.0,0.0,0.0,0.0,0.0,0.0,0.0,0.0,0.0,0.0,0.0,0.0,0.0,0.0,0.0,0.0,0.0,0.0,0.0,0.0,0.0,0.0,0.0,0.0,0.0,0.0,0.0,0.0,0.0,0.0,0.0,0.0,0.0,0.0,0.0,0.0,0.0,0.0,0.0,0.0,0.0,0.0,0.0,0.0,0.0,0.0,0.0,0.0,0.0,0.0,0.0,0.0,0.0,0.0,0.0,0.0,0.0,0.0,0.0,0.0,0.0,0.0,0.0,0.0,0.0,0.0,0.0,0.0,0.0,0.0,0.0,0.0,0.0,0.0,0.0,0.0,0.0,0.0,0.0,0.0,0.0,0.0,0.0,0.0,0.0,0.0,0.0,0.0,0.0,0.0,0.0,0.0,0.0,0.0,0.0,0.0,0.0,0.0,0.0,0.0,0.0,0.0,0.0,0.0,0.0,0.0,0.0,0.0,0.0,0.0,0.0,0.0,0.0,0.0,0.0,0.0,0.0,0.0,0.0,0.0,0.0,0.0,0.0,0.0,0.0,0.0,0.0,0.0,0.0,0.0,0.0,0.0,0.0,0.0,0.0,0.0,0.0,0.0,0.0,0.0,0.0,0.0,0.0,0.0,0.0,0.0,0.0,0.0,0.0,0.0,0.0,0.0,0.0,0.0,0.0,0.0,0.0,0.0,0.0,0.0,0.0,0.0,0.0,0.0,0.0,0.0,0.0,0.0,0.0,0.0,0.0,0.0,0.0,0.0,0.0,0.0,0.0,0.0,0.0,0.0,0.0,0.0,0.0,0.0,0.0,0.0,0.0,0.0,0.0,0.0,0.0,0.0,0.0,0.0,0.0,0.0,0.0,0.0,0.0,0.0,0.0,0.0,0.0,0.0,0.0,0.0,0.0,0.0,0.0,0.0,0.0,0.0,0.0,0.0,0.0,0.0,0.0,0.0,0.0,0.0,0.0,0.0,0.0,0.0,0.0,0.0,0.0,0.0,0.0,0.0,0.0,0.0,0.0,0.0,0.0,0.0,0.0,0.0,0.0,0.0,0.0,0.0,0.0,0.0,0.0,0.0,0.0,0.0,0.0,0.0,0.0,0.0,0.0,0.0,0.0,0.0,0.0,0.0,0.0,0.0,0.0,0.0,0.0,0.0,0.0,0.0,0.0,0.0,0.0,0.0,0.0,0.0,0.0,0.0,0.0,0.0,0.0,0.0,0.0,0.0,0.0,0.0,0.0,0.0,0.0,0.0,0.0,0.0,0.0,0.0,0.0,0.0,0.0,0.0,0.0,0.0,0.0,0.0,0.0,0.0,0.0,0.0,0.0,0.0,0.0,0.0,0.0,0.0,0.0,0.0,0.0,0.0,0.0,0.0,0.0,0.0,0.0,0.0,0.0,0.0,0.0,0.0,0.0,0.0,0.0,0.0,0.0,0.0,0.0,0.0,0.0,0.0,0.0,0.0,0.0,0.0,0.0,0.0,0.0,0.0,0.0,0.0,0.0,0.0,0.0,0.0,0.0,0.0,0.0,0.0,0.0,0.0,0.0,0.0,0.0,0.0,0.0,0.0,0.0,0.0,0.0,0.0,0.0,0.0,0.0,0.0,0.0,0.0,0.0,0.0,0.0,0.0,0.0,0.0,0.0,0.0,0.0,0.0,0.0,0.0,0.0,0.0,0.0,0.0,0.0,0.0,0.0,0.0,0.0,0.0,0.0,0.0,0.0,0.0,0.0,0.0,0.0,0.0,0.0,0.0,0.0,0.0,0.0,0.0,0.0,0.0,0.0,0.0,0.0,0.0,0.0,0.0,0.0,0.0,0.0,0.0,0.0,0.0,0.0,0.0,0.0,0.0,0.0,0.0,0.0,0.0,0.0,0.0,0.0,0.0,0.0,0.0,0.0,0.0,0.0,0.0,0.0,0.0,0.0,0.0,0.0,0.0,0.0,0.0,0.0,0.0,0.0,0.0,0.0,0.0,0.0,0.0,0.0,0.0,0.0,0.0,0.0,0.0,0.0,0.0,0.0,0.0,0.0,0.0,0.0,0.0,0.0,0.0,0.0,0.0,0.0,0.0,0.0,0.0,0.0,0.0,0.0,0.0,0.0,0.0,0.0,0.0,0.0,0.0,0.0,0.0,0.0,0.0,0.0,0.0,0.0,0.0,0.0,0.0,0.0,0.0,0.0,0.0,0.0,0.0,0.0,0.0,0.0,0.0,0.0,0.0,0.0,0.0,0.0,0.0,0.0,0.0,0.0,0.0,0.0,0.0,0.0,0.0,0.0,0.0,0.0,0.0,0.0,0.0,0.0,0.0,0.0,0.0,0.0,0.0,0.0,0.0,0.0,0.0,0.0,0.0,0.0,0.0,0.0,0.0,0.0,0.0,0.0,0.0,0.0,0.0,0.0,0.0,0.0,0.0,0.0,0.0,0.0,0.0,0.0,0.0,0.0,0.0,0.0,0.0,0.0,0.0,0.0,0.0,0.0,0.0,0.0,0.0,0.0,0.0,0.0,0.0,0.0,0.0,0.0,0.0,0.0,0.0,0.0,0.0,0.0,0.0,0.0,0.0,0.0,0.0,0.0,0.0,0.0,0.0,0.0,0.0,0.0,0.0,0.0,0.0,0.0,0.0,0.0,0.0,0.0,0.0,0.0,0.0,0.0,0.0,0.0,0.0,0.0,0.0,0.0,0.0,0.0,0.0,0.0,0.0,0.0,0.0,0.0,0.0,0.0,0.0,0.0,0.0,0.0,0.0,0.0,0.0,0.0,0.0,0.0,0.0,0.0,0.0,0.0,0.0,0.0,0.0,0.0,0.0,0.0,0.0,0.0,0.0,0.0,0.0,0.0,0.0,0.0,0.0,0.0,0.0,0.0,0.0,0.0,0.0,0.0,0.0,0.0,0.0,0.0,0.0,0.0,0.0,0.0,0.0,0.0,0.0,0.0,0.0,0.0,0.0,0.0,0.0,0.0,0.0,0.0,0.0,0.0,0.0,0.0,0.0,0.0,0.0,0.0,0.0,0.0,0.0,0.0,0.0,0.0,0.0,0.0,0.0,0.0,0.0,0.0,0.0,0.0,0.0,0.0,0.0,0.0,0.0,0.0,0.0,0.0,0.0,0.0,0.0,0.0,0.0,0.0,0.0,0.0,0.0,0.0,0.0,0.0,0.0,0.0,0.0,0.0,0.0,0.0,0.0,0.0,0.0,0.0,0.0,0.0,0.0,0.0,0.0,0.0,0.0,0.0,0.0,0.0,0.0,0.0,0.0,0.0,0.0,0.0,0.0,0.0,0.0,0.0,0.0,0.0,0.0,0.0,0.0,0.0,0.0,0.0,0.0,0.0,0.0,0.0,0.0,0.0,0.0,0.0,0.0,0.0,0.0,0.0,0.0,0.0,0.0,0.0,0.0,0.0,0.0,0.0,0.0,0.0,0.0,0.0,0.0,0.0,0.0,0.0,0.0,0.0,0.0,0.0,0.0,0.0,0.0,0.0,0.0,0.0,0.0,0.0,0.0,0.0,0.0,0.0,0.0,0.0,0.0,0.0,0.0,0.0,0.0,0.0,0.0,0.0,0.0,0.0,0.0,0.0,0.0,0.0,0.0,0.0,0.0,0.0,0.0,0.0,0.0,0.0,0.0,0.0,0.0,0.0,0.0,0.0,0.0,0.0,0.0,0.0,0.0,0.0,0.0,0.0,0.0,0.0,0.0,0.0,0.0,0.0,0.0,0.0,0.0,0.0,0.0,0.0,0.0,0.0,0.0,0.0,0.0,0.0,0.0,0.0,0.0,0.0,0.0,0.0,0.0,0.0,0.0,0.0,0.0,0.0,0.0,0.0,0.0,0.0,0.0,0.0,0.0,0.0,0.0,0.0,0.0,0.0,0.0,0.0,0.0,0.0,0.0,0.0,0.0,0.0,0.1076,0.0,0.0,0.0,0.0,0.0,0.0,0.0,0.0,0.0,0.0,0.0,0.0,0.0,0.0,0.0,0.0,0.0,0.0,0.0,0.0,0.0,0.0,0.0,0.0,0.0,0.0,0.0,0.0,0.0,0.0,0.0,0.0,0.0,0.0,0.0,0.0,0.0,0.0,0.0,0.0,0.0,0.0,0.0,0.0,0.0,0.0,0.0,0.0,0.0,0.0,0.0,0.0,0.0,0.0,0.0,0.0,0.0,0.0,0.0,0.0,0.0,0.0,0.0,0.0,0.0,0.0,0.0,0.0,0.0,0.0,0.0,0.0,0.0,0.0,0.0,0.0,0.0,0.0,0.0,0.0,0.0,0.0,0.0,0.0,0.0,0.0,0.0,0.0,0.0,0.0,0.0,0.0,0.0,0.0,0.0,0.0,0.0,0.0,0.0,0.0,0.0,0.0,0.0,0.0,0.0,0.0,0.0,0.0,0.0,0.0,0.1454,0.0931,0.1836,0.189,0.0966,0.0,0.0,0.0,0.0,0.0,0.0,0.0,0.0,0.0,0.0,0.0,0.0,0.0,0.0,0.0,0.0,0.0,0.0,0.0,0.0,0.0,0.0,0.0,0.0,0.0,0.0,0.0,0.0,0.0,0.0,0.0,0.0,0.0,0.0,0.0,0.0,0.0,0.0,0.0,0.0,0.0,0.0,0.0,0.0,0.0,0.0,0.0,0.0,0.0,0.0,0.0,0.0,0.0,0.0,0.0,0.0,0.0,0.0,0.0,0.0,0.0,0.0,0.0,0.0,0.0,0.0,0.0,0.0,0.0,0.0,0.0,0.0,0.0,0.0,0.0,0.0,0.0,0.0,0.0,0.0,0.0,0.0,0.0,0.0,0.0,0.0,0.0,0.0,0.0,0.0,0.0,0.0,0.0,0.0,0.0,0.0,0.0,0.0,0.0,0.0,0.0,0.0,0.0,0.0,0.0,0.0,0.0,0.0,0.0,0.0,0.0,0.0,0.2022,0.2104,0.1576,0.0,0.0,0.0,0.0,0.0,0.0,0.0,0.0,0.0,0.0,0.0,0.0,0.0,0.0,0.0,0.0,0.0,0.0,0.0,0.0,0.0,0.0,0.0,0.0,0.0,0.0,0.0,0.0,0.0,0.0,0.0,0.0,0.0,0.0,0.0,0.0,0.0,0.0,0.0,0.0,0.0,0.0,0.0,0.0,0.0,0.0,0.0,0.0,0.0,0.0,0.0,0.0,0.0,0.0,0.0,0.0,0.0,0.0,0.0,0.0,0.0,0.0,0.0,0.0,0.0,0.0,0.0,0.0,0.0,0.0,0.0,0.0,0.0,0.0,0.0,0.0,0.0,0.0,0.0,0.0,0.0,0.0,0.0,0.0,0.0,0.0,0.0,0.0,0.0,0.0,0.0,0.0,0.0,0.0,0.0,0.0,0.0,0.0,0.0,0.0,0.0,0.0,0.0,0.0,0.0,0.0,0.0,0.0,0.0,0.0,0.1647,0.2863,0.2861,0.0,0.335,0.0,0.0,0.0,0.0,0.0,0.0,0.0,0.0,0.0,0.0,0.0,0.0,0.0,0.0,0.0,0.0,0.0,0.0,0.0,0.0,0.0,0.0,0.0,0.0,0.0,0.0,0.0,0.0,0.0,0.0,0.0,0.0,0.0,0.0,0.0,0.0,0.0,0.0,0.0,0.0,0.0,0.0,0.0,0.0,0.0,0.0,0.0,0.0,0.0,0.0,0.0,0.0,0.0,0.0,0.0,0.0,0.0,0.0,0.0,0.0,0.0,0.0,0.0,0.0,0.0,0.0,0.0,0.0,0.0,0.0,0.0,0.0,0.0,0.0,0.0,0.0,0.0,0.0,0.0,0.0,0.0,0.0,0.0,0.0,0.0,0.0,0.0,0.0,0.0,0.0,0.0,0.0,0.0,0.0,0.0,0.0,0.0,0.0,0.0,0.0,0.0,0.0,0.0,0.0,0.0,0.0,0.0,0.0,0.0,0.0,0.195,0.4053,0.4054,0.3584,0.0,0.0,0.0,0.0,0.0,0.0,0.0,0.0,0.0,0.0,0.0,0.0,0.0,0.0,0.0,0.0,0.0,0.0,0.0,0.0,0.0,0.0,0.0,0.0,0.0,0.0,0.0,0.0,0.0,0.0,0.0,0.0,0.0,0.0,0.0,0.0,0.0,0.0,0.0,0.0,0.0,0.0,0.0,0.0,0.0,0.0,0.0,0.0,0.0,0.0,0.0,0.0,0.0,0.0,0.0,0.0,0.0,0.0,0.0,0.0,0.0,0.0,0.0,0.0,0.0,0.0,0.0,0.0,0.0,0.0,0.0,0.0,0.0,0.0,0.0,0.0,0.0,0.0,0.0,0.0,0.0,0.0,0.0,0.0,0.0,0.0,0.0,0.0,0.0,0.0,0.0,0.0,0.0,0.0,0.0,0.0,0.0,0.0,0.0,0.0,0.0,0.0,0.0,0.0,0.0,0.0,0.0,0.0,0.0,0.0,0.1485,0.2653,0.4618,0.4198,0.3378,0.2372,0.0,0.0,0.0,0.0,0.0,0.0,0.0,0.0,0.0,0.0,0.0,0.0,0.0,0.0,0.0,0.0,0.0,0.0,0.0,0.0,0.0,0.0,0.0,0.0,0.0,0.0,0.0,0.0,0.0,0.0,0.0,0.0,0.0,0.0,0.0,0.0,0.0,0.0,0.0,0.0,0.0,0.0,0.0,0.0,0.0,0.0,0.0,0.0,0.0,0.0,0.0,0.0,0.0,0.0,0.0,0.0,0.0,0.0,0.0,0.0,0.0,0.0,0.0,0.0,0.0,0.0,0.0,0.0,0.0,0.0,0.0,0.0,0.0,0.0,0.0,0.0,0.0,0.0,0.0,0.0,0.0,0.0,0.0,0.0,0.0,0.0,0.0,0.0,0.0,0.0,0.0,0.0,0.0,0.0,0.0,0.0,0.0,0.0,0.0,0.0,0.0,0.0,0.0,0.0,0.0,0.0,0.0,0.0,0.3052,0.336,0.3893,0.4734,0.2691,0.2149,0.0,0.0,0.0,0.0,0.0,0.0,0.0,0.0,0.0,0.0,0.0,0.0,0.0,0.0,0.0,0.0,0.0,0.0,0.0,0.0,0.0,0.0,0.0,0.0,0.0,0.0,0.0,0.0,0.0,0.0,0.0,0.0,0.0,0.0,0.0,0.0,0.0,0.0,0.0,0.0,0.0,0.0,0.0,0.0,0.0,0.0,0.0,0.0,0.0,0.0,0.0,0.0,0.0,0.0,0.0,0.0,0.0,0.0,0.0,0.0,0.0,0.0,0.0,0.0,0.0,0.0,0.0,0.0,0.0,0.0,0.0,0.0,0.0,0.0,0.0,0.0,0.0,0.0,0.0,0.0,0.0,0.0,0.0,0.0,0.0,0.0,0.0,0.0,0.0,0.0,0.0,0.0,0.0,0.0,0.0,0.0,0.0,0.0,0.0,0.0,0.0,0.0,0.0,0.0,0.0,0.0,0.0,0.0,0.0,0.1979,0.3945,0.4862,0.4536,0.3945,0.3713,0.0,0.0,0.0,0.0,0.0,0.0,0.0,0.0,0.0,0.0,0.0,0.0,0.0,0.0,0.0,0.0,0.0,0.0,0.0,0.0,0.0,0.0,0.0,0.0,0.0,0.0,0.0,0.0,0.0,0.0,0.0,0.0,0.0,0.0,0.0,0.0,0.0,0.0,0.0,0.0,0.0,0.0,0.0,0.0,0.0,0.0,0.0,0.0,0.0,0.0,0.0,0.0,0.0,0.0,0.0,0.0,0.0,0.0,0.0,0.0,0.0,0.0,0.0,0.0,0.0,0.0,0.0,0.0,0.0,0.0,0.0,0.0,0.0,0.0,0.0,0.0,0.0,0.0,0.0,0.0,0.0,0.0,0.0,0.0,0.0,0.0,0.0,0.0,0.0,0.0,0.0,0.0,0.0,0.0,0.0,0.0,0.0,0.0,0.0,0.0,0.0,0.0,0.0,0.0,0.0,0.0,0.0,0.0,0.0,0.265,0.0,0.6161,0.5408,0.5063,0.4645,0.0,0.0,0.0,0.0,0.0,0.0,0.0,0.0,0.0,0.0,0.0,0.0,0.0,0.0,0.0,0.0,0.0,0.0,0.0,0.0,0.0,0.0,0.0,0.0,0.0,0.0,0.0,0.0,0.0,0.0,0.0,0.0,0.0,0.0,0.0,0.0,0.0,0.0,0.0,0.0,0.0,0.0,0.0,0.0,0.0,0.0,0.0,0.0,0.0,0.0,0.0,0.0,0.0,0.0,0.0,0.0,0.0,0.0,0.0,0.0,0.0,0.0,0.0,0.0,0.0,0.0,0.0,0.0,0.0,0.0,0.0,0.0,0.0,0.0,0.0,0.0,0.0,0.0,0.0,0.0,0.0,0.0,0.0,0.0,0.0,0.0,0.0,0.0,0.0,0.0,0.0,0.0,0.0,0.0,0.0,0.0,0.0,0.0,0.0,0.0,0.0,0.0,0.0,0.0,0.0,0.0,0.0,0.0,0.2719,0.5448,0.7194,0.7884,0.7424,0.5942,0.4745,0.0,0.0,0.0,0.0,0.0,0.0,0.0,0.0,0.0,0.0,0.0,0.0,0.0,0.0,0.0,0.0,0.0,0.0,0.0,0.0,0.0,0.0,0.0,0.0,0.0,0.0,0.0,0.0,0.0,0.0,0.0,0.0,0.0,0.0,0.0,0.0,0.0,0.0,0.0,0.0,0.0,0.0,0.0,0.0,0.0,0.0,0.0,0.0,0.0,0.0,0.0,0.0,0.0,0.0,0.0,0.0,0.0,0.0,0.0,0.0,0.0,0.0,0.0,0.0,0.0,0.0,0.0,0.0,0.0,0.0,0.0,0.0,0.0,0.0,0.0,0.0,0.0,0.0,0.0,0.0,0.0,0.0,0.0,0.0,0.0,0.0,0.0,0.0,0.0,0.0,0.0,0.0,0.0,0.0,0.0,0.0,0.0,0.0,0.0,0.0,0.0,0.0,0.0,0.0,0.0,0.0,0.0,0.0,0.0,0.5262,0.7954,0.9647,1.0071,0.7879,0.6957,0.0,0.0,0.0,0.0,0.0,0.0,0.0,0.0,0.0,0.0,0.0,0.0,0.0,0.0,0.0,0.0,0.0,0.0,0.0,0.0,0.0,0.0,0.0,0.0,0.0,0.0,0.0,0.0,0.0,0.0,0.0,0.0,0.0,0.0,0.0,0.0,0.0,0.0,0.0,0.0,0.0,0.0,0.0,0.0,0.0,0.0,0.0,0.0,0.0,0.0,0.0,0.0,0.0,0.0,0.0,0.0,0.0,0.0,0.0,0.0,0.0,0.0,0.0,0.0,0.0,0.0,0.0,0.0,0.0,0.0,0.0,0.0,0.0,0.0,0.0,0.0,0.0,0.0,0.0,0.0,0.0,0.0,0.0,0.0,0.0,0.0,0.0,0.0,0.0,0.0,0.0,0.0,0.0,0.0,0.0,0.0,0.0,0.0,0.0,0.0,0.0,0.0,0.0,0.0,0.0,0.0,0.0,0.0,0.0,0.8964,1.1269,1.2714,1.2981,1.0803,0.9528,0.9365,0.0,0.0,0.0,0.0,0.0,0.0,0.0,0.0,0.0,0.0,0.0,0.0,0.0,0.0,0.0,0.0,0.0,0.0,0.0,0.0,0.0,0.0,0.0,0.0,0.0,0.0,0.0,0.0,0.0,0.0,0.0,0.0,0.0,0.0,0.0,0.0,0.0,0.0,0.0,0.0,0.0,0.0,0.0,0.0,0.0,0.0,0.0,0.0,0.0,0.0,0.0,0.0,0.0,0.0,0.0,0.0,0.0,0.0,0.0,0.0,0.0,0.0,0.0,0.0,0.0,0.0,0.0,0.0,0.0,0.0,0.0,0.0,0.0,0.0,0.0,0.0,0.0,0.0,0.0,0.0,0.0,0.0,0.0,0.0,0.0,0.0,0.0,0.0,0.0,0.0,0.0,0.0,0.0,0.0,0.0,0.0,0.0,0.0,0.0,0.0,0.0,0.0,0.0,0.0,0.0,0.0,0.0,0.0,1.5501,1.6774,1.6996,1.5999,1.4322,1.232,0.0,0.0,0.0,0.0,0.0,0.0,0.0,0.0,0.0,0.0,0.0,0.0,0.0,0.0,0.0,0.0,0.0,0.0,0.0,0.0,0.0,0.0,0.0,0.0,0.0,0.0,0.0,0.0,0.0,0.0,0.0,0.0,0.0,0.0,0.0,0.0,0.0,0.0,0.0,0.0,0.0,0.0,0.0,0.0,0.0,0.0,0.0,0.0,0.0,0.0,0.0,0.0,0.0,0.0,0.0,0.0,0.0,0.0,0.0,0.0,0.0,0.0,0.0,0.0,0.0,0.0,0.0,0.0,0.0,0.0,0.0,0.0,0.0,0.0,0.0,0.0,0.0,0.0,0.0,0.0,0.0,0.0,0.0,0.0,0.0,0.0,0.0,0.0,0.0,0.0,0.0,0.0,0.0,0.0,0.0,0.0,0.0,0.0,0.0,0.0,0.0,0.0,0.0,0.0,0.0,0.0,0.0,0.0,0.0,1.9358,2.2641,2.2762,1.9481,1.6777,1.4502,0.0,0.0,0.0,0.0,0.0,0.0,0.0,0.0,0.0,0.0,0.0,0.0,0.0,0.0,0.0,0.0,0.0,0.0,0.0,0.0,0.0,0.0,0.0,0.0,0.0,0.0,0.0,0.0,0.0,0.0,0.0,0.0,0.0,0.0,0.0,0.0,0.0,0.0,0.0,0.0,0.0,0.0,0.0,0.0,0.0,0.0,0.0,0.0,0.0,0.0,0.0,0.0,0.0,0.0,0.0,0.0,0.0,0.0,0.0,0.0,0.0,0.0,0.0,0.0,0.0,0.0,0.0,0.0,0.0,0.0,0.0,0.0,0.0,0.0,0.0,0.0,0.0,0.0,0.0,0.0,0.0,0.0,0.0,0.0,0.0,0.0,0.0,0.0,0.0,0.0,0.0,0.0,0.0,0.0,0.0,0.0,0.0,0.0,0.0,0.0,0.0,0.0,0.0,0.0,0.0,0.0,0.0,0.0,1.9015,2.3099,2.6594,2.6924,2.388,2.0858,1.7776,0.0,0.0,0.0,0.0,0.0,0.0,0.0,0.0,0.0,0.0,0.0,0.0,0.0,0.0,0.0,0.0,0.0,0.0,0.0,0.0,0.0,0.0,0.0,0.0,0.0,0.0,0.0,0.0,0.0,0.0,0.0,0.0,0.0,0.0,0.0,0.0,0.0,0.0,0.0,0.0,0.0,0.0,0.0,0.0,0.0,0.0,0.0,0.0,0.0,0.0,0.0,0.0,0.0,0.0,0.0,0.0,0.0,0.0,0.0,0.0,0.0,0.0,0.0,0.0,0.0,0.0,0.0,0.0,0.0,0.0,0.0,0.0,0.0,0.0,0.0,0.0,0.0,0.0,0.0,0.0,0.0,0.0,0.0,0.0,0.0,0.0,0.0,0.0,0.0,0.0,0.0,0.0,0.0,0.0,0.0,0.0,0.0,0.0,0.0,0.0,0.0,0.0,0.0,0.0,0.0,0.0,0.0,0.0,2.1752,2.6664,2.9324,2.998,2.8473,2.5426,2.1321,0.0,0.0,0.0,0.0,0.0,0.0,0.0,0.0,0.0,0.0,0.0,0.0,0.0,0.0,0.0,0.0,0.0,0.0,0.0,0.0,0.0,0.0,0.0,0.0,0.0,0.0,0.0,0.0,0.0,0.0,0.0,0.0,0.0,0.0,0.0,0.0,0.0,0.0,0.0,0.0,0.0,0.0,0.0,0.0,0.0,0.0,0.0,0.0,0.0,0.0,0.0,0.0,0.0,0.0,0.0,0.0,0.0,0.0,0.0,0.0,0.0,0.0,0.0,0.0,0.0,0.0,0.0,0.0,0.0,0.0,0.0,0.0,0.0,0.0,0.0,0.0,0.0,0.0,0.0,0.0,0.0,0.0,0.0,0.0,0.0,0.0,0.0,0.0,0.0,0.0,0.0,0.0,0.0,0.0,0.0,0.0,0.0,0.0,0.0,0.0,0.0,0.0,0.0,0.0,0.0,0.0,0.0,0.0,2.3635,2.9692,3.1938,3.246,3.1184,2.7031,2.2519,0.0,0.0,0.0,0.0,0.0,0.0,0.0,0.0,0.0,0.0,0.0,0.0,0.0,0.0,0.0,0.0,0.0,0.0,0.0,0.0,0.0,0.0,0.0,0.0,0.0,0.0,0.0,0.0,0.0,0.0,0.0,0.0,0.0,0.0,0.0,0.0,0.0,0.0,0.0,0.0,0.0,0.0,0.0,0.0,0.0,0.0,0.0,0.0,0.6639,0.0,0.0,0.0,0.0,0.0,0.0,0.0,0.0,0.0,0.0,0.0,0.0,0.0,0.0,0.0,0.0,0.0,0.0,0.0,0.0,0.0,0.0,0.0,0.0,0.0,0.0,0.0,0.0,0.0,0.0,0.0,0.0,0.0,0.0,0.0,0.0,0.0,0.0,0.0,0.0,0.0,0.0,0.0,0.0,0.0,0.0,0.0,0.0,0.0,0.0,0.0,0.0,0.0,0.0,0.0,0.0,0.0,0.0,0.0,2.6753,3.206,3.3607,3.3865,3.2732,2.9485,2.5183,0.0,0.0,0.0,0.0,0.0,0.0,0.0,0.0,0.0,0.0,0.0,0.0,0.0,0.0,0.0,0.0,0.0,0.0,0.0,0.0,0.0,0.0,0.0,0.0,0.0,0.0,0.0,0.0,0.0,0.0,0.0,0.0,0.0,0.0,0.0,0.0,0.0,0.0,0.0,0.0,0.0,0.0,0.0,0.0,0.0,0.0,0.0,0.0,0.0,0.0,0.0,0.0,0.0,0.0,0.0,0.0,0.0,0.0,0.0,0.0,0.0,0.0,0.0,0.0,0.0,0.0,0.0,0.0,0.0,0.0,0.0,0.0,0.0,0.0,0.0,0.0,0.0,0.0,0.0,0.0,0.0,0.0,0.0,0.0,0.0,0.0,0.0,0.0,0.0,0.0,0.0,0.0,0.0,0.0,0.0,0.0,0.0,0.0,0.0,0.0,0.0,0.0,0.0,0.0,0.0,0.0,0.0,2.5014,2.9718,3.4135,3.509,3.5004,3.4006,3.2023,2.8171,0.0,0.0,0.0,0.0,0.0,0.0,0.0,0.0,0.0,0.0,0.0,0.0,0.0,0.0,0.0,0.0,0.0,0.0,0.0,0.0,0.0,0.0,0.0,0.0,0.0,0.0,0.0,0.0,0.0,0.0,0.0,0.0,0.0,0.0,0.0,0.0,0.0,0.0,0.0,0.5778,0.7621,0.0,0.0,0.0,0.0,0.0,0.0,0.0,0.0,0.907,0.0,0.0,0.0,0.0,0.0,0.0,0.0,0.0,0.0,0.0,0.0,0.0,0.0,0.0,0.0,0.0,0.0,0.0,0.0,0.0,0.0,0.0,0.0,0.0,0.0,0.0,0.0,0.0,0.0,0.0,0.0,0.0,0.0,0.0,0.0,0.0,0.0,0.0,0.0,0.0,0.0,0.0,0.0,0.0,0.0,0.0,0.0,0.0,0.0,0.0,0.0,0.0,0.0,0.0,0.0,0.0,2.2372,2.5716,3.0331,3.6146,3.7087,3.6796,3.5313,3.3543,2.9995,2.4551,0.0,0.0,0.0,0.0,0.0,0.0,0.0,0.0,0.0,0.0,0.0,0.0,0.0,0.0,0.0,0.0,0.0,0.0,0.0,0.0,0.0,0.0,0.0,0.0,0.0,0.0,0.0,0.0,0.0,0.0,0.0,0.0,0.0,0.0,0.0,0.0,0.0,0.0,0.0,1.0042,1.1311,0.0,0.0,0.0,0.0,0.0,0.0,0.0,0.0,1.0036,0.0,0.0,0.0,0.0,0.0,0.0,0.0,0.0,0.0,0.0,0.0,0.0,0.0,0.0,0.0,0.0,0.0,0.0,0.0,0.0,0.0,0.0,0.0,0.0,0.0,0.0,0.0,0.0,0.0,0.0,0.0,0.0,0.0,0.0,0.0,0.0,0.0,0.0,0.0,0.0,0.0,0.0,0.0,0.0,0.0,0.0,0.0,0.0,0.0,0.0,0.0,0.0,0.0,0.0,0.0,2.3833,2.9024,3.375,3.7925,3.8234,3.7724,3.6465,3.4146,3.028,0.0,0.0,0.0,0.0,0.0,0.0,0.0,0.0,0.0,0.0,0.0,0.0,0.0,0.0,0.0,0.0,0.0,0.0,0.0,0.0,0.0,0.0,0.0,0.0,0.0,0.0,0.0,0.0,0.0,0.0,0.0,0.0,0.0,0.0,0.0,0.0,0.0,0.0,0.0,0.0,1.1009,1.1918,1.294,0.0,0.0,0.0,0.0,0.0,0.0,1.2603,1.2633,0.0,0.0,0.0,0.0,0.0,0.0,0.0,0.0,0.0,0.0,0.0,0.0,0.0,0.0,0.0,0.0,0.0,0.0,0.0,0.0,0.0,0.0,0.0,0.0,0.0,0.0,0.0,0.0,0.0,0.0,0.0,0.0,0.0,0.0,0.0,0.0,0.0,0.0,0.0,0.0,0.0,0.0,0.0,0.0,0.0,0.0,0.0,0.0,0.0,0.0,0.0,0.0,0.0,0.0,0.0,2.5081,3.1964,3.6843,3.9276,3.9051,3.8416,3.7402,3.4668,3.0466,0.0,0.0,0.0,0.0,0.0,0.0,0.0,0.0,0.0,0.0,0.0,0.0,0.0,0.0,0.0,0.0,0.0,0.0,0.0,0.0,0.0,0.0,0.0,0.0,0.0,0.0,0.0,0.0,0.0,0.0,0.0,0.0,0.0,0.0,0.0,0.0,0.0,0.0,0.0,0.0,0.0,1.3156,1.4537,1.4732,0.0,0.0,0.0,0.0,1.4319,1.5227,0.0,0.0,0.0,0.0,0.0,0.0,0.0,0.0,0.0,0.0,0.0,0.0,0.0,0.0,0.0,0.0,0.0,0.0,0.0,0.0,0.0,0.0,0.0,0.0,0.0,0.0,0.0,0.0,0.0,0.0,0.0,0.0,0.0,0.0,0.0,0.0,0.0,0.0,0.0,0.0,0.0,0.0,0.0,0.0,0.0,0.0,0.0,0.0,0.0,0.0,0.0,0.0,0.0,0.0,0.0,0.0,2.5904,3.2217,3.6928,3.9653,3.9786,3.9141,3.7853,3.5647,3.1482,0.0,0.0,0.0,0.0,0.0,0.0,0.0,0.0,0.0,0.0,0.0,0.0,0.0,0.0,0.0,0.0,0.0,0.0,0.0,0.0,0.0,0.0,0.0,0.0,0.0,0.0,0.0,0.0,0.0,0.0,0.0,0.0,0.0,0.0,0.0,0.0,0.0,0.0,0.0,0.0,0.0,1.7091,1.6966,1.7421,1.7618,0.0,0.0,0.0,1.6942,1.7823,0.0,0.0,0.0,0.0,0.0,0.0,0.0,0.0,0.0,0.0,0.0,0.0,0.0,0.0,0.0,0.0,0.0,0.0,0.0,0.0,0.0,0.0,0.0,0.0,0.0,0.0,0.0,0.0,0.0,0.0,0.0,0.0,0.0,0.0,0.0,0.0,0.0,0.0,0.0,0.0,0.0,0.0,0.0,0.0,0.0,0.0,0.0,0.0,0.0,0.0,0.0,0.0,0.0,0.0,0.0,2.3365,2.7044,3.3815,3.8398,4.0528,4.06,3.9834,3.8338,3.5942,3.1737,0.0,0.0,0.0,0.0,0.0,0.0,0.0,0.0,0.0,0.0,0.0,0.0,0.0,0.0,0.0,0.0,0.0,0.0,0.0,0.0,0.0,0.0,0.0,0.0,0.0,0.0,0.0,0.0,0.0,0.0,0.0,0.0,0.0,0.0,0.0,0.0,0.0,0.0,0.0,0.0,0.0,0.0,1.886,1.9814,0.0,0.0,0.0,2.0685,2.0123,0.0,0.0,0.0,0.0,0.0,0.0,0.0,0.0,0.0,0.0,0.0,0.0,0.0,0.0,0.0,0.0,0.0,0.0,0.0,0.0,0.0,0.0,0.0,0.0,0.0,0.0,0.0,0.0,0.0,0.0,0.0,0.0,0.0,0.0,0.0,0.0,0.0,0.0,0.0,0.0,0.0,0.0,0.0,0.0,0.0,0.0,0.0,0.0,0.0,0.0,0.0,0.0,0.0,0.0,0.0,0.0,0.0,2.8186,3.5409,3.9965,4.16,4.1182,4.0215,3.8774,3.6217,0.0,0.0,0.0,0.0,0.0,0.0,0.0,0.0,0.0,0.0,0.0,0.0,0.0,0.0,0.0,0.0,0.0,0.0,0.0,0.0,0.0,0.0,0.0,0.0,0.0,0.0,0.0,0.0,0.0,0.0,0.0,0.0,0.0,0.0,0.0,0.0,0.0,0.0,0.0,0.0,0.0,0.0,1.9621,2.0983,2.2421,2.3025,0.0,0.0,2.4144,2.3401,2.4259,2.4236,0.0,0.0,0.0,0.0,0.0,0.0,0.0,0.0,0.0,0.0,0.0,0.0,0.0,0.0,0.0,0.0,0.0,0.0,0.0,0.0,0.0,0.0,0.0,0.0,0.0,0.0,0.0,0.0,0.0,0.0,0.0,0.0,0.0,0.0,0.0,0.0,0.0,0.0,0.0,0.0,0.0,0.0,0.0,0.0,0.0,0.0,0.0,0.0,0.0,0.0,0.0,0.0,0.0,0.0,0.0,2.9429,3.6588,4.1225,4.2855,4.131,4.0031,3.9157,3.6632,3.2537,0.0,0.0,0.0,0.0,0.0,0.0,0.0,0.0,0.0,0.0,0.0,0.0,0.0,0.0,0.0,0.0,0.0,0.0,0.0,0.0,0.0,0.0,0.0,0.0,0.0,0.0,0.0,0.0,0.0,0.0,0.0,0.0,0.0,0.0,0.0,0.0,0.0,0.0,0.0,0.0,0.0,2.2361,2.3579,2.5529,2.6844,0.0,0.0,2.7593,2.6624,2.7524,2.7115,2.3378,0.0,0.0,0.0,0.0,0.0,0.0,0.0,0.0,0.0,0.0,0.0,0.0,0.0,0.0,0.0,0.0,0.0,0.0,0.0,0.0,0.0,0.0,0.0,0.0,0.0,0.0,0.0,0.0,0.0,0.0,0.0,0.0,0.0,0.0,0.0,0.0,0.0,0.0,0.0,0.0,0.0,0.0,0.0,0.0,0.0,0.0,0.0,0.0,0.0,0.0,0.0,0.0,0.0,2.7498,3.0284,3.7545,4.2257,4.4059,4.3015,4.1809,4.072,3.8388,3.452,0.0,0.0,0.0,0.0,0.0,0.0,0.0,0.0,0.0,0.0,0.0,0.0,0.0,0.0,0.0,0.0,0.0,0.0,0.0,0.0,0.0,0.0,0.0,0.0,0.0,0.0,0.0,0.0,0.9457,1.0043,1.0524,0.0,0.0,0.0,0.0,0.0,0.0,0.0,0.0,0.0,0.0,2.4875,2.6166,2.7783,0.0,0.0,2.91,2.9249,2.9322,2.8862,2.7917,2.6197,2.4045,0.0,0.0,0.0,0.0,0.0,0.0,0.0,0.0,0.0,0.0,0.0,0.0,0.0,0.0,0.0,0.0,0.0,0.0,0.0,0.0,0.0,0.0,0.0,0.0,0.0,0.0,0.0,0.0,0.0,0.0,0.0,0.0,0.0,0.0,0.0,0.0,0.0,0.0,0.0,0.0,0.0,0.0,0.0,0.0,0.0,0.0,0.0,0.0,0.0,0.0,0.0,0.0,2.8359,3.1474,3.8673,4.343,4.56,4.4552,4.3324,4.194,3.9591,3.6038,0.0,0.0,0.0,0.0,0.0,0.0,0.0,0.0,0.0,0.0,0.0,0.0,0.0,0.0,0.0,0.0,0.0,0.0,0.0,0.0,0.0,0.0,0.0,0.0,0.0,0.0,0.0,0.0,1.1019,1.1205,1.117,0.0,0.0,0.0,0.0,0.0,0.0,0.0,0.0,0.0,0.0,2.7211,2.8698,2.9944,3.0732,3.0874,3.0849,3.0877,3.1204,3.0218,2.901,2.7751,0.0,0.0,0.0,0.0,0.0,0.0,0.0,0.0,0.0,0.0,0.0,0.0,0.0,0.0,0.0,0.0,0.0,0.0,0.0,0.0,0.0,0.0,0.0,0.0,0.0,0.0,0.0,0.0,0.0,0.0,0.0,0.0,0.0,0.0,0.0,0.0,0.0,0.0,0.0,0.0,0.0,0.0,0.0,0.0,0.0,0.0,0.0,0.0,0.0,0.0,0.0,0.0,0.0,0.0,3.3077,4.0072,4.487,4.7222,4.5747,4.4238,4.2792,3.9903,3.6738,3.3364,0.0,0.0,0.0,0.0,0.0,0.0,0.0,0.0,0.0,0.0,0.0,0.0,0.0,0.0,0.0,0.0,0.0,0.0,0.0,0.0,0.0,0.0,0.0,0.0,0.0,0.0,1.153,1.1851,1.2031,0.0,0.0,0.0,0.0,0.0,0.0,0.0,0.0,0.0,0.0,2.7017,2.9314,3.1157,3.2062,3.2646,3.3067,3.3042,3.277,3.2089,3.1859,3.0722,0.0,0.0,0.0,0.0,0.0,0.0,0.0,0.0,0.0,0.0,0.0,0.0,0.0,0.0,0.0,0.0,0.0,0.0,0.0,0.0,0.0,0.0,0.0,0.0,0.0,0.0,0.0,0.0,0.0,0.0,0.0,0.0,0.0,0.0,0.0,0.0,0.0,0.0,0.0,0.0,2.3457,2.4824,0.0,0.0,0.0,0.0,0.0,0.0,0.0,0.0,0.0,0.0,0.0,0.0,3.0714,3.4262,4.1518,4.6423,4.8528,4.6981,4.5543,4.4396,4.1486,3.7731,3.3144,0.0,0.0,0.0,0.0,0.0,0.0,0.0,0.0,0.0,0.0,0.0,0.0,0.0,0.0,0.0,0.0,0.0,0.0,0.0,0.0,0.0,0.0,0.0,0.0,0.0,1.3322,0.0,0.0,0.0,0.0,0.0,0.0,0.0,0.0,0.0,0.0,0.0,2.145,2.6895,2.9049,3.0908,3.313,3.3407,3.361,0.0,0.0,0.0,0.0,0.0,0.0,0.0,0.0,0.0,0.0,0.0,0.0,0.0,0.0,2.3762,2.0805,2.0398,2.0435,2.0166,0.0,0.0,0.0,0.0,0.0,0.0,0.0,0.0,0.0,0.0,0.0,0.0,0.0,0.0,0.0,0.0,1.8385,0.0,0.0,0.0,0.0,0.0,0.0,0.0,0.0,2.443,2.6787,2.763,2.8932,2.9317,0.0,2.846,2.6175,0.0,0.0,0.0,0.0,0.0,0.0,0.0,0.0,3.3074,3.6595,4.3471,4.797,4.9594,4.8346,4.7065,4.5879,4.2409,3.834,3.3735,3.0534,2.823,0.0,0.0,0.0,0.0,0.0,0.0,0.0,0.0,0.0,0.0,0.0,0.0,0.0,0.0,0.0,0.0,0.0,0.0,0.0,0.0,0.0,0.0,0.0,1.5919,0.0,0.0,0.0,0.0,0.0,0.0,0.0,0.0,0.0,2.0934,2.1674,2.4243,2.961,3.1664,3.3193,3.4598,0.0,0.0,0.0,0.0,0.0,0.0,0.0,3.2174,3.16,3.0885,3.0067,2.9156,2.9014,2.8926,2.8692,0.0,0.0,2.4423,2.3879,2.3933,2.3781,2.3914,2.4331,2.5273,2.598,2.6734,0.0,0.0,0.0,0.0,0.0,0.0,0.0,0.0,2.0423,2.0737,0.0,0.0,0.0,0.0,0.0,0.0,0.0,0.0,0.0,0.0,2.7994,3.0113,3.1737,3.1864,3.2017,0.0,3.1922,3.105,2.9552,2.5331,0.0,0.0,0.0,0.0,0.0,0.0,3.6545,4.0084,4.5841,4.94,5.0509,4.973,4.8565,4.6978,4.2677,3.8707,3.5385,3.3389,3.1436,2.9347,2.5778,0.0,0.0,0.0,0.0,0.0,0.0,0.0,0.0,0.0,0.0,0.0,0.0,0.0,0.0,0.0,0.0,0.0,0.0,0.0,0.0,1.7796,0.0,0.0,0.0,0.0,0.0,0.0,0.0,0.0,0.0,0.0,2.4645,2.4678,2.6679,3.215,0.0,0.0,0.0,0.0,3.5654,3.5709,3.5955,3.5732,3.4602,3.5016,3.4693,3.2442,0.0,0.0,3.0969,3.1529,3.199,3.1344,3.1506,3.09,2.8731,2.8064,2.8004,2.8256,2.8274,2.8621,2.929,2.9756,3.0353,3.2957,0.0,0.0,0.0,0.0,2.4807,2.5534,2.629,2.7448,2.7558,2.6956,2.6436,0.0,0.0,0.0,0.0,0.0,0.0,2.6527,2.9268,3.1905,3.3859,3.5118,3.5172,3.5043,3.4772,3.4145,3.3516,3.2847,3.1285,2.8352,2.4266,0.0,0.0,0.0,0.0,3.9124,4.2232,4.7169,5.0017,5.0589,4.9749,4.7868,4.4934,4.2905,4.0556,3.7821,3.6025,3.3978,3.1554,2.8468,0.0,0.0,0.0,0.0,0.0,0.0,0.0,0.0,0.0,0.0,0.0,0.0,0.0,0.0,0.0,0.0,0.0,0.0,0.0,1.9543,2.0778,2.1048,0.0,0.0,0.0,0.0,0.0,0.0,0.0,0.0,0.0,2.8928,2.9391,3.0901,0.0,0.0,3.6884,3.7276,3.6832,3.676,3.7623,0.0,0.0,0.0,3.6149,3.5689,3.502,3.5373,3.5565,3.5092,3.5515,3.5865,3.5645,3.5715,3.5409,3.4457,3.1977,3.0427,3.0621,3.0909,3.1419,3.2367,3.3335,3.4162,3.9183,3.5017,3.2015,3.0223,2.948,3.035,3.1078,3.1694,3.2654,3.2893,3.2472,3.1394,2.9856,2.7989,2.6609,0.0,0.0,0.0,3.0501,3.3442,3.5162,3.6633,3.7737,3.7651,3.7411,3.7095,3.6296,3.5715,3.5379,3.5313,3.3649,3.0579,0.0,0.0,3.3702,3.8812,4.2644,4.5073,4.8704,5.0628,5.0589,4.9544,4.7772,4.5266,4.3789,4.2106,4.0132,3.8075,3.5917,3.3592,3.0957,2.8637,0.0,0.0,0.0,0.0,0.0,0.0,0.0,0.0,0.0,0.0,0.0,1.6464,0.0,0.0,0.0,0.0,1.9391,2.1259,2.3152,2.3714,0.0,0.0,0.0,0.0,0.0,0.0,0.0,2.693,2.9722,3.1565,3.1548,3.3278,3.5005,3.6233,3.7329,3.8122,3.847,0.0,3.8057,3.8779,3.8599,3.8318,3.8089,3.7809,3.7535,3.7391,3.7485,3.7647,3.7799,3.8026,3.8273,3.8424,3.85,3.8349,3.7933,3.5868,3.4115,3.3818,3.4,3.4541,3.5375,3.6121,3.676,4.5029,4.3857,3.9472,3.696,3.5964,3.6383,3.6578,3.6636,3.6571,3.6887,3.7268,3.5347,3.44,3.4148,3.1493,0.0,0.0,3.2751,3.4664,3.7726,3.8054,3.8855,4.0011,3.9573,3.9336,3.9273,3.8433,3.7878,3.7581,3.7898,3.8149,3.8379,3.7807,3.8442,4.0389,4.389,4.6581,4.8295,5.035,5.1094,5.054,4.9267,4.8122,4.71,4.5137,4.346,4.2106,3.9791,3.7538,3.5547,3.338,3.144,2.9737,0.0,0.0,0.0,0.0,0.0,0.0,0.0,0.0,0.0,0.0,0.0,0.0,0.0,0.0,0.0,2.3645,0.0,2.655,2.6441,0.0,0.0,0.0,2.543,2.5346,2.695,2.854,2.9851,0.0,0.0,0.0,0.0,3.8722,3.8346,3.9012,3.9547,3.945,3.9489,3.9508,3.9624,3.9889,3.9903,3.9456,3.9651,3.9733,3.941,3.9185,3.9185,3.9432,3.9584,3.9736,4.0099,4.0194,4.0037,3.9584,3.9375,3.9048,3.7455,3.732,3.7592,3.7978,3.8198,3.851,4.8874,4.7976,4.6829,4.4295,4.1025,4.0777,4.0874,4.1167,4.061,4.0011,3.9319,3.8234,3.7193,3.6218,3.6178,3.674,3.7774,3.8513,3.9782,4.1439,4.1569,4.1794,4.2134,4.1741,4.135,4.0985,4.0218,4.0117,4.053,4.0407,4.1348,4.3248,4.4076,4.4198,4.3767,4.646,4.858,4.9973,5.0945,5.0976,5.0104,4.9735,4.8785,4.7141,4.622,4.4918,4.3194,4.1633,3.9855,3.7867,3.5764,3.3953,3.2415,2.9293,0.0,0.0,0.0,0.0,0.0,0.0,0.0,0.0,0.0,2.0476,2.0658,0.0,2.3866,0.0,2.589,2.7137,2.7151,2.7757,0.0,0.0,2.7689,2.8297,2.8939,3.0183,3.1593,3.3222,3.4796,3.6326,3.7746,3.9223,4.055,4.1523,4.086,4.0393,4.0704,4.1036,4.1328,4.1541,4.1659,4.1542,4.088,4.0802,4.086,4.0763,4.1152,4.1442,4.1229,4.1462,4.1694,4.1811,4.183,4.167,4.125,4.1438,4.1391,4.0665,3.9653,3.8933,3.9357,3.9928,4.0506,5.1351,5.0687,5.0687,4.8907,4.5991,4.5119,4.4914,4.5105,4.4465,4.3743,4.2974,4.1739,4.0449,3.9212,4.023,4.105,4.1667,4.2548,4.3629,4.4814,4.4488,4.445,4.4675,4.4053,4.3541,4.3066,4.2654,4.2569,4.283,4.3194,4.4398,4.6409,4.7731,4.8275,4.8168,4.9503,5.0689,5.1595,5.1631,5.1309,5.0547,5.0062,4.9043,4.7463,4.6291,4.5057,4.3647,4.1976,4.0431,3.8957,3.7306,3.5621,3.39,3.1788,3.0012,0.0,0.0,0.0,0.0,0.0,0.0,0.0,0.0,0.0,0.0,0.0,2.6691,0.0,0.0,0.0,2.9392,3.0017,3.0508,3.0675,3.0728,3.1174,3.2272,3.311,3.4245,3.5977,3.722,3.8443,3.9795,4.0798,4.1835,4.3081,4.2487,4.1876,4.1758,4.1914,4.2148,4.2363,4.2402,4.2284,4.1793,4.1872,4.1913,4.1797,4.2109,4.2363,4.2383,4.2558,4.2773,4.2929,4.3144,4.3059,4.2535,4.2702,4.2826,4.2333,4.1575,4.0977,4.0955,4.1489,4.1997,5.3119,5.271,5.2686,5.1957,5.0699,4.9369,4.8525,4.7926,4.7431,4.7062,4.6789,4.5358,4.3968,4.2829,4.3927,4.4506,4.4648,4.5569,4.6507,4.7336,4.6792,4.6648,4.6845,4.617,4.5594,4.517,4.5171,4.4996,4.4751,4.5946,4.7245,4.8653,4.9941,5.1232,5.252,5.2641,5.278,5.3036,5.2534,5.1988,5.1415,5.0476,4.9314,4.79,4.6211,4.4845,4.3853,4.191,4.0433,3.9547,3.8306,3.68,3.4923,3.3858,3.2453,0.0,2.9754,0.0,0.0,0.0,0.0,0.0,0.0,0.0,0.0,2.8169,2.9516,3.0962,3.1439,3.1853,3.2265,3.2748,3.3392,3.4235,3.3855,3.3985,3.5161,3.558,3.6461,3.8196,3.9395,4.022,4.0751,4.1828,4.288,4.3539,4.3738,4.3557,4.2958,4.2778,4.2717,4.2598,4.2558,4.2656,4.2596,4.2817,4.2857,4.2637,4.2616,4.2734,4.3204,4.3282,4.3399,4.3789,4.416,4.4171,4.3465,4.3655,4.372,4.3382,4.3255,4.3084,4.2616,4.279,4.304,5.4924,5.4827,5.4808,5.465,5.4328,5.3197,5.0681,4.7333,4.6799,4.7023,4.7753,4.7987,4.7734,4.7242,4.7817,4.7794,4.7321,4.816,4.8184,4.7408,4.7961,4.7739,4.6843,4.7028,4.693,4.6545,4.6514,4.6665,4.6895,4.7917,4.9261,5.0953,5.2022,5.3213,0.0,0.0,0.0,0.0,5.3842,5.3183,5.2007,5.1639,5.0457,4.8369,4.7422,0.0,4.4651,4.3416,4.2148,4.0737,3.9216,0.0,0.0,0.0,0.0,0.0,0.0,0.0,0.0,0.0,0.0,0.0,3.1169,3.0638,2.9643,3.0858,3.2115,3.3036,3.3503,3.3795,3.3944,3.5136,3.5614,3.4961,3.5306,3.5998,3.6874,3.6824,3.7539,3.9835,4.0355,4.1033,4.2357,4.3094,4.3514,4.375,4.4315,4.4782,4.4885,4.4356,4.3887,4.3539,4.3419,4.3437,4.3457,4.3478,4.35,4.3457,4.3457,4.3633,4.4023,4.4141,4.4277,4.4668,4.4801,4.484,4.4639,4.4695,4.4711,4.4647,4.4919,4.4841,4.37,4.3774,4.4144,5.5799,0.0,5.5506,5.5145,0.0,5.3894,5.1882,4.9198,4.9267,4.9387,4.9532,4.9691,4.9627,4.9402,4.9038,4.8765,4.8603,4.8398,4.8464,4.8706,4.8971,4.9119,4.9137,4.9442,4.9128,4.8279,4.8951,4.9224,4.9221,5.0127,5.15,5.3308,5.3834,5.4665,5.5766,5.5977,5.554,5.452,5.45,5.3786,5.2411,5.225,5.0885,4.8205,0.0,0.0,0.0,0.0,0.0,0.0,0.0,0.0,0.0,0.0,0.0,3.4064,3.3281,3.2809,3.2659,3.3014,3.3449,3.3897,3.444,3.4025,3.2315,3.3125,3.4161,3.5133,3.5416,3.5789,3.644,3.7204,3.7619,3.7608,3.7667,3.7953,3.8572,3.8898,3.9587,4.0894,4.1575,4.2281,4.3264,4.3789,4.4113,4.4335,4.4904,4.5596,4.6147,4.5431,4.4555,4.4123,4.3817,4.3695,4.3712,4.3691,4.3808,4.3984,4.4104,4.428,4.4608,4.4686,4.4764,4.4979,4.5174,4.5293,4.5057,4.5195,4.5332,4.5371,4.5527,4.5673,4.5251,4.5127,4.4911,5.67,5.6592,5.6233,5.5625,5.484,5.4319,5.3338,5.2097,0.0,0.0,0.0,5.1274,5.1194,5.1166,5.0022,4.967,4.9909,4.8979,4.9173,5.0288,5.0241,5.0701,5.1532,5.1723,5.1197,5.0181,5.124,5.158,5.1198,5.215,5.348,5.4977,5.523,5.5744,5.655,5.6515,5.6005,5.512,5.5029,5.4382,5.3028,5.2736,5.1169,4.821,4.762,4.6292,4.4091,4.3433,4.3108,4.3041,4.1833,4.0805,4.0098,3.8354,3.7025,3.6286,3.5934,3.5646,3.5449,3.606,3.6403,3.6256,3.7116,3.687,3.4987,3.5335,3.6091,3.7221,3.7263,3.7662,3.873,3.8905,3.9306,4.0225,3.9736,3.9521,4.0144,4.0686,4.123,4.2042,4.2731,4.3387,4.3905,4.4352,4.48,4.5209,4.5657,4.627,4.6948,4.6166,4.5141,4.4729,4.4341,4.3977,4.385,4.3848,4.4005,4.4297,4.4516,4.4772,4.5019,4.5115,4.5135,4.5291,4.5566,4.5605,4.5371,4.5566,4.5822,4.5879,4.592,4.6154,4.6753,4.6468,4.5901,5.8616,5.8292,5.8625,5.8451,5.7902,5.7397,5.6517,5.5384,5.3847,5.3099,5.3015,5.3499,5.3876,5.4167,5.3276,5.2921,5.3,5.3164,5.2605,0.0,5.2533,5.2529,5.1713,5.2063,5.2123,5.1955,5.2123,5.2161,5.226,5.3374,5.4409,5.5122,5.5839,5.6449,5.6897,5.6929,5.6613,5.6013,5.6009,5.5526,5.4516,5.3585,5.1934,4.9567,4.8964,4.7826,4.599,4.5003,4.4391,4.4083,4.2495,4.1287,4.0537,3.9344,3.8309,3.7613,3.7484,3.7433,3.7411,3.8179,3.8801,3.9153,3.934,3.8842,3.7542,3.7771,3.8404,3.9251,3.9018,3.9085,3.9668,4.0001,4.0292,4.0447,4.0084,4.026,4.1327,4.1074,4.1483,4.3116,4.3515,4.3935,4.47,4.5229,4.5718,4.6168,4.6722,4.7072,4.7361,4.6819,4.6088,4.5609,4.5184,4.4777,4.4343,4.4297,4.4357,4.4375,4.4767,4.514,4.5529,4.5586,4.5705,4.6035,4.6113,4.6133,4.6052,4.613,4.6328,4.656,4.6638,4.6894,4.7383,4.7355,4.7268,5.9308,5.9338,5.9321,5.9186,5.8969,5.8464,5.7959,5.7389,5.6266,5.5113,5.4185,5.4404,5.4613,5.4663,5.3401,5.2911,5.3143,5.2332,5.2105,5.2305,5.2726,5.2964,5.3134,5.3328,5.3186,5.2737,5.3209,5.3307,5.3185,5.4205,5.5279,5.6289,5.7177,5.754,5.7434,5.7145,5.6881,5.664,5.6332,5.5628,5.4384,5.3909,5.2514,5.0207,4.9928,4.8935,4.7072,4.6575,4.614,4.5727,4.4311,4.3261,4.2773,4.1217,4.0072,3.9579,3.9323,3.9232,3.9262,3.9849,4.0274,4.0514,4.0937,4.0963,4.0397,3.9878,3.9757,4.0145,3.9997,4.0195,4.0859,4.1113,4.1289,4.1523,4.1346,4.1482,4.1991,4.2087,4.2422,4.3495,4.3934,4.4499,4.5576,4.6127,4.6823,4.7667,4.8292,4.8505,4.8149,4.7977,4.7284,4.5986,4.5339,4.4888,4.4502,4.4456,4.4672,4.5021,4.5443,4.5756,4.6002,4.6016,4.6094,4.625,4.6308,4.6308,4.6308,4.6504,4.6697,4.6833,4.7148,4.7444,4.7815,4.8109,4.8206,6.0028,6.0139,5.9918,5.97,5.9519,5.9013,5.8776,5.8728,5.8199,5.7105,5.5751,5.5347,5.5184,5.5128,5.3708,5.334,5.3511,5.2304,5.2317,5.3332,5.3194,5.3522,5.4259,5.4398,5.4026,5.3465,5.4204,5.4434,5.432,5.5143,5.6192,5.7385,5.8229,5.8271,5.7646,5.7193,5.7001,5.6977,5.6592,5.5787,5.4543,5.4227,5.3042,5.1199,5.0801,4.9869,4.8244,4.7905,4.7602,4.7212,4.6013,4.5131,4.4697,4.3153,4.1967,4.1466,4.1128,4.1045,4.1209,4.1387,4.167,4.1966,4.2501,4.2868,4.2764,4.1973,4.1331,4.1226,4.1189,4.1386,4.1935,4.1993,4.205,4.2363,4.2402,4.2442,4.2679,4.3094,4.3653,4.4179,4.4762,4.5555,4.6329,4.6965,4.7666,4.8596,4.9506,4.9512,4.8815,4.8811,4.8037,4.6629,4.5669,4.5294,4.4839,4.479,4.5083,4.5668,4.6015,4.6191,4.6276,4.6289,4.6289,4.6308,4.6308,4.6308,4.6328,4.6501,4.6794,4.7009,4.7366,4.7715,4.8284,4.8597,4.8753,6.1445,6.0848,6.1082,6.082,6.009,5.9567,5.9305,5.9278,5.8752,5.8443,5.8025,5.6848,5.6435,5.6717,5.6176,5.6077,5.6454,5.6414,5.5946,5.5395,5.5396,5.5023,5.4467,5.4413,5.4352,5.4332,5.4852,5.5327,5.5695,5.6619,5.7331,5.778,5.8347,5.8103,5.7193,5.7049,5.7001,5.7001,5.6953,5.662,5.597,5.4803,5.3638,5.2541,5.1712,5.0826,4.969,4.8814,4.8308,4.8176,4.6952,4.5885,4.5198,4.4607,4.3845,4.2853,4.2719,4.2849,4.3229,4.3033,4.3344,4.4473,4.4321,4.4206,4.4189,4.4108,4.3851,4.3437,4.3042,4.2804,4.2962,4.2583,4.2422,4.256,4.252,4.2699,4.3516,4.3999,4.4724,4.592,4.6595,4.7334,4.7187,4.7763,4.8242,4.8688,4.9385,4.9658,4.9127,4.8728,4.8244,4.7214,4.6796,4.6393,4.5705,4.5568,4.5609,4.5725,4.6059,4.6254,4.6289,4.6308,4.6308,4.6308,4.6308,4.6308,4.6348,4.6387,4.6699,4.7363,4.7679,4.7894,4.8578,4.8874,4.8855,6.1548,6.1216,6.1133,6.0733,6.021,5.9952,5.9879,5.9831,5.9326,5.9085,5.89,5.7776,5.7341,5.7438,5.6965,5.6841,5.7001,5.7001,5.6702,5.6141,5.5856,5.5368,5.4844,5.4518,5.4676,5.5263,5.5494,5.5997,5.6781,5.7686,5.818,5.8282,5.8512,5.8223,5.7482,5.7169,5.7001,5.7001,5.7001,5.6761,5.6268,5.5253,5.4344,5.3588,5.2754,5.1821,5.0884,5.0398,4.9897,4.9286,4.8271,4.7495,4.6939,4.6305,4.5651,4.4989,4.4913,4.4985,4.5174,4.477,4.4879,4.5724,4.5625,4.5395,4.5198,4.5851,4.5977,4.4926,4.38,4.3101,4.3116,4.2934,4.3032,4.345,4.357,4.3914,4.4764,4.5048,4.5595,4.6568,4.7038,4.747,4.7799,4.8611,4.9393,4.9782,5.0125,4.987,4.9508,4.9085,4.8448,4.7678,4.742,4.6849,4.5874,4.5642,4.5781,4.5996,4.6172,4.6308,4.6308,4.6308,4.6308,4.6308,4.6328,4.6445,4.6638,4.6933,4.7266,4.7835,4.8245,4.8522,4.8855,4.8894,4.8894,6.2057,6.1844,6.1321,6.0827,6.043,6.0409,6.0358,6.0168,5.9783,5.9615,5.9543,5.8632,5.8247,5.8151,5.753,5.7217,5.7217,5.7217,5.6917,5.6411,5.5927,5.5502,5.5134,5.493,5.5176,5.5875,5.6322,5.6989,5.7874,5.8691,5.9018,5.8852,5.8824,5.856,5.8031,5.7622,5.7361,5.7241,5.7217,5.6969,5.6378,5.5602,5.4896,5.4228,5.3528,5.2648,5.1664,5.1461,5.0941,4.998,4.9227,4.8649,4.8116,4.7545,4.7007,4.6523,4.6349,4.6354,4.6461,4.6149,4.6114,4.646,4.6585,4.6478,4.6282,4.7026,4.7174,4.6188,4.4825,4.4038,4.3834,4.3809,4.4069,4.4514,4.4737,4.5228,4.5759,4.6022,4.6548,4.7213,4.7851,4.8144,4.8875,4.9662,5.0285,5.0459,5.0336,5.0061,4.9636,4.9251,4.8781,4.8047,4.7876,4.728,4.5989,4.5794,4.6016,4.6152,4.6308,4.6308,4.6308,4.6308,4.6308,4.6308,4.6367,4.6543,4.6775,4.7226,4.7715,4.8125,4.8538,4.8855,4.8894,4.8894,4.8894,6.3433,6.2899,6.2095,6.1416,6.0959,6.0935,6.0649,6.024,6.0144,6.0144,6.0048,5.9519,5.9326,5.9209,5.8247,5.779,5.779,5.7766,5.7322,5.6563,5.6011,5.555,5.5233,5.5626,5.5873,5.6226,5.733,5.8388,5.9307,5.9823,5.9859,5.9398,5.9329,5.9065,5.8608,5.8464,5.8247,5.7794,5.777,5.7329,5.6501,5.596,5.5275,5.441,5.39,5.3196,5.2277,5.1687,5.1032,5.004,4.9639,4.8966,4.824,4.8087,4.7688,4.7035,4.6585,4.6523,4.6883,4.691,4.6943,4.7048,4.7409,4.7438,4.7009,4.7485,4.7527,4.7048,4.6453,4.5963,4.5596,4.5288,4.5184,4.5024,4.5758,4.6168,4.6368,4.7095,4.7673,4.8325,4.9231,4.9978,5.0728,5.0897,5.0542,5.0143,4.9829,4.9678,4.9337,4.9144,4.8866,4.8501,4.8221,4.7856,4.6599,4.6281,4.6298,4.6289,4.6308,4.6308,4.6308,4.6308,4.6308,4.6406,4.6599,4.6794,4.695,4.7305,4.7793,4.8223,4.8617,4.8832,4.8894,4.8894,4.8894,6.3383,6.266,6.2041,6.1662,6.1491,6.1152,6.0887,6.0673,6.0337,6.0213,6.0096,5.9639,5.9591,5.9855,5.9158,5.8632,5.8319,5.8319,5.7969,5.7389,5.6895,5.6616,5.6566,5.6391,5.6826,5.7686,5.823,5.8995,5.9871,6.0129,6.012,5.9879,5.9567,5.9281,5.9085,5.8752,5.8488,5.8343,5.8319,5.7877,5.7033,5.6808,5.614,5.4935,5.4406,5.3842,5.3196,5.2969,5.2427,5.1515,5.101,5.0373,4.9511,4.8889,4.8634,4.8579,4.8226,4.8039,4.8151,4.8235,4.8251,4.8221,4.8405,4.8311,4.8003,4.8213,4.8233,4.763,4.7361,4.7134,4.6803,4.5963,4.533,4.5494,4.6004,4.6861,4.7776,4.8323,4.8773,4.948,5.0249,5.0727,5.105,5.1318,5.1221,5.0714,5.0336,4.9955,4.955,4.9273,4.893,4.8565,4.8393,4.8135,4.7398,4.69,4.6702,4.6418,4.6308,4.6328,4.6328,4.6384,4.6404,4.6697,4.6931,4.7243,4.7477,4.7949,4.8363,4.8499,4.8851,4.8851,4.8894,4.8894,4.8894,6.358,6.2765,6.2418,6.2095,6.1758,6.1419,6.1034,6.0743,6.0382,6.0213,6.012,5.9807,5.9879,6.0096,5.9807,5.947,5.9113,5.8945,5.8602,5.8138,5.7642,5.7464,5.7511,5.7317,5.7733,5.862,5.9046,5.9563,6.0147,6.0213,6.0213,6.0189,5.9807,5.9663,5.9591,5.9302,5.9041,5.8917,5.8869,5.8365,5.7458,5.7331,5.6711,5.5572,5.4923,5.4347,5.3747,5.3701,5.317,5.2214,5.176,5.1182,5.0287,4.9659,4.9497,4.9759,4.9521,4.9344,4.9348,4.9389,4.9281,4.8978,4.9119,4.8982,4.8484,4.8777,4.8692,4.8274,4.7983,4.7921,4.7713,4.6825,4.6168,4.641,4.696,4.7779,4.8842,4.9235,4.9761,5.0377,5.0703,5.0986,5.1247,5.1448,5.137,5.1139,5.0591,5.0019,4.9742,4.9358,4.9016,4.8715,4.8837,4.8703,4.8224,4.7829,4.739,4.7063,4.635,4.6333,4.6601,4.6599,4.6694,4.7028,4.736,4.7712,4.8144,4.8636,4.8812,4.8894,4.8894,4.8894,4.8894,4.8894,4.8894,6.4107,6.329,6.3277,6.2626,6.1855,6.1686,6.1133,6.0385,6.024,6.0213,6.0213,6.0144,6.0165,6.0213,6.012,6.0165,5.9976,5.9591,5.9191,5.8769,5.8227,5.8068,5.8228,5.8447,5.8638,5.8891,5.9697,6.0147,6.0192,6.0213,6.0213,6.0192,6.0189,6.0096,6.0168,6.0048,5.9855,5.9519,5.9422,5.8768,5.7506,5.7449,5.6989,5.6034,5.5516,5.4852,5.3885,5.3753,5.3121,5.194,5.1691,5.1199,5.0576,5.024,5.0284,5.0263,5.0284,5.0262,5.0241,5.0243,4.9879,4.9308,4.9464,4.9343,4.8712,4.8833,4.9041,4.8894,4.8647,4.8398,4.8441,4.8296,4.8019,4.7831,4.8563,4.921,4.9346,4.9823,5.0503,5.0981,5.1135,5.1288,5.1554,5.1496,5.1244,5.1013,5.0485,4.9934,4.9785,4.9465,4.9166,4.9226,4.9325,4.9315,4.9028,4.8716,4.8231,4.7705,4.6838,4.6404,4.7001,4.7204,4.7285,4.7539,4.7891,4.8242,4.8418,4.8832,4.8832,4.8894,4.8894,4.8894,4.8894,4.8894,4.8894,6.3851,6.3254,6.2948,6.2432,6.1782,6.1419,6.101,6.0697,6.0361,6.0213,6.0213,6.0213,6.0213,6.0213,6.0213,6.0213,6.0213,6.0024,5.9868,5.9622,5.917,5.9132,5.9407,5.9296,5.9383,5.9715,6.0012,6.0213,6.0213,6.0213,6.0213,6.0213,6.0213,6.0213,6.0213,6.0192,6.0072,5.9976,5.9952,5.9542,5.8853,5.8469,5.7865,5.7011,5.6445,5.5885,5.5245,5.4289,5.3427,5.2628,5.2343,5.189,5.1347,5.0656,5.0482,5.0763,5.048,5.0305,5.0349,5.0613,5.0439,4.98,4.9911,4.9723,4.9044,4.8997,4.9102,4.9103,4.8963,4.8965,4.9238,4.9295,4.9097,4.8633,4.9236,4.9989,5.0345,5.0922,5.1333,5.1529,5.1572,5.166,5.1747,5.1581,5.1413,5.1139,5.0781,5.0506,5.0167,4.9783,4.9696,4.9925,5.0003,5.0013,4.9915,4.9641,4.9195,4.8471,4.7533,4.6953,4.7466,4.7815,4.7874,4.803,4.8402,4.8617,4.8812,4.8894,4.8894,4.8894,4.8894,4.8894,4.8894,4.8894,4.8894,6.3722,6.3257,6.2803,6.2309,6.1758,6.1227,6.0866,6.0673,6.0337,6.0213,6.0213,6.0213,6.0213,6.0213,6.0213,6.0213,6.0213,6.0213,6.0213,6.0189,5.9879,5.9903,6.0144,5.9879,5.9831,6.0144,6.0213,6.0213,6.0213,6.0213,6.0213,6.0213,6.0213,6.0213,6.0213,6.0213,6.0213,6.0213,6.0192,5.9877,5.9327,5.8967,5.8356,5.75,5.6951,5.6443,5.5887,5.4715,5.3884,5.3371,5.2631,5.2063,5.1768,5.1223,5.1004,5.1179,5.1092,5.0873,5.0895,5.1179,5.0958,5.0228,5.023,4.9998,4.9315,4.9102,4.9144,4.9274,4.9299,4.9575,5.0058,5.0221,5.013,5.0088,5.0165,5.0563,5.1246,5.1616,5.1769,5.1769,5.177,5.1792,5.1792,5.1602,5.1455,5.1161,5.0931,5.0783,5.0421,5.014,5.0263,5.0383,5.0414,5.0553,5.0805,5.0552,5.0101,4.9261,4.8336,4.7984,4.806,4.8288,4.8408,4.8464,4.8718,4.8734,4.8894,4.8894,4.8894,4.8894,4.8952,4.8894,4.8894,4.8894,4.8894,6.3672,6.3225,6.2793,6.2239,6.1686,6.1203,6.0697,6.0285,6.0216,6.0213,6.0213,6.0213,6.0213,6.0213,6.0213,6.0213,6.0213,6.0213,6.0213,6.0237,6.0192,6.0264,6.0168,6.012,6.0144,6.0213,6.0213,6.0213,6.0213,6.0213,6.0213,6.0213,6.0213,6.0213,6.0213,6.0213,6.0213,6.0213,6.015,5.9687,5.8946,5.8733,5.8391,5.7573,5.7098,5.6566,5.6069,5.5103,5.4334,5.3782,5.2582,5.1942,5.1856,5.1813,5.1725,5.1725,5.1791,5.1682,5.1726,5.1661,5.1306,5.0463,5.0315,5.0019,4.9273,4.9166,4.9315,4.9593,4.9764,5.0125,5.0801,5.1052,5.122,5.1599,5.1228,5.1311,5.1682,5.1791,5.1793,5.1793,5.1793,5.1793,5.1793,5.1499,5.1395,5.1249,5.1018,5.0888,5.0672,5.0603,5.0477,5.0596,5.0744,5.0966,5.1175,5.1145,5.0713,5.0175,4.9352,4.9128,4.8637,4.8669,4.8744,4.8796,4.8874,4.8913,4.8929,4.8949,4.9031,4.9109,4.907,4.8952,4.8929,4.8988,4.8988,6.3217,6.2768,6.2648,6.2069,6.1251,6.1055,6.0673,6.0261,6.0237,6.0213,6.0213,6.0213,6.0213,6.0213,6.0213,6.0213,6.0213,6.0213,6.0213,6.0264,6.0625,6.0505,6.0264,6.0216,6.0216,6.0261,6.024,6.0213,6.0213,6.0216,6.0237,6.0213,6.0216,6.0237,6.0213,6.0216,6.0213,6.015,5.9835,5.9602,5.9264,5.8583,5.8199,5.7984,5.7504,5.7048,5.6506,5.5278,5.4207,5.34,5.2746,5.2314,5.2292,5.2009,5.1835,5.1857,5.1792,5.1792,5.1792,5.1792,5.1371,5.0527,5.0485,5.004,4.9187,4.938,4.9572,4.9827,5.0273,5.0802,5.1097,5.1413,5.1687,5.1749,5.1682,5.166,5.1791,5.1792,5.1794,5.1779,5.1818,5.1818,5.1865,5.1952,5.2017,5.1998,5.1874,5.1636,5.1291,5.1046,5.0939,5.0919,5.1065,5.1303,5.1458,5.1496,5.1308,5.0921,5.0489,5.0319,4.9613,4.898,4.8927,4.8894,4.8968,4.9027,4.9086,4.9125,4.9246,4.9468,4.9402,4.9359,4.9242,4.9219,4.9222,6.3155,6.2865,6.2432,6.2023,6.1587,6.0938,6.0601,6.0481,6.0288,6.0213,6.0213,6.0213,6.0213,6.0213,6.0213,6.0213,6.0213,6.0213,6.0213,6.024,6.0481,6.0697,6.077,6.0697,6.0625,6.0794,6.0409,6.0481,6.0721,6.0457,6.0433,6.0721,6.0409,6.0333,6.055,6.0288,6.0213,6.0129,5.9726,5.941,5.9155,5.8498,5.8027,5.7856,5.7577,5.721,5.645,5.5288,5.4193,5.3385,5.2948,5.2796,5.2773,5.2358,5.2184,5.2337,5.2053,5.1878,5.2053,5.2075,5.165,5.0972,5.0825,5.0507,4.9912,4.9891,5.004,5.0358,5.0823,5.1226,5.1652,5.1948,5.2075,5.2097,5.2118,5.2075,5.2118,5.2118,5.2078,5.208,5.2101,5.2098,5.2104,5.2191,5.2322,5.2368,5.2152,5.1977,5.1759,5.1551,5.1342,5.1276,5.1313,5.1529,5.1603,5.1597,5.1322,5.0977,5.0532,5.0581,5.0036,4.916,4.8986,4.891,4.9046,4.9183,4.9261,4.9461,4.9801,4.9918,4.9871,4.9809,4.9687,4.9531,4.9512,6.3277,6.3229,6.2338,6.2167,6.2215,6.101,6.0646,6.0743,6.0385,6.024,6.0309,6.024,6.0264,6.0264,6.0264,6.0213,6.0213,6.0213,6.0285,6.0333,6.0544,6.0969,6.1834,6.1029,6.117,6.1505,6.0764,6.1002,6.1336,6.0878,6.0938,6.1275,6.0745,6.0598,6.0743,6.0433,6.0237,6.0129,5.9726,5.9367,5.8986,5.8455,5.7984,5.7728,5.7275,5.6821,5.6037,5.5137,5.4303,5.3429,5.3298,5.3276,5.3211,5.2861,5.2773,5.2927,5.2469,5.2228,5.2468,5.2555,5.2233,5.1528,5.1637,5.1488,5.0805,5.0719,5.0868,5.1058,5.1205,5.1695,5.2189,5.249,5.2555,5.2555,5.2598,5.2577,5.2621,5.2599,5.2555,5.2577,5.2555,5.2577,5.2471,5.2259,5.2132,5.2671,5.2449,5.2093,5.1915,5.1683,5.1539,5.1446,5.1569,5.1731,5.1725,5.1723,5.127,5.0836,5.0182,4.9914,4.968,4.9143,4.8975,4.8929,4.9007,4.9203,4.95,4.982,5.0216,5.0392,5.0301,5.0278,5.0215,5.0,4.9926,6.3277,6.3299,6.3083,6.2578,6.1975,6.159,6.1034,6.0409,6.0288,6.0457,6.0649,6.0385,6.0433,6.0767,6.0361,6.0213,6.0237,6.0261,6.0385,6.0857,6.1153,6.1932,6.2377,6.1368,6.1223,6.181,6.1304,6.1395,6.1928,6.1765,6.1563,6.1662,6.1275,6.0911,6.0959,6.0577,6.0213,6.0129,5.975,5.9473,5.9177,5.8519,5.8027,5.7793,5.6951,5.6168,5.5599,5.5005,5.4587,5.4325,5.3997,5.3757,5.3669,5.3298,5.3167,5.3167,5.3058,5.2905,5.3036,5.3036,5.2821,5.2282,5.2261,5.2132,5.17,5.1852,5.1853,5.183,5.1977,5.2275,5.2512,5.2861,5.3014,5.3058,5.3036,5.3189,5.3429,5.3255,5.308,5.3058,5.3058,5.3058,5.3037,5.2931,5.2865,5.2971,5.2659,5.2226,5.1996,5.1833,5.1697,5.1584,5.1667,5.1746,5.1497,5.1338,5.0816,5.0509,4.9983,4.964,4.9404,4.9308,4.9246,4.9066,4.891,4.9265,4.9832,5.0043,5.0438,5.0594,5.0731,5.0707,5.0625,5.043,5.0293,6.3085,6.3253,6.2819,6.2456,6.2119,6.166,6.1251,6.0938,6.067,6.0743,6.0911,6.0694,6.0601,6.0598,6.0358,6.0213,6.0285,6.0502,6.0993,6.1616,6.1972,6.2595,6.3154,6.2277,6.1938,6.2843,6.1947,6.1976,6.2454,6.2247,6.2001,6.2386,6.178,6.1587,6.1563,6.0962,6.0625,6.042,5.9867,5.9515,5.9346,5.8605,5.7813,5.7382,5.6407,5.5642,5.5423,5.4961,5.4741,5.4631,5.4434,5.4259,5.4194,5.3822,5.3691,5.3822,5.3364,5.3364,5.3451,5.3495,5.3343,5.2888,5.3018,5.2888,5.2671,5.2736,5.2714,5.2562,5.2646,5.2817,5.2861,5.3255,5.3495,5.3538,5.3495,5.3757,5.4062,5.3844,5.3538,5.3538,5.3538,5.3538,5.3496,5.343,5.3383,5.3359,5.2715,5.2324,5.221,5.2048,5.178,5.1688,5.175,5.1656,5.1316,5.0884,5.0288,5.0019,4.9802,4.9662,4.9574,4.9562,4.9574,4.9476,4.9437,4.9844,5.0332,5.0527,5.0664,5.0937,5.1074,5.1069,5.103,5.0913,5.0781,6.2939,6.3229,6.2362,6.2263,6.243,6.1684,6.1491,6.1638,6.1227,6.1031,6.1034,6.1007,6.0577,6.0385,6.024,6.0216,6.0379,6.0891,6.1541,6.2042,6.2428,6.3077,6.3497,6.3094,6.2889,6.3766,6.2577,6.2521,6.2924,6.2598,6.2554,6.3011,6.2362,6.2095,6.2215,6.166,6.1106,6.0994,6.0307,5.9899,5.9658,5.8827,5.7834,5.6734,5.6123,5.5489,5.5247,5.4895,5.4696,5.4696,5.4696,5.4696,5.4565,5.4346,5.4194,5.4631,5.391,5.3779,5.3953,5.3997,5.3866,5.3473,5.3757,5.3822,5.3539,5.3452,5.3386,5.3321,5.3298,5.3298,5.3298,5.3735,5.3975,5.4019,5.3997,5.4237,5.4478,5.4281,5.4084,5.4019,5.4041,5.4041,5.3888,5.3734,5.373,5.3592,5.292,5.2424,5.2289,5.2154,5.1863,5.1729,5.1771,5.1361,5.0975,5.0739,5.0075,4.9885,4.9713,4.9898,4.9957,5.0204,5.0273,5.0141,5.0195,5.0492,5.0571,5.0547,5.0781,5.1206,5.1265,5.1089,5.1187,5.1358,5.1206,6.3251,6.3277,6.3109,6.2891,6.2576,6.2381,6.2095,6.1734,6.1275,6.1275,6.1515,6.077,6.0622,6.0646,6.0361,6.0216,6.0445,6.116,6.1729,6.2163,6.269,6.3473,6.3665,6.3451,6.3445,6.3579,6.3007,6.297,6.3464,6.3376,6.3035,6.3155,6.2768,6.2576,6.2456,6.1999,6.1662,6.159,6.1026,6.0696,6.0411,5.925,5.7794,5.6474,5.5927,5.5467,5.4961,5.4763,5.4696,5.4696,5.4696,5.4696,5.4675,5.4565,5.4587,5.4609,5.4456,5.4325,5.4456,5.45,5.4522,5.4478,5.4456,5.45,5.439,5.439,5.4106,5.3888,5.38,5.3757,5.3648,5.415,5.4478,5.4543,5.4521,5.4565,5.4653,5.4587,5.45,5.4456,5.4478,5.4456,5.4236,5.3907,5.3681,5.3366,5.2783,5.2288,5.204,5.1949,5.1816,5.1771,5.1791,5.1202,5.0588,5.0379,5.0046,5.0,4.9996,5.0431,5.059,5.0976,5.103,5.0723,5.054,5.0612,5.0627,5.0681,5.0699,5.0987,5.1006,5.1011,5.1226,5.1397,5.1397,6.3083,6.3253,6.3035,6.2817,6.2624,6.26,6.2456,6.2165,6.1638,6.1542,6.1494,6.0986,6.0574,6.055,6.0382,6.0358,6.0845,6.1668,6.2224,6.2669,6.3479,6.3865,6.3959,6.3678,6.3608,6.3532,6.3215,6.3169,6.3562,6.341,6.3299,6.3253,6.3035,6.2963,6.2865,6.248,6.2239,6.2095,6.171,6.1398,6.1176,5.9562,5.7702,5.6474,5.5643,5.5159,5.4851,5.4696,5.4696,5.4696,5.4696,5.4696,5.4696,5.4696,5.4696,5.4696,5.4696,5.4696,5.4696,5.4696,5.4675,5.4675,5.4696,5.4696,5.4696,5.4631,5.4565,5.4412,5.4303,5.4281,5.4259,5.4521,5.4652,5.4696,5.4696,5.4696,5.4696,5.4696,5.4675,5.4676,5.4631,5.4565,5.4498,5.4121,5.3652,5.3159,5.2643,5.2281,5.1919,5.1936,5.1998,5.173,5.1635,5.1011,5.0452,5.0265,5.0192,5.0142,5.0269,5.0723,5.0957,5.1187,5.1226,5.105,5.0931,5.109,5.1193,5.1398,5.1095,5.0729,5.0792,5.0933,5.1201,5.1397,5.1397,6.2961,6.3275,6.2891,6.2744,6.2744,6.2744,6.2694,6.2504,6.2165,6.1828,6.1566,6.1179,6.0743,6.0481,6.0553,6.0815,6.1267,6.2266,6.2961,6.3305,6.4141,6.4437,6.409,6.3851,6.3723,6.3651,6.3538,6.342,6.3368,6.3324,6.3299,6.3277,6.3277,6.3277,6.3179,6.2891,6.2747,6.2445,6.2085,6.1778,6.0884,5.933,5.7583,5.6325,5.5336,5.4851,5.4719,5.4696,5.4696,5.4696,5.4696,5.4696,5.4696,5.4696,5.4696,5.4696,5.4696,5.4696,5.4696,5.4696,5.4696,5.4696,5.4696,5.4696,5.4696,5.4696,5.4675,5.4696,5.4675,5.4653,5.4587,5.4675,5.4696,5.4696,5.4696,5.4696,5.4696,5.4696,5.4696,5.4697,5.4696,5.4674,5.4606,5.4207,5.3716,5.3455,5.2958,5.2719,5.2421,5.2352,5.2259,5.1787,5.1398,5.0805,5.0387,5.0247,5.0287,5.0427,5.062,5.1011,5.1109,5.1206,5.1206,5.1274,5.1942,5.2092,5.2107,5.1848,5.1328,5.0927,5.0775,5.085,5.1245,5.1377,5.1397,6.3253,6.3277,6.3251,6.3205,6.3157,6.3179,6.2939,6.2576,6.243,6.1948,6.1248,6.101,6.0911,6.0959,6.135,6.159,6.2089,6.294,6.3454,6.3484,6.422,6.4418,6.3961,6.352,6.3767,6.3876,6.395,6.371,6.3494,6.3374,6.3325,6.3349,6.3348,6.3277,6.3277,6.3179,6.3006,6.2577,6.206,6.1235,6.0065,5.8877,5.7791,5.6773,5.5866,5.5181,5.4916,5.4849,5.4762,5.4762,5.4718,5.4696,5.4696,5.4696,5.4696,5.4696,5.4696,5.4696,5.4696,5.4696,5.4696,5.4696,5.4696,5.4696,5.4696,5.4696,5.4696,5.4696,5.4696,5.4696,5.4696,5.4696,5.4696,5.4696,5.4696,5.4696,5.4696,5.4718,5.4696,5.4762,5.4784,5.4782,5.4736,5.427,5.3803,5.3563,5.3338,5.3053,5.2835,5.27,5.24,5.1903,5.1307,5.071,5.0305,5.0157,5.034,5.0586,5.0859,5.1148,5.1167,5.1167,5.1284,5.1541,5.2254,5.2579,5.2256,5.1829,5.1388,5.1226,5.1173,5.1189,5.1284,5.1362,5.1499,6.3277,6.3277,6.3277,6.3155,6.2913,6.2913,6.2624,6.2143,6.1828,6.1612,6.1323,6.0745,6.0697,6.1104,6.1542,6.1951,6.2432,6.3432,6.3679,6.3572,6.4146,6.4311,6.3793,6.3701,6.3949,6.4165,6.4333,6.4261,6.3925,6.3758,6.3734,6.3684,6.3468,6.3277,6.3277,6.3277,6.3012,6.2585,6.2062,6.1265,6.0157,5.9124,5.8184,5.7245,5.6309,5.5752,5.5485,5.5199,5.5111,5.5024,5.4871,5.4696,5.4696,5.4696,5.4696,5.4696,5.4696,5.4696,5.4696,5.4696,5.4696,5.4696,5.4696,5.4696,5.4696,5.4696,5.4696,5.4696,5.4696,5.4696,5.4696,5.4696,5.4696,5.4718,5.4828,5.4784,5.4784,5.474,5.4718,5.4805,5.4914,5.4955,5.484,5.4218,5.3879,5.3813,5.3457,5.3038,5.284,5.2691,5.234,5.1938,5.129,5.0632,5.0303,5.0089,5.0347,5.0581,5.081,5.104,5.1074,5.1133,5.1362,5.1643,5.2203,5.2319,5.2204,5.2112,5.1888,5.1741,5.1634,5.1604,5.1555,5.1774,5.1833,6.3229,6.3131,6.3131,6.2937,6.2622,6.26,6.2312,6.1782,6.1612,6.1515,6.1443,6.1058,6.1034,6.1323,6.1903,6.248,6.2834,6.3701,6.3684,6.3773,6.4073,6.4212,6.3923,6.3925,6.4237,6.4477,6.4694,6.4742,6.455,6.4213,6.3973,6.3925,6.3446,6.3301,6.3277,6.3257,6.3036,6.2345,6.174,6.1081,6.0331,5.9473,5.8661,5.7783,5.6951,5.6274,5.6187,5.5636,5.5395,5.5286,5.4915,5.4696,5.4696,5.4696,5.4696,5.4696,5.4696,5.4696,5.4696,5.4696,5.4696,5.4696,5.4696,5.4696,5.4696,5.4696,5.4696,5.4696,5.4696,5.4696,5.4718,5.4784,5.4981,5.5024,5.509,5.5046,5.5046,5.5111,5.5221,5.5351,5.5415,5.5278,5.4963,5.4228,5.3929,5.3993,5.364,5.3107,5.2969,5.2915,5.2592,5.2246,5.1511,5.0909,5.0557,5.0358,5.0514,5.0736,5.0945,5.1269,5.1571,5.1554,5.1623,5.1961,5.2215,5.2447,5.2548,5.2491,5.2429,5.2414,5.2327,5.1936,5.1902,5.2073,5.2027,6.3035,6.2624,6.2648,6.2622,6.2552,6.26,6.2309,6.1855,6.2215,6.1855,6.1371,6.19,6.2047,6.2047,6.2578,6.3083,6.3272,6.4238,6.3956,6.3826,6.4139,6.4294,6.412,6.4189,6.4574,6.5175,6.5197,6.5221,6.5173,6.4333,6.3901,6.3422,6.3492,6.3372,6.3283,6.3268,6.2844,6.2105,6.1316,6.0772,6.027,5.9635,5.8978,5.8571,5.758,5.675,5.6727,5.5992,5.5527,5.5505,5.5046,5.4828,5.4828,5.474,5.4718,5.4915,5.474,5.4784,5.4871,5.4849,5.474,5.4718,5.4696,5.474,5.4828,5.474,5.4718,5.4806,5.4893,5.4849,5.4937,5.5046,5.5352,5.5551,5.5616,5.5613,5.5657,5.5744,5.5854,5.5962,5.5915,5.5735,5.5391,5.4697,5.4326,5.4389,5.4045,5.3507,5.3552,5.3471,5.3073,5.2603,5.1854,5.1282,5.0892,5.0868,5.1036,5.1276,5.1498,5.2008,5.2475,5.2387,5.2093,5.199,5.2215,5.2575,5.2828,5.2655,5.2698,5.3062,5.2955,5.2287,5.199,5.2089,5.1926,6.2768,6.2552,6.2239,6.2095,6.2165,6.2456,6.2287,6.1879,6.1999,6.1903,6.1518,6.2504,6.2768,6.26,6.2891,6.3277,6.3388,6.3914,6.3763,6.3697,6.3901,6.4168,6.4153,6.4453,6.4814,6.5199,6.527,6.5005,6.4574,6.4261,6.4117,6.3828,6.3804,6.3804,6.3715,6.3291,6.2728,6.2182,6.1205,6.0523,6.0341,5.9863,5.9295,5.8907,5.8337,5.7564,5.72,5.6623,5.6182,5.5788,5.5374,5.5199,5.509,5.4893,5.5024,5.533,5.5068,5.5068,5.5352,5.5286,5.5133,5.5046,5.4915,5.4849,5.509,5.5133,5.5133,5.5221,5.5374,5.5396,5.5332,5.5593,5.5899,5.6121,5.6208,5.6204,5.6224,5.629,5.6377,5.6464,5.633,5.6106,5.5692,5.5231,5.4965,5.4761,5.4346,5.4015,5.3978,5.3736,5.3257,5.2752,5.2003,5.1424,5.1038,5.125,5.1549,5.1817,5.208,5.2551,5.3019,5.2884,5.2619,5.2419,5.2235,5.2547,5.2716,5.2712,5.2903,5.3228,5.2916,5.2271,5.2117,5.2124,5.1952,6.26,6.2552,6.236,6.2167,6.2095,6.2432,6.2384,6.2047,6.1879,6.1662,6.1662,6.2698,6.3035,6.2841,6.3083,6.3277,6.341,6.3741,6.3653,6.3725,6.3936,6.4207,6.4515,6.4814,6.5197,6.5221,6.5197,6.4982,6.4526,6.4046,6.4093,6.4237,6.4333,6.4333,6.4131,6.3453,6.2791,6.2189,6.1438,6.0615,6.0478,6.0136,5.9703,5.9269,5.8719,5.8235,5.7688,5.7085,5.6619,5.6247,5.5897,5.5657,5.5482,5.5439,5.5527,5.5613,5.5635,5.546,5.5788,5.5854,5.5592,5.557,5.5395,5.5373,5.5504,5.5592,5.5613,5.5635,5.5897,5.6007,5.5791,5.6051,5.6313,5.6514,5.6731,5.677,5.6726,5.677,5.6857,5.6945,5.6765,5.6607,5.5893,5.5402,5.4803,5.462,5.4458,5.4204,5.4206,5.3808,5.3161,5.2631,5.2051,5.1534,5.1139,5.1536,5.1972,5.2442,5.27,5.3008,5.3294,5.3224,5.302,5.2676,5.2555,5.2591,5.2543,5.2459,5.286,5.3357,5.2904,5.2383,5.2241,5.2243,5.2168,6.2576,6.267,6.2989,6.2915,6.2576,6.2576,6.2552,6.2432,6.2047,6.1662,6.1539,6.2723,6.3083,6.2841,6.3155,6.3277,6.3366,6.3697,6.3697,6.3595,6.4112,6.4621,6.4948,6.5221,6.5342,6.5486,6.527,6.4958,6.4718,6.3997,6.4069,6.4646,6.4886,6.4886,6.4796,6.3929,6.2955,6.2022,6.1463,6.0936,6.0546,6.0386,6.0091,5.9589,5.9199,5.8762,5.8213,5.7532,5.7065,5.6756,5.6358,5.6116,5.605,5.5963,5.605,5.6181,5.6094,5.605,5.6115,5.6093,5.6138,5.6072,5.5875,5.5919,5.6028,5.6071,5.6094,5.6116,5.6269,5.6202,5.6269,5.6487,5.6728,5.6903,5.7121,5.7207,5.7141,5.7141,5.7207,5.7228,5.729,5.7169,5.6311,5.5499,5.4699,5.4364,5.4385,5.4366,5.4357,5.3927,5.3281,5.2728,5.2201,5.1869,5.1619,5.197,5.2399,5.292,5.3331,5.3566,5.3716,5.3791,5.3476,5.2936,5.2692,5.2611,5.237,5.2153,5.2535,5.2848,5.2968,5.2655,5.2509,5.2372,5.2311,6.2432,6.3011,6.2506,6.2578,6.2963,6.272,6.26,6.2552,6.243,6.2384,6.26,6.3179,6.3251,6.3179,6.3179,6.3324,6.339,6.339,6.3368,6.344,6.4099,6.4492,6.4861,6.5125,6.5221,6.5127,6.491,6.467,6.4333,6.3949,6.4502,6.5151,6.5294,6.5438,6.5067,6.4235,6.3096,6.2398,6.1669,6.0983,6.0569,6.0477,6.0273,5.9749,5.9497,5.9199,5.8716,5.7988,5.7605,5.7293,5.687,5.6574,5.6509,5.6422,5.6443,5.664,5.664,5.629,5.6553,5.6771,5.688,5.6618,5.6356,5.6333,5.6509,5.6553,5.6574,5.664,5.6793,5.6748,5.6727,5.701,5.723,5.7273,5.7403,5.7403,5.7403,5.7403,5.7425,5.7425,5.7444,5.7188,5.6559,5.5791,5.4984,5.4512,5.4536,5.4458,5.4449,5.4047,5.3497,5.2968,5.2491,5.2194,5.2102,5.2379,5.278,5.3314,5.3699,5.4016,5.4146,5.4115,5.3545,5.2832,5.2708,5.2583,5.2269,5.2023,5.2027,5.2177,5.2582,5.2653,5.2334,5.235,5.2477,6.2574,6.3181,6.2602,6.2578,6.3011,6.2913,6.2768,6.2624,6.26,6.2793,6.3011,6.3203,6.341,6.3454,6.339,6.3478,6.3498,6.3368,6.3324,6.3398,6.4093,6.4405,6.4668,6.4981,6.4958,6.4838,6.4814,6.4694,6.4502,6.4405,6.4718,6.5175,6.5438,6.5173,6.4829,6.4092,6.3261,6.2565,6.1809,6.135,6.0845,6.0547,6.041,5.9931,5.9612,5.9451,5.8993,5.8557,5.8168,5.7765,5.7379,5.7056,5.6924,5.6902,5.6901,5.7097,5.7076,5.6793,5.7077,5.7228,5.7207,5.7054,5.6704,5.6748,5.6966,5.701,5.7032,5.7119,5.7338,5.725,5.7141,5.7447,5.7469,5.749,5.749,5.749,5.749,5.749,5.749,5.749,5.7442,5.714,5.6717,5.609,5.5346,5.5007,5.469,5.4592,5.4473,5.4095,5.3736,5.3261,5.2756,5.2451,5.2431,5.2688,5.3161,5.3712,5.3975,5.419,5.4071,5.3904,5.3329,5.2896,5.2989,5.2864,5.2164,5.1893,5.2123,5.2358,5.2623,5.2527,5.2164,5.2462,5.2894,6.2865,6.3253,6.3277,6.2987,6.2744,6.3035,6.2961,6.2576,6.2576,6.2646,6.2696,6.3201,6.3498,6.3785,6.3522,6.352,6.3719,6.3432,6.3416,6.366,6.4357,6.4477,6.4766,6.5151,6.5079,6.4742,6.4694,6.5054,6.491,6.5079,6.5151,6.4958,6.5053,6.4813,6.4448,6.388,6.3212,6.2495,6.2179,6.1603,6.0937,6.0914,6.0662,6.025,5.9976,5.9747,5.9266,5.8761,5.8416,5.8096,5.7771,5.7562,5.7469,5.749,5.749,5.749,5.7425,5.7403,5.7403,5.7469,5.7469,5.7359,5.7381,5.7447,5.7425,5.7359,5.7338,5.7338,5.7469,5.7469,5.749,5.749,5.749,5.749,5.749,5.749,5.749,5.749,5.749,5.7489,5.7488,5.7206,5.6615,5.6008,5.563,5.5267,5.4859,5.4452,5.4333,5.4234,5.3904,5.364,5.3165,5.2708,5.278,5.3017,5.3113,5.3545,5.388,5.4095,5.3927,5.3777,5.3478,5.3306,5.3454,5.3178,5.2447,5.2291,5.2507,5.2699,5.2911,5.2926,5.2702,5.332,5.3785,6.2889,6.3253,6.2939,6.2891,6.3059,6.2889,6.2504,6.2095,6.2408,6.2744,6.3129,6.358,6.3697,6.3522,6.3697,6.3653,6.3498,6.3438,6.3612,6.3998,6.455,6.4934,6.5223,6.5462,6.5438,6.5366,6.5342,6.5414,6.5558,6.5751,6.5463,6.503,6.5005,6.4622,6.409,6.348,6.2972,6.2541,6.2388,6.1764,6.1281,6.1212,6.096,6.0822,6.0639,6.0386,5.9949,5.915,5.8738,5.8278,5.7814,5.7514,5.749,5.749,5.749,5.749,5.749,5.749,5.749,5.749,5.749,5.749,5.749,5.749,5.749,5.749,5.749,5.749,5.749,5.749,5.749,5.749,5.749,5.749,5.749,5.749,5.749,5.749,5.7512,5.7511,5.7486,5.7306,5.669,5.6199,5.5796,5.5431,5.5073,5.4638,5.4255,5.4204,5.3999,5.376,5.3593,5.3161,5.3113,5.3281,5.3233,5.3353,5.3725,5.3866,5.3598,5.3491,5.3552,5.3552,5.3491,5.3175,5.2679,5.2698,5.2812,5.3024,5.3236,5.3274,5.3431,5.4044,5.4488,6.2915,6.2987,6.2915,6.2819,6.2698,6.2624,6.2287,6.1975,6.236,6.2865,6.332,6.3785,6.3829,6.3675,6.3851,6.3851,6.3609,6.3436,6.3564,6.4093,6.467,6.4934,6.5295,6.5606,6.5486,6.5534,6.5606,6.5654,6.5871,6.6135,6.5991,6.5342,6.5199,6.4718,6.4252,6.3896,6.3371,6.2845,6.2364,6.1856,6.1579,6.1533,6.1671,6.1488,6.1373,6.1005,6.0637,5.9654,5.8922,5.8463,5.7955,5.7514,5.749,5.749,5.749,5.749,5.749,5.749,5.749,5.749,5.749,5.749,5.749,5.749,5.749,5.749,5.749,5.749,5.749,5.749,5.749,5.749,5.749,5.749,5.749,5.749,5.749,5.749,5.7489,5.7509,5.7428,5.7336,5.6952,5.6435,5.6044,5.5747,5.5562,5.531,5.478,5.4321,5.4078,5.3784,5.3736,5.3593,5.3585,5.3474,5.333,5.3342,5.3608,5.3632,5.3322,5.35,5.3859,5.3673,5.3341,5.3128,5.3003,5.2985,5.3088,5.3325,5.3689,5.3992,5.4292,5.4819,5.5099,6.2961,6.2648,6.3059,6.279,6.2136,6.2526,6.2408,6.1977,6.2504,6.2891,6.3364,6.3785,6.3914,6.3807,6.4026,6.4077,6.3908,6.3737,6.399,6.4237,6.4814,6.5199,6.5462,6.551,6.5702,6.5439,6.5463,6.5943,6.5943,6.6183,6.6256,6.5775,6.5511,6.5054,6.4413,6.4079,6.3459,6.2607,6.2387,6.2086,6.174,6.197,6.2406,6.1947,6.1533,6.112,6.0753,5.9997,5.9016,5.8647,5.8231,5.7652,5.749,5.749,5.749,5.749,5.749,5.749,5.749,5.749,5.749,5.749,5.749,5.749,5.749,5.749,5.749,5.749,5.749,5.749,5.749,5.749,5.749,5.749,5.749,5.749,5.749,5.7534,5.76,5.7592,5.7523,5.7403,5.7315,5.679,5.6236,5.6026,5.5921,5.5786,5.5316,5.4662,5.4519,5.4214,5.4348,5.4333,5.3927,5.3774,5.3391,5.3427,5.3657,5.3729,5.3619,5.3876,5.4242,5.3941,5.3593,5.3588,5.3492,5.3443,5.3468,5.3653,5.4057,5.4674,5.5128,5.5507,5.5563,6.2336,6.2598,6.272,6.3014,6.3399,6.3237,6.3059,6.2941,6.3059,6.3203,6.3388,6.3741,6.3829,6.3653,6.4268,6.4346,6.409,6.4251,6.477,6.5048,6.539,6.5606,6.5991,6.6087,6.6135,6.6208,6.6256,6.6256,6.628,6.64,6.6424,6.6208,6.5775,6.5054,6.4695,6.4289,6.3335,6.2459,6.2337,6.2249,6.1994,6.158,6.1579,6.1671,6.1533,6.1051,6.0638,6.0021,5.9152,5.8532,5.8301,5.7907,5.7514,5.7512,5.7512,5.7512,5.7534,5.749,5.749,5.749,5.749,5.749,5.749,5.749,5.749,5.749,5.749,5.749,5.749,5.749,5.749,5.749,5.749,5.749,5.7512,5.7512,5.7512,5.7621,5.7732,5.7734,5.7662,5.76,5.7527,5.7185,5.655,5.6306,5.6236,5.6052,5.563,5.5188,5.5477,5.5329,5.5389,5.5264,5.4679,5.4236,5.3964,5.3822,5.3994,5.3996,5.3933,5.4031,5.4175,5.4119,5.3947,5.3846,5.3774,5.3832,5.3893,5.3936,5.4254,5.4793,5.5474,5.5945,5.589,6.1975,6.2287,6.272,6.32,6.3579,6.3426,6.3181,6.3035,6.3203,6.341,6.3609,6.3851,6.3851,6.3675,6.4399,6.4453,6.4205,6.4552,6.4813,6.5216,6.5727,6.6015,6.6303,6.6519,6.6447,6.6472,6.6472,6.6495,6.6519,6.6495,6.6471,6.64,6.5775,6.5391,6.52,6.4448,6.3537,6.266,6.2563,6.2433,6.2272,6.1833,6.1648,6.1809,6.151,6.1051,6.0684,6.0181,5.9519,5.8855,5.8555,5.8243,5.7849,5.7643,5.7665,5.7709,5.7687,5.749,5.7512,5.749,5.749,5.749,5.749,5.749,5.749,5.749,5.749,5.749,5.749,5.749,5.749,5.749,5.749,5.749,5.7556,5.7578,5.7776,5.7994,5.8213,5.8448,5.8393,5.8329,5.8254,5.8091,5.7476,5.6932,5.6845,5.6783,5.6293,5.5816,5.6124,5.6251,5.618,5.5948,5.5404,5.4997,5.4703,5.4571,5.4497,5.4449,5.446,5.4157,5.4046,5.404,5.4023,5.3975,5.3984,5.3972,5.3972,5.3971,5.4366,5.4872,5.5534,5.6142,5.6156,6.1976,6.2282,6.2909,6.3341,6.3445,6.3327,6.3083,6.2841,6.3107,6.3564,6.3939,6.3983,6.4005,6.4158,6.444,6.4295,6.4406,6.4989,6.5138,6.5263,6.5678,6.6087,6.6375,6.6519,6.6519,6.6519,6.6519,6.6519,6.6519,6.6519,6.6519,6.6519,6.6352,6.6135,6.5967,6.573,6.5023,6.3668,6.3143,6.2941,6.2573,6.2087,6.1902,6.1671,6.1488,6.1166,6.0799,6.0433,5.9863,5.9314,5.8807,5.8496,5.823,5.7977,5.7972,5.8016,5.7907,5.7665,5.7534,5.749,5.749,5.749,5.7512,5.7534,5.7578,5.7621,5.7621,5.7687,5.7687,5.7534,5.7534,5.7534,5.7534,5.7687,5.7754,5.7863,5.8147,5.8411,5.8695,5.8999,5.8894,5.8848,5.8733,5.8613,5.8132,5.7609,5.7435,5.746,5.7302,5.69,5.6796,5.6738,5.659,5.6317,5.6057,5.5721,5.5405,5.5394,5.5314,5.517,5.4896,5.435,5.4039,5.3996,5.3978,5.3998,5.3998,5.3972,5.3972,5.3972,5.4221,5.4612,5.5161,5.5717,5.6191,6.2666,6.3985,6.3128,6.3392,6.4181,6.365,6.3251,6.3181,6.3251,6.3567,6.3939,6.4005,6.4005,6.4026,6.4484,6.4519,6.4446,6.5228,6.5616,6.5697,6.6014,6.628,6.6448,6.6519,6.6519,6.6519,6.6519,6.6519,6.6519,6.6519,6.6519,6.6519,6.6039,6.5847,6.5751,6.5515,6.4999,6.4021,6.3515,6.3219,6.1948,6.1534,6.1442,6.1281,6.112,6.0799,6.0547,6.0455,6.0091,5.9566,5.8876,5.8633,5.8504,5.8332,5.8304,5.8387,5.8256,5.7994,5.7863,5.7752,5.7752,5.7731,5.7798,5.7885,5.7972,5.8171,5.8213,5.8366,5.8256,5.7774,5.7687,5.7687,5.7709,5.8147,5.8367,5.8564,5.8804,5.889,5.9065,5.9036,5.8883,5.877,5.8655,5.833,5.7734,5.7385,5.741,5.741,5.7335,5.7335,5.741,5.7165,5.6945,5.7007,5.6932,5.644,5.6162,5.6155,5.589,5.5225,5.4702,5.4259,5.4023,5.4151,5.41,5.4074,5.4049,5.41,5.3972,5.3998,5.3998,5.428,5.4894,5.5518,5.6179]}]]